ECMWFFLT2_500_avort_003.txt.gz
Vorticity
3 3 3 3 3 3 3 2 3 3 3 3 3 3 3 3 3 2 2 2 2 2 2 2 2 2 2 1 1 1 1 1 1 1 1 2 2 2 1 1 1 2 2 1 2 1 1 1 0 1 1 1
3 3 4 3 3 4 3 3 3 3 3 4 3 3 4 3 3 3 3 2 2 3 3 2 2 2 2 2 2 2 1 1 1 1 1 1 1 1 1 1 1 2 2 1 2 1 0 1 1 0 0 1
3 3 3 3 4 4 4 4 3 3 3 3 4 3 4 4 4 4 4 4 3 3 3 3 3 3 2 2 2 2 2 2 1 1 1 1 1 1 0 1 1 2 2 1 1 1 1 1 1 0 0 0
4 3 3 2 3 4 4 5 4 4 3 3 3 3 4 4 4 3 4 4 5 4 3 3 3 3 3 3 3 2 3 2 2 2 2 2 1 1 1 1 2 1 1 1 1 1 1 1 2 1 1 0
4 4 4 3 2 3 4 3 4 4 4 4 4 4 4 4 4 4 4 4 4 4 4 4 3 3 3 3 3 3 3 3 3 3 3 2 2 2 2 2 2 1 2 1 1 2 1 1 1 1 1 1
4 4 5 5 5 5 4 4 4 4 4 4 4 4 3 3 4 4 4 4 4 4 4 4 4 3 4 3 4 4 4 4 3 3 3 3 3 3 3 3 3 3 3 3 2 2 2 2 2 2 1 1
7 7 7 6 6 5 4 5 5 4 4 4 4 3 3 3 3 3 4 4 4 4 4 4 5 5 5 4 4 4 4 4 4 4 4 4 4 4 4 3 3 3 3 3 3 4 4 3 3 3 2 2
7 6 5 5 5 5 5 7 7 6 5 5 5 4 4 4 4 4 4 4 4 4 4 4 4 4 4 4 4 4 4 4 4 4 4 4 5 5 5 5 4 4 4 4 4 4 4 4 4 4 4 4
4 5 6 6 7 7 7 8 7 7 7 7 7 6 6 5 5 5 4 4 4 4 4 4 4 4 4 4 3 3 3 3 3 3 4 4 5 5 6 6 6 6 6 6 6 5 5 5 5 6 6 5
4 6 5 6 7 7 7 8 8 8 8 7 7 7 7 6 6 5 5 5 5 5 5 5 5 5 5 4 4 4 3 4 3 3 3 4 4 5 6 7 7 7 8 8 8 8 7 7 7 7 7 7
6 6 5 5 5 6 8 8 8 8 8 7 7 7 7 7 6 6 7 6 6 6 6 6 6 6 6 6 7 6 5 5 5 5 4 5 5 5 6 6 7 8 8 8 9 9 9 9 9 8 8 8
7 7 7 6 6 7 8 8 7 8 8 7 7 7 7 7 6 7 7 7 7 6 7 7 7 7 7 7 7 8 8 7 7 7 7 6 6 6 7 7 7 8 7 8 8 9 9 9 9 9 9 9
8 9 9 9 9 8 7 7 7 7 7 7 7 7 8 7 7 7 7 7 7 7 7 7 7 7 6 7 7 7 7 7 7 8 8 7 7 7 7 7 7 7 7 8 8 8 8 8 9 9 9 9
8 9 10 10 9 6 6 8 8 7 8 8 8 8 8 7 7 7 7 8 8 9 8 7 8 7 7 8 7 7 8 8 8 8 9 9 9 8 8 8 8 8 8 8 8 8 8 8 8 9 9 9
7 6 8 8 6 7 9 10 8 9 9 9 10 9 7 7 7 7 9 10 11 11 10 10 10 9 9 10 10 9 9 10 10 10 10 10 10 10 10 9 9 8 9 9 8 8 8 9 9 9 9 9
5 5 7 7 8 10 11 9 8 10 10 10 9 7 7 8 8 9 10 11 11 11 11 11 11 11 12 12 11 11 10 10 10 11 10 10 10 11 10 10 10 10 10 10 10 10 10 9 10 10 10 10
7 8 8 8 8 8 8 9 11 12 11 10 9 8 9 9 10 11 10 9 10 10 10 11 10 11 12 11 11 10 10 10 9 9 10 10 10 10 11 11 12 12 12 12 11 11 11 11 12 12 12 11
15 11 6 4 3 3 5 7 9 9 8 8 8 8 9 10 11 10 9 8 8 8 8 9 9 10 10 9 9 9 9 9 9 10 10 10 9 9 10 10 11 10 10 10 11 12 12 12 12 12 12 11
20 19 15 11 8 6 5 5 6 7 8 8 7 7 8 8 9 7 7 7 6 7 7 7 8 9 9 8 8 9 10 10 11 11 10 10 10 10 10 10 10 10 10 11 11 12 12 12 11 10 10 11
13 16 18 18 17 16 14 11 9 8 5 2 2 3 4 5 6 6 6 6 5 6 6 7 8 8 8 8 10 11 10 11 11 11 11 11 12 13 13 12 12 11 11 12 13 13 12 11 11 12 11 10
8 10 11 13 16 18 20 19 16 13 7 4 5 4 5 4 4 4 5 6 8 8 9 10 11 11 10 10 10 10 9 11 12 12 13 14 15 15 14 13 13 13 13 14 16 16 14 14 14 13 11 10
9 8 8 9 10 13 15 16 17 16 14 14 13 11 11 9 8 8 9 11 12 13 14 15 15 15 15 14 14 14 16 18 18 18 17 16 15 14 14 14 14 14 14 15 13 12 12 14 15 14 11 10
8 7 8 6 5 7 10 12 15 13 12 12 10 10 11 11 12 14 15 16 17 17 16 15 15 14 13 13 14 15 17 18 17 16 14 13 12 11 12 14 15 16 15 14 12 10 11 11 11 12 12 11
16 15 10 6 6 6 7 10 10 6 6 6 5 9 11 9 11 13 14 16 15 12 10 9 8 7 6 6 6 8 10 10 9 8 8 8 9 8 8 7 8 9 8 10 11 11 12 11 9 10 11 12
20 16 15 17 17 14 12 12 9 4 1 1 4 8 8 6 6 8 10 9 7 6 5 4 5 4 4 5 5 5 6 6 4 4 6 7 8 7 6 5 5 5 4 5 6 6 7 9 10 9 9 10
8 7 12 14 8 5 11 10 5 3 1 1 1 1 2 4 5 5 4 3 3 4 3 3 4 4 4 6 7 6 5 5 4 5 5 4 7 8 7 7 7 7 7 6 6 4 4 5 7 9 8 7
6 8 8 1 -5 -4 3 -0 -7 -2 5 5 3 1 3 6 5 4 5 6 5 5 4 4 5 4 4 5 6 7 7 7 6 6 6 4 4 5 6 7 7 8 8 8 9 8 8 8 6 8 9 7
6 9 7 3 3 4 6 4 0 2 5 5 3 3 7 9 8 9 10 10 10 11 10 9 8 7 6 6 5 5 6 8 9 7 6 5 3 4 5 5 5 6 6 7 8 8 11 13 9 8 10 9
7 8 8 7 8 8 5 6 7 6 4 2 4 7 9 10 10 12 12 12 11 10 9 10 10 10 10 9 8 7 5 5 9 10 9 6 4 4 4 5 4 4 4 5 6 6 9 14 12 9 10 10
6 7 7 7 9 10 6 4 4 6 6 4 5 7 8 8 9 12 12 8 4 2 2 2 4 6 8 8 8 8 7 5 6 9 10 8 6 4 4 3 3 4 5 4 5 5 6 9 11 11 12 11
6 6 7 7 8 8 7 6 4 4 6 6 6 6 5 5 7 9 5 1 2 5 9 12 13 12 12 11 9 7 6 6 5 6 9 10 9 7 5 4 4 5 5 4 5 5 6 5 6 10 14 15

ECMWFFLT2_500_avort_006.txt.gz
Vorticity
3 3 3 3 3 3 2 2 2 3 3 2 3 3 3 3 3 3 3 3 2 2 2 1 1 1 1 1 1 1 1 1 1 1 1 1 1 0 1 1 1 2 2 2 2 1 0 1 2 1 1 2
4 4 3 3 3 3 3 3 3 3 3 3 3 3 3 2 2 3 3 3 3 3 3 3 3 2 2 2 2 1 1 2 1 1 1 1 1 1 0 -0 1 2 1 1 1 2 1 1 2 1 1 1
6 6 5 4 4 4 4 4 3 3 3 3 4 4 4 3 3 3 3 3 3 3 4 4 4 4 3 3 3 2 2 2 2 2 1 1 1 1 1 1 1 1 1 1 1 2 2 1 1 1 1 1
6 7 8 8 8 6 6 5 5 5 3 3 3 4 4 4 4 3 3 3 3 3 3 3 3 4 4 4 4 4 3 3 2 2 2 2 2 2 2 2 2 2 1 0 1 1 1 2 1 1 1 1
3 3 4 5 6 6 6 6 7 6 6 5 4 4 4 4 4 4 4 4 3 3 3 2 3 4 4 4 3 4 4 4 4 3 3 3 2 2 2 2 2 2 2 1 1 1 1 1 1 1 1 1
3 2 3 3 4 4 5 5 6 7 7 6 6 6 5 4 4 4 4 4 4 4 3 3 3 3 3 3 3 3 4 4 4 4 4 4 3 3 2 3 3 2 3 2 2 2 2 2 2 2 1 1
5 5 5 5 5 4 3 4 5 5 5 5 5 6 6 6 5 5 4 4 4 4 4 4 3 3 3 3 3 3 3 4 4 4 4 4 4 4 3 4 3 3 4 3 3 3 3 3 3 2 2 3
8 7 6 6 6 5 5 4 4 4 4 4 5 5 5 5 5 5 4 5 5 5 4 4 4 4 3 3 3 3 3 4 4 4 4 4 5 5 4 4 4 4 5 5 4 4 4 4 4 4 4 4
8 6 6 7 7 6 6 6 5 5 4 5 6 6 6 6 5 5 5 5 6 6 5 5 5 5 5 5 5 5 4 4 4 4 4 4 4 5 5 5 5 5 5 5 5 5 5 4 5 5 5 5
13 11 10 8 7 7 7 7 7 7 7 8 7 7 5 5 6 6 6 6 6 6 6 6 5 5 5 5 6 6 6 5 5 5 5 4 4 5 5 5 6 5 5 5 5 5 5 5 5 5 5 5
13 16 15 12 9 8 8 8 8 8 9 8 7 8 7 6 6 6 6 6 6 6 6 6 6 6 6 5 5 6 6 6 6 6 6 6 5 6 5 5 5 5 5 6 5 6 6 6 6 6 6 6
9 11 14 16 14 13 11 7 6 6 6 5 6 7 7 8 7 6 6 6 6 6 6 6 6 6 6 5 5 6 6 6 6 6 6 7 7 6 6 6 6 6 6 6 6 6 6 6 6 6 6 7
7 8 10 13 15 18 16 12 10 6 3 4 4 5 6 7 7 7 7 6 6 6 7 7 7 7 7 6 6 6 7 7 6 6 7 7 7 7 7 7 7 7 6 6 6 6 6 6 6 6 7 7
12 11 11 10 10 13 15 17 17 14 11 8 6 5 5 4 5 6 6 6 6 6 7 7 7 7 7 7 7 7 7 7 8 8 8 8 8 9 9 8 8 8 8 8 7 7 7 7 7 7 7 7
13 13 14 13 12 11 12 15 17 19 18 15 13 12 9 7 6 6 7 7 7 7 7 6 6 6 6 7 7 8 7 7 8 8 9 9 10 10 10 10 11 10 9 9 9 9 9 8 8 8 7 7
9 10 11 11 12 11 11 13 14 16 17 17 18 16 15 13 10 9 9 8 8 8 7 6 6 6 7 8 8 8 8 7 8 9 10 10 10 10 10 10 10 10 10 10 10 9 9 9 9 8 8 8
8 7 7 8 8 8 9 9 10 11 13 14 16 17 17 16 13 12 11 9 9 8 7 6 6 6 7 7 7 7 7 8 8 9 9 9 9 9 9 9 9 9 10 10 10 10 9 9 8 8 9 9
6 5 5 6 6 6 6 6 7 7 7 8 10 12 14 15 16 17 16 14 13 10 7 7 7 8 8 8 7 7 7 9 9 9 9 8 8 8 8 8 8 9 10 10 9 10 9 9 9 9 9 9
4 4 4 4 5 5 4 5 5 5 5 5 5 6 8 9 11 14 15 15 16 14 11 11 14 15 13 12 10 9 9 9 9 9 9 9 8 8 8 8 8 8 7 8 8 8 9 10 10 11 10 10
5 5 4 4 4 5 4 4 4 6 6 4 4 4 4 5 6 9 11 12 13 12 10 11 14 16 16 15 14 12 12 11 12 12 11 10 10 10 10 10 9 9 8 9 9 9 9 10 11 12 11 10
6 6 5 5 6 6 6 6 5 5 6 5 5 5 5 6 6 7 7 8 9 8 8 9 10 12 15 16 16 16 16 17 16 14 14 14 14 15 14 14 13 12 12 12 11 12 12 12 12 12 11 12
8 7 6 6 7 7 7 8 7 5 5 5 5 4 5 5 7 7 6 7 6 5 5 5 7 9 11 12 12 14 16 17 16 14 14 15 15 15 14 14 15 14 14 14 14 14 14 14 14 13 12 13
9 8 6 6 8 10 9 8 9 7 5 6 7 7 6 6 7 7 6 7 5 5 5 5 4 5 6 7 8 10 12 14 14 14 14 15 15 14 15 16 17 17 16 16 16 16 17 17 16 15 14 13
8 10 11 11 13 14 13 12 11 9 6 7 8 8 7 6 7 7 6 6 4 3 4 3 3 5 5 5 6 5 5 9 14 16 15 14 14 13 13 13 13 14 13 13 12 13 14 14 16 16 15 15
4 9 12 10 10 10 11 13 14 11 9 10 13 13 10 8 7 6 5 5 4 5 5 3 1 3 4 3 5 3 4 10 14 14 11 9 9 8 7 8 8 8 8 6 6 7 7 8 11 11 11 11
1 3 6 5 7 8 6 6 7 6 5 7 12 13 10 11 12 10 9 7 5 4 2 1 -1 1 4 3 5 8 11 13 12 10 8 6 5 4 4 6 7 6 5 4 4 4 4 4 5 5 5 6
6 3 4 5 8 9 7 5 3 2 1 2 8 10 9 12 14 12 12 12 10 8 6 4 2 3 6 4 2 5 7 7 7 6 6 4 3 3 3 7 9 7 7 7 6 6 5 4 4 4 4 5
9 7 6 6 6 7 7 7 5 5 5 6 8 11 14 15 11 6 6 7 7 8 8 3 -2 -0 5 5 -0 -1 4 9 10 9 7 5 4 4 4 7 9 7 7 8 8 8 7 7 6 5 5 4
8 8 5 4 5 6 7 7 6 5 6 8 8 5 5 7 8 8 12 17 15 13 13 5 -7 -8 1 4 -2 0 10 15 14 13 12 12 11 9 7 9 10 7 5 5 4 6 8 8 7 6 5 5
13 10 7 8 11 10 8 6 6 7 6 6 7 5 2 -1 -2 -3 -3 -0 -2 -0 9 9 -4 -9 -2 2 -2 3 11 13 14 14 13 11 10 9 6 7 10 8 8 8 5 3 5 7 8 7 5 4
10 13 15 15 11 6 3 2 2 4 5 3 3 6 5 2 -0 -3 -5 -8 -11 -10 -6 -6 -9 -7 -1 1 1 5 9 9 11 10 7 8 10 10 9 9 9 6 7 10 9 6 5 5 5 7 5 4

ECMWFFLT2_500_avort_009.txt.gz
Vorticity
4 4 4 4 5 5 5 4 4 4 4 4 3 3 3 3 3 2 2 2 2 1 1 1 1 1 1 1 0 0 0 0 0 0 -0 -0 0 0 1 1 2 -0 -0 2 0 1 2 2 2 2 2 2
2 3 3 3 4 5 6 5 4 4 4 5 4 4 3 4 4 4 3 3 3 3 2 2 2 2 2 2 1 1 1 1 1 1 0 0 0 -0 0 1 1 -0 -0 0 -1 -0 2 2 2 2 2 2
2 1 3 3 3 4 5 5 4 3 3 4 4 4 4 3 4 4 4 4 3 3 3 3 2 3 2 3 2 2 3 2 2 1 1 1 1 1 0 1 2 0 0 0 -1 -1 1 2 1 1 1 1
10 8 6 4 4 3 3 4 4 4 3 3 3 3 4 4 3 4 3 4 4 4 4 3 3 3 2 3 3 3 3 3 3 3 3 2 2 1 1 2 2 2 2 1 -0 -1 0 1 1 0 1 1
14 15 14 11 8 6 5 4 4 4 3 3 3 3 4 5 5 4 4 4 4 4 4 4 4 3 3 3 3 3 3 3 3 3 4 4 4 3 3 2 2 2 2 2 1 1 1 1 1 1 1 0
12 12 13 15 14 14 13 10 8 6 6 6 5 4 4 5 6 5 5 4 4 3 3 3 4 4 4 3 3 3 3 3 2 3 3 3 4 4 4 4 3 3 3 3 2 2 2 2 2 2 2 1
10 9 8 10 11 12 15 16 15 12 10 9 8 8 5 5 5 5 5 4 4 4 3 3 3 3 3 3 3 4 3 3 3 2 2 2 3 3 4 4 4 4 4 4 4 3 3 3 3 2 2 2
6 7 6 6 7 6 7 11 13 15 15 12 9 8 8 7 6 6 6 5 6 6 5 4 4 3 2 3 2 3 3 3 3 3 3 3 2 3 3 3 3 4 4 5 5 5 5 5 5 4 4 4
7 8 6 6 7 6 5 5 5 8 12 15 14 11 8 7 6 6 6 6 5 6 6 5 5 4 3 3 3 3 3 3 3 3 3 3 3 3 3 3 3 3 3 4 4 4 5 5 5 5 5 5
11 11 11 9 8 7 7 7 5 3 5 8 13 16 15 12 9 7 7 6 5 6 6 5 5 5 4 4 5 5 4 4 3 3 4 4 3 4 4 3 3 3 3 3 3 3 4 4 5 5 6 6
12 13 13 13 12 11 10 9 8 7 5 4 4 9 14 15 16 13 11 9 7 7 7 7 6 6 6 4 5 6 5 5 4 4 4 5 4 4 4 4 4 4 3 3 3 3 3 3 3 4 5 5
8 10 11 13 14 13 13 13 12 11 9 8 5 4 5 8 11 14 16 16 13 10 8 8 6 6 6 5 3 5 5 5 5 6 5 5 5 5 5 4 4 4 4 4 4 4 5 4 4 4 4 4
4 6 7 9 10 11 12 13 14 15 13 12 11 8 7 6 6 8 12 15 16 14 12 10 9 8 7 7 5 5 5 5 4 5 5 5 5 6 6 6 5 5 5 5 4 5 5 5 5 5 5 5
3 4 4 4 6 7 8 8 10 12 13 13 13 12 11 11 10 9 9 10 10 12 15 15 13 12 10 9 8 7 6 6 6 5 6 5 5 6 6 6 7 6 6 6 5 5 5 6 6 6 6 6
5 3 3 3 3 4 4 5 6 7 9 10 12 12 10 10 11 12 12 12 11 10 12 15 16 15 14 13 12 11 9 8 8 7 7 6 6 7 7 7 7 8 7 6 7 6 6 7 7 7 7 7
8 5 2 2 3 3 3 4 4 5 7 7 8 9 9 9 9 11 10 10 11 11 10 12 14 15 15 16 16 16 15 13 11 10 10 9 9 9 9 9 9 9 9 8 9 9 9 9 9 9 9 9
9 9 5 3 3 3 3 3 3 3 4 5 5 6 7 7 7 8 9 8 8 9 9 9 11 13 13 14 14 14 15 16 15 15 15 14 13 12 11 11 11 11 11 11 11 11 11 10 11 11 10 11
9 10 8 6 4 4 3 2 3 4 3 3 3 4 5 5 5 6 6 7 7 7 6 7 8 9 10 11 11 11 12 13 13 13 16 16 16 16 16 15 15 14 14 13 12 13 13 12 12 12 12 11
8 10 10 9 7 6 5 3 2 3 5 4 3 4 4 4 4 4 5 5 5 6 5 5 6 5 5 7 8 8 9 11 12 11 12 13 14 15 16 17 18 17 16 15 14 14 14 13 12 12 12 11
7 8 9 10 10 8 7 6 3 3 5 6 5 4 4 4 4 4 5 4 4 5 5 4 5 4 4 5 5 6 6 9 10 10 11 11 12 12 12 13 14 15 14 14 14 13 12 11 11 10 10 11
8 7 7 8 9 10 10 8 5 3 2 4 6 6 5 5 5 5 5 5 4 4 4 4 4 4 4 4 4 4 5 6 7 8 9 10 10 10 11 11 11 11 12 11 11 10 10 9 9 9 9 8
10 9 8 7 7 8 10 10 8 5 2 -0 1 4 7 6 5 5 5 6 6 5 5 4 4 4 4 4 4 4 4 4 5 5 6 7 7 6 8 10 10 10 10 10 11 10 10 10 10 10 11 10
12 10 9 8 7 8 8 9 8 8 7 5 2 3 6 8 7 6 6 6 6 6 6 5 4 4 3 3 4 4 4 4 5 4 4 3 2 4 7 8 8 10 11 10 10 11 10 10 10 11 11 12
8 9 10 8 7 8 8 8 7 5 6 7 7 6 5 6 7 7 6 6 7 7 7 7 5 4 3 4 4 4 4 4 4 3 2 2 3 4 6 6 6 7 10 11 10 9 10 9 9 9 10 10
3 5 7 8 8 8 8 9 8 5 3 2 3 5 5 5 6 7 6 7 8 8 7 7 6 4 2 2 4 5 5 5 4 3 2 3 5 5 4 2 1 3 8 11 10 10 10 10 10 10 11 11
7 6 6 8 9 9 8 9 10 8 5 3 2 2 2 3 5 6 7 10 12 12 9 9 9 7 5 3 4 5 5 5 4 3 3 3 4 4 3 1 -1 1 7 11 12 14 13 11 11 12 13 13
10 10 8 8 10 11 10 8 8 8 6 6 6 6 3 3 5 7 8 9 12 13 10 9 9 7 5 3 5 7 6 6 5 4 4 3 4 5 3 1 1 3 9 13 14 15 15 13 12 11 11 10
8 11 12 10 9 11 12 11 8 6 5 4 4 6 7 5 5 7 7 6 5 8 9 8 7 6 6 3 6 12 10 6 5 5 6 6 5 6 3 0 2 6 9 9 7 8 10 12 10 9 8 7
8 9 11 11 9 9 13 14 11 7 6 5 3 3 5 7 5 2 3 5 4 4 5 7 8 6 7 3 1 9 13 9 6 5 6 6 3 4 4 1 2 7 7 1 1 4 5 7 8 7 7 5
17 14 12 9 6 7 13 17 15 10 6 6 7 5 4 7 8 3 0 2 4 6 5 4 6 8 10 8 -1 1 7 5 6 10 7 1 1 3 3 2 1 5 5 -0 1 7 7 7 8 8 8 7
17 17 16 14 10 7 9 15 17 14 9 6 7 7 7 7 9 7 4 3 3 6 8 3 1 3 7 9 1 -1 8 7 5 11 7 -1 0 3 5 6 3 3 3 -0 1 9 11 10 10 10 10 9

ECMWFFLT2_500_avort_012.txt.gz
Vorticity
10 10 10 9 9 9 9 8 8 8 8 7 6 5 4 3 3 3 3 2 2 2 2 2 2 1 1 1 -0 -0 0 1 1 1 1 1 1 1 1 1 1 2 1 1 2 2 2 2 2 2 3 3
11 10 9 9 9 8 7 7 6 6 7 7 7 7 6 5 3 3 3 3 3 2 2 2 2 2 2 1 1 0 0 0 0 0 0 0 1 0 0 0 0 1 1 1 1 1 1 1 1 2 2 2
10 11 10 8 10 9 7 8 7 6 6 6 6 6 6 6 5 4 3 3 3 3 3 3 2 2 2 2 2 1 1 0 0 0 0 -0 0 0 0 0 0 0 -0 0 0 1 0 0 1 1 1 1
8 10 10 9 10 10 8 8 9 7 6 7 7 8 8 7 6 5 5 3 3 2 3 4 4 3 3 3 2 2 2 1 1 1 1 0 0 1 0 1 1 1 0 -0 -0 0 0 0 0 -0 1 0
5 6 8 8 8 9 10 7 9 9 8 7 7 9 10 11 10 8 7 5 4 3 2 3 4 4 3 4 3 3 3 2 2 2 2 1 1 1 1 1 3 2 0 0 0 0 0 0 0 0 0 -0
3 3 4 7 7 6 8 8 8 8 9 8 8 8 7 9 12 12 11 9 8 6 4 3 3 4 3 3 4 4 3 3 3 3 2 3 3 3 2 2 4 2 2 2 1 1 1 1 1 1 1 0
6 5 3 4 7 5 5 7 7 7 8 7 8 10 9 7 8 9 10 10 11 11 9 7 5 4 4 3 3 4 4 3 4 3 3 3 3 3 3 3 3 2 3 4 3 3 3 2 2 1 1 1
11 10 8 5 6 7 6 5 6 6 7 6 5 6 9 9 9 10 8 6 7 9 10 10 10 8 7 6 4 4 4 3 3 4 3 2 2 2 2 2 2 2 2 3 4 4 4 4 4 3 3 3
12 13 13 11 9 8 8 7 7 7 7 7 6 5 6 6 7 10 11 10 7 7 8 8 9 10 9 10 8 5 5 5 4 3 3 3 2 2 2 2 2 2 1 2 2 3 4 4 4 4 4 4
9 11 12 13 13 11 9 9 8 8 8 9 8 7 7 6 4 5 7 10 10 7 10 9 6 9 9 9 10 7 6 7 7 5 3 3 4 4 4 3 2 3 2 2 1 2 2 3 3 3 3 3
6 6 7 8 10 12 12 11 10 8 8 9 9 9 9 9 8 7 6 6 7 4 9 12 7 9 11 10 11 10 8 7 7 8 7 5 4 4 4 4 3 3 4 3 2 2 2 2 3 3 3 3
4 4 5 5 5 7 8 9 10 10 8 7 8 9 9 10 9 10 10 9 10 5 4 10 8 7 10 11 11 12 11 10 8 7 8 8 6 5 5 5 4 2 3 4 4 4 3 3 4 4 4 4
4 4 4 5 5 5 6 6 6 7 8 7 7 7 8 9 9 9 11 11 14 12 4 5 9 6 6 8 9 10 10 12 13 10 9 10 8 6 5 6 6 4 3 4 5 5 5 4 5 5 5 5
5 4 4 5 5 5 6 6 6 6 6 6 6 6 6 7 8 7 8 9 11 15 11 6 8 6 5 8 8 8 6 8 12 11 9 11 11 10 8 6 5 5 5 5 5 7 7 6 5 5 6 6
4 4 4 3 3 3 4 5 6 6 6 6 5 5 5 5 6 6 6 7 6 10 13 9 10 10 6 5 7 7 5 5 10 11 8 6 9 12 13 11 9 7 7 6 6 6 7 8 7 6 6 7
4 5 6 5 4 3 2 3 3 4 5 5 5 5 5 4 4 5 4 5 5 6 9 8 9 13 11 7 8 8 6 4 6 10 10 6 3 6 11 14 14 13 11 10 10 9 8 9 10 10 9 9
6 6 6 6 7 7 6 5 3 4 4 4 5 5 5 5 4 5 3 3 3 4 7 7 5 8 12 11 10 11 9 5 3 6 11 11 6 4 7 9 11 13 13 12 14 14 12 11 12 13 13 11
9 8 6 5 5 7 8 8 6 5 5 5 6 6 5 6 5 5 5 4 3 2 4 6 4 3 7 11 10 11 12 10 7 4 5 8 7 5 8 9 8 8 9 10 12 14 14 14 14 14 14 13
7 7 8 7 6 5 5 7 8 8 7 6 6 7 7 6 6 6 6 6 5 4 3 4 5 2 2 7 9 9 11 12 11 8 5 6 5 3 4 10 10 6 6 9 9 10 11 12 12 12 13 13
5 5 6 6 6 6 5 5 6 7 8 8 7 6 6 6 6 6 6 6 5 5 5 4 5 4 0 2 6 7 8 10 12 12 11 9 6 2 1 5 11 8 5 8 9 10 12 11 11 10 10 10
7 7 7 7 6 6 6 6 5 5 6 8 8 6 6 6 6 6 6 6 6 6 7 6 6 6 3 -0 2 5 6 7 9 11 12 12 10 7 3 2 8 8 4 6 9 9 10 11 11 11 10 9
8 8 9 10 10 9 7 6 5 5 5 6 8 7 6 6 6 6 6 6 7 7 7 8 8 7 6 3 0 2 5 5 5 7 8 10 12 11 9 4 6 8 5 5 8 8 6 8 10 10 10 9
9 9 9 8 8 11 11 10 8 6 5 4 5 7 7 7 7 6 5 5 6 7 7 7 8 9 9 7 4 -0 1 4 4 5 6 7 9 10 10 7 5 7 5 4 7 9 6 5 8 10 10 11
9 9 9 8 6 6 8 10 12 11 9 6 4 5 6 7 7 7 8 6 5 6 7 7 7 9 11 10 9 3 -0 2 3 4 5 5 7 7 6 5 4 5 5 4 4 7 7 4 6 7 8 10
7 8 9 10 10 9 7 6 7 10 11 11 8 5 5 5 5 6 6 7 7 6 6 8 6 6 8 9 13 13 6 1 2 4 5 5 6 6 5 3 2 3 4 3 3 5 5 3 4 5 6 8
9 9 8 8 10 11 12 10 8 8 8 11 11 9 7 5 5 5 4 4 6 7 7 9 8 6 6 6 9 14 11 4 2 3 5 6 6 5 5 5 4 3 3 3 4 3 3 5 7 5 3 5
10 10 10 10 10 10 12 13 13 12 10 8 9 8 8 7 6 5 6 4 2 4 5 6 7 6 5 5 5 8 11 8 4 2 4 6 8 7 6 5 3 3 4 4 4 2 3 5 5 5 3 2
4 4 5 6 8 9 10 11 11 12 11 9 7 6 4 4 5 4 4 6 5 3 3 3 5 4 3 3 3 5 9 10 5 3 4 5 6 9 9 7 5 4 4 5 5 3 4 4 4 7 4 -2
12 11 10 9 9 10 11 12 11 10 9 7 6 7 7 5 5 5 4 4 5 6 5 3 4 5 4 4 4 4 6 8 8 4 4 4 4 6 8 8 8 6 4 3 4 4 4 4 6 5 -1 -5
25 24 22 21 19 17 16 16 15 15 13 9 5 4 7 8 6 6 6 5 4 5 6 6 5 5 5 5 4 5 5 6 8 7 5 3 2 3 4 6 8 7 6 4 4 5 3 4 5 3 0 1
33 34 33 31 29 27 25 23 21 20 20 18 14 7 5 8 9 8 7 7 6 5 5 7 7 4 4 6 5 5 5 5 5 6 6 5 4 3 1 3 7 6 5 5 3 4 5 5 4 3 4 5

ECMWFFLT2_500_avort_015.txt.gz
Vorticity
12 11 10 10 10 10 10 11 11 10 10 8 8 9 10 9 9 10 10 10 9 6 5 6 5 5 4 4 4 3 3 2 2 2 2 2 3 3 3 3 4 4 3 3 3 3 3 3 4 4 3 3
12 12 12 11 11 11 11 12 12 11 10 10 9 8 7 8 7 8 8 9 10 8 6 6 5 5 5 4 4 3 3 2 1 2 2 2 2 2 2 3 2 2 2 2 3 3 3 3 3 3 3 3
7 8 9 9 10 10 11 12 13 13 12 10 10 9 7 7 6 6 6 7 7 8 8 6 6 5 5 5 4 3 2 2 1 2 2 2 1 1 1 2 2 1 1 2 2 2 2 3 2 2 2 2
6 6 6 6 6 7 8 9 11 12 13 12 11 11 9 7 6 5 5 6 5 6 7 7 7 6 5 5 5 4 3 2 2 2 2 2 2 1 1 1 1 1 1 1 1 1 1 1 1 2 2 2
9 9 9 8 7 7 7 7 8 9 10 11 11 12 11 9 7 6 6 6 6 6 5 6 7 7 6 5 5 5 4 4 3 3 3 2 2 1 1 1 1 1 1 1 1 1 1 0 1 1 1 1
8 9 10 10 10 9 8 8 9 8 8 9 9 9 10 10 9 7 7 7 7 7 6 5 6 8 9 7 6 6 6 6 4 3 3 2 3 2 1 1 2 1 1 1 1 0 0 1 1 1 0 0
6 7 7 9 10 9 9 9 10 9 9 10 9 9 8 9 9 8 7 8 8 9 9 6 5 7 9 8 8 8 7 7 6 5 4 3 3 3 2 2 3 2 1 1 1 0 -0 1 1 0 0 0
6 7 7 8 8 9 10 10 10 10 10 10 10 11 10 9 9 7 6 6 7 9 10 9 7 6 8 8 6 7 8 8 8 6 5 6 4 3 4 3 2 2 2 2 2 1 0 2 1 1 1 1
7 7 7 8 7 8 9 9 9 9 9 9 9 10 12 12 11 10 9 7 6 6 7 9 9 8 8 9 7 5 5 8 10 9 7 6 6 5 6 5 3 3 3 3 4 3 1 2 2 1 2 2
7 7 7 7 7 7 7 8 8 8 8 7 8 8 9 10 11 12 12 11 9 8 7 6 7 8 9 10 10 6 3 5 8 9 8 7 7 6 5 7 6 5 4 4 4 4 3 2 3 2 2 2
6 7 7 6 6 6 6 7 7 7 7 7 7 7 7 9 9 9 10 11 12 12 11 9 6 6 7 7 11 10 5 5 7 6 7 7 8 7 5 6 7 6 6 5 4 4 5 4 3 3 3 3
6 6 6 6 6 5 5 5 6 6 6 6 5 5 6 7 7 7 7 8 9 10 12 13 10 8 7 5 8 12 7 5 9 8 6 7 7 7 6 7 8 7 5 5 5 5 6 5 4 4 4 4
5 5 5 6 6 5 5 4 5 6 6 6 5 5 4 4 5 6 6 6 6 6 8 11 12 11 10 7 6 10 8 4 9 10 8 8 7 6 6 7 10 9 6 4 5 5 6 7 5 4 4 4
4 4 4 4 5 5 5 5 4 4 4 5 5 5 5 5 5 6 6 6 6 6 5 6 7 9 12 12 8 10 10 4 5 10 10 8 8 7 5 4 9 12 9 6 6 5 6 7 8 6 4 4
6 5 5 4 4 4 4 5 4 3 2 3 3 3 4 5 5 5 6 6 6 6 6 5 4 5 7 11 11 11 14 9 3 6 10 10 8 6 5 2 4 9 10 8 8 8 6 6 9 9 7 6
10 9 7 6 6 5 5 5 5 4 3 3 2 1 1 2 4 4 5 5 5 6 7 7 6 5 4 6 9 10 11 12 8 5 7 10 10 8 7 6 4 5 8 7 7 8 8 6 7 10 10 8
9 10 10 9 7 6 6 6 5 6 6 5 4 4 2 1 2 2 3 3 4 5 5 6 6 6 4 2 4 8 10 12 10 7 7 9 11 10 8 8 7 5 6 6 5 5 7 8 7 8 10 10
8 8 8 8 8 8 7 6 6 6 6 6 6 6 6 4 3 3 3 3 2 3 3 4 5 6 10 10 4 1 3 7 10 9 8 8 9 11 9 8 8 7 6 6 6 4 5 7 7 8 9 9
10 9 8 7 7 8 7 7 6 6 6 6 5 6 7 7 6 5 4 4 3 3 3 3 4 4 8 14 17 15 8 3 7 8 7 8 8 10 11 9 9 10 8 7 7 6 5 5 6 8 8 8
8 10 11 10 9 8 8 7 7 6 6 5 5 5 6 7 7 7 7 6 5 5 4 4 4 3 -0 -1 3 11 12 6 5 5 5 6 6 7 10 10 9 10 11 10 7 6 6 7 7 6 6 8
5 6 7 10 11 11 10 9 8 7 6 5 5 4 5 6 5 6 7 7 7 5 5 5 4 4 2 -2 -8 -9 -1 5 5 4 5 5 4 4 6 8 8 9 11 12 11 9 7 7 9 7 5 5
5 5 5 5 7 9 11 12 11 9 8 6 5 4 3 4 5 5 5 5 6 6 5 5 5 4 3 3 1 -3 -1 4 4 4 4 4 5 4 3 5 7 8 9 12 13 11 7 4 4 5 4 3
6 6 6 5 4 4 6 8 10 11 10 9 7 6 4 3 4 5 6 6 5 5 6 5 5 5 5 4 4 3 2 2 3 5 4 3 4 5 5 4 4 4 5 8 10 10 10 8 5 3 3 3
6 7 7 6 6 6 5 4 6 8 10 10 9 8 7 5 4 4 5 7 7 6 6 6 5 5 5 5 5 5 4 3 3 4 5 5 4 5 7 5 4 4 3 4 7 10 9 8 7 5 4 4
3 5 6 6 6 5 5 5 4 5 7 10 11 10 9 8 8 7 5 5 6 8 7 6 6 5 5 5 5 4 5 5 4 4 5 6 5 3 5 6 5 4 5 3 1 4 7 10 12 10 8 7
7 8 8 7 6 4 4 4 3 3 4 5 8 10 11 10 10 9 8 6 5 6 8 7 6 6 5 5 6 5 4 4 4 3 4 5 7 5 3 5 7 5 4 3 3 4 7 8 8 9 8 5
19 20 19 17 15 12 9 6 5 4 4 3 3 5 7 10 10 9 9 8 7 6 6 8 8 7 6 5 6 6 6 6 5 4 3 3 6 7 5 4 5 5 3 3 5 4 1 2 5 7 5 6
29 31 31 31 29 26 22 17 12 10 10 8 6 5 4 6 8 9 9 9 10 8 6 6 8 8 8 7 6 6 5 6 7 6 5 3 3 6 8 5 4 5 5 5 4 3 3 4 5 3 3 9
36 37 39 40 40 39 38 35 30 25 21 18 15 12 8 7 6 6 6 7 9 11 10 8 7 7 7 7 7 7 5 4 4 6 6 7 6 5 7 8 7 7 6 5 4 4 6 6 4 5 9 14
35 37 38 40 42 44 45 45 42 40 36 31 26 21 17 13 11 9 8 7 4 6 10 11 10 9 7 7 7 7 8 6 3 4 5 6 7 7 7 8 9 8 6 6 6 4 3 5 7 9 8 5
34 33 34 34 35 37 40 42 41 40 41 41 38 35 31 25 19 14 12 12 10 5 4 7 10 11 10 9 7 6 8 9 7 4 3 5 6 6 5 6 8 10 6 4 7 8 5 4 5 7 5 4

ECMWFFLT2_500_avort_018.txt.gz
Vorticity
10 11 12 11 12 12 12 12 11 11 11 10 10 10 10 9 9 8 9 10 10 9 9 8 7 6 6 6 8 9 10 11 12 11 10 8 7 8 8 8 6 5 6 7 7 6 5 6 6 6 6 6
8 8 8 9 9 10 11 11 11 11 11 10 10 10 10 11 10 10 10 10 11 10 10 9 9 7 6 7 7 7 8 9 10 11 10 7 6 7 7 7 4 3 6 8 5 5 5 4 5 5 5 5
7 7 7 7 6 6 7 7 7 8 9 9 9 10 10 11 12 11 11 11 11 11 11 10 9 8 7 7 7 7 6 7 8 9 9 8 5 6 6 6 5 -0 4 10 4 3 5 3 4 4 4 4
8 8 8 8 8 7 7 6 6 5 6 7 7 8 9 9 10 11 11 12 12 12 12 12 11 9 7 6 7 7 7 6 6 6 7 8 7 6 5 5 5 -1 -1 9 5 1 3 3 4 3 4 4
8 8 9 9 9 9 8 8 8 7 6 7 7 7 8 8 8 8 9 10 12 13 13 13 11 11 10 7 6 6 7 7 6 6 6 6 7 6 6 5 5 -0 -2 6 7 3 3 3 4 3 3 4
6 6 7 8 8 9 8 8 8 8 8 7 7 7 7 8 8 8 8 8 9 11 13 14 13 11 11 10 8 6 6 6 6 6 7 7 5 5 6 5 5 3 -0 3 6 5 4 4 4 4 2 2
10 8 7 6 7 7 7 8 7 7 7 7 7 7 8 8 8 8 8 8 7 8 10 13 15 14 12 11 10 9 7 6 5 5 8 9 6 6 5 4 5 6 3 2 5 5 4 3 4 4 3 2
10 11 11 9 9 8 8 8 7 7 7 7 7 7 7 7 7 7 8 8 7 7 7 8 11 13 14 14 11 11 10 8 7 4 6 8 7 7 4 3 5 6 5 4 4 5 4 3 2 2 2 2
5 6 7 8 8 8 8 8 7 7 8 8 8 7 7 8 8 8 7 8 8 7 6 6 6 8 10 14 14 12 12 10 10 7 5 7 7 6 4 4 7 5 4 7 6 5 5 3 2 2 1 2
6 5 5 5 5 5 6 7 7 6 6 7 7 8 7 7 8 8 8 8 8 7 7 7 7 7 7 9 11 13 13 11 11 11 8 8 8 5 2 3 7 6 4 6 7 6 6 5 2 1 2 2
4 4 4 5 5 4 4 5 6 6 6 6 6 7 6 6 6 6 8 7 7 8 8 7 6 7 7 7 8 9 11 12 12 12 11 10 10 8 3 2 4 5 6 7 8 6 5 6 4 3 2 3
2 2 2 3 4 4 4 3 3 5 5 6 6 6 6 5 5 5 6 7 7 7 8 8 6 5 6 7 9 8 7 8 9 11 13 12 11 11 8 5 3 2 4 7 9 8 7 6 5 4 4 3
3 3 3 2 3 3 3 3 2 3 2 4 5 5 6 5 5 5 4 5 6 6 6 7 7 7 5 4 6 9 9 8 7 7 10 12 11 11 10 9 7 3 2 5 8 8 9 8 5 4 5 4
7 7 7 6 6 5 4 4 3 3 2 2 3 3 4 5 5 5 5 5 5 5 6 6 6 5 6 6 4 5 8 9 10 7 7 10 11 10 11 11 10 7 3 2 4 6 7 8 6 3 5 5
12 11 10 10 10 9 8 8 7 5 5 4 3 3 3 3 4 4 5 5 5 5 5 6 6 4 4 5 5 5 6 6 8 9 7 8 10 10 9 9 9 8 7 4 3 6 8 8 6 4 5 6
10 10 10 9 8 9 9 9 10 9 9 7 6 5 4 3 3 3 4 4 5 5 5 5 5 6 4 3 3 4 7 7 6 8 8 7 10 11 9 8 9 9 9 10 9 8 10 11 9 5 4 5
8 8 9 9 8 7 6 6 7 8 9 10 9 8 7 6 5 3 3 4 4 4 4 4 5 6 7 6 4 3 3 5 6 7 8 6 7 11 12 10 10 10 9 10 11 10 9 11 11 9 6 5
4 5 6 7 8 8 8 7 6 6 6 7 9 9 9 8 8 6 4 3 4 4 4 3 3 4 6 8 7 6 3 2 3 5 6 6 4 7 11 12 12 11 10 9 9 8 9 11 11 10 9 6
-0 0 1 2 4 6 7 8 7 7 6 6 7 8 8 8 9 10 9 6 4 4 4 4 3 2 3 5 6 7 6 4 3 2 4 6 4 3 5 8 10 11 11 11 10 8 7 10 12 11 10 9
-0 -1 -1 -1 0 2 4 6 7 8 8 7 6 6 6 6 7 9 10 10 8 4 4 5 4 4 3 2 3 5 7 8 6 4 5 7 7 6 4 3 5 7 8 10 12 12 8 6 10 11 11 11
4 3 3 2 1 1 1 2 4 6 8 8 8 7 6 5 5 6 8 11 11 8 5 4 4 5 5 4 3 3 5 7 8 9 8 6 7 7 6 6 4 4 5 6 8 10 11 8 7 10 11 12
5 5 6 7 5 4 3 1 0 0 2 5 7 8 8 7 4 3 4 7 10 11 8 6 5 4 5 6 5 4 4 5 7 10 8 5 6 6 6 6 5 3 3 5 7 7 10 11 9 8 9 10
5 6 6 8 8 8 8 6 4 2 0 0 2 5 6 8 9 7 4 3 4 8 10 8 6 5 5 5 5 4 4 4 4 5 4 3 4 6 6 7 7 8 5 2 4 6 6 7 9 8 7 8
7 7 8 9 9 9 10 10 10 8 6 3 1 2 3 4 6 9 10 8 4 3 6 9 9 7 6 5 5 5 4 4 4 3 3 3 3 4 5 5 3 6 10 7 2 3 3 3 4 6 7 8
7 7 7 8 8 8 8 8 9 10 10 9 5 3 3 3 2 2 6 9 9 7 4 5 7 8 9 7 5 4 4 4 5 5 5 5 6 5 4 5 1 -0 6 8 4 1 1 4 6 6 6 6
8 9 8 9 9 8 7 7 7 9 9 9 9 6 3 3 3 2 2 3 6 9 8 6 4 5 7 8 8 6 4 3 3 4 5 6 8 7 5 6 6 5 2 3 8 7 1 1 5 6 4 4
12 13 14 15 17 16 15 15 14 14 14 12 11 10 7 4 4 2 2 2 3 4 6 7 7 5 5 5 7 7 5 3 3 2 2 4 6 7 7 5 5 4 0 -4 -1 5 3 -2 0 4 3 2
19 21 23 24 26 28 28 28 26 25 25 23 20 18 14 12 11 8 3 2 4 4 3 4 6 6 6 6 6 6 6 4 3 2 2 2 2 4 6 7 4 2 1 -4 -10 -6 2 2 -0 0 1 2
25 26 28 29 31 33 35 38 39 38 38 36 35 34 29 24 21 19 14 7 5 6 5 3 3 4 5 6 7 7 6 5 3 2 2 2 3 3 3 6 7 5 5 5 1 -1 2 5 3 1 3 7
25 26 28 31 34 36 37 40 42 45 46 45 45 45 43 39 35 31 27 21 14 13 12 7 4 3 4 4 6 7 7 6 5 3 3 3 3 4 4 4 5 5 5 7 9 7 4 3 4 3 3 4
26 30 34 35 37 38 38 38 39 41 44 47 46 46 47 46 45 42 39 35 27 23 23 20 13 7 5 4 4 5 6 7 6 4 4 4 5 5 5 5 4 4 4 4 5 7 8 6 3 2 2 2

ECMWFFLT2_500_avort_021.txt.gz
Vorticity
9 10 10 10 10 10 9 10 12 11 10 10 11 12 11 10 10 9 10 10 10 10 9 7 6 6 6 6 6 6 6 6 6 6 4 4 4 5 7 7 6 8 9 8 8 9 10 11 11 11 10 9
7 7 7 7 7 8 7 8 8 9 9 9 9 10 11 10 10 10 10 11 11 11 11 10 8 8 8 8 7 7 7 7 6 7 6 5 5 4 4 6 6 7 9 9 9 10 9 9 10 10 10 10
8 7 7 7 7 7 7 7 7 7 6 7 7 7 8 9 10 9 9 9 10 10 11 11 10 10 10 10 9 8 8 8 7 8 8 7 7 5 5 5 5 6 8 9 10 10 10 9 9 10 11 10
6 7 7 6 6 6 6 7 7 7 7 7 6 5 6 7 8 8 7 7 7 8 10 11 11 11 10 10 11 11 10 9 9 8 9 9 8 7 7 6 5 6 7 7 9 10 10 9 8 8 9 10
3 4 4 5 5 4 5 6 6 6 6 7 7 6 7 7 7 7 6 6 6 6 7 8 9 9 10 11 10 11 11 11 11 10 9 9 9 8 8 7 6 6 6 6 9 11 9 8 9 7 7 8
4 4 4 5 5 4 5 5 5 6 5 6 6 6 7 7 7 8 7 7 6 5 5 6 6 7 8 10 11 10 11 11 12 11 9 9 9 9 8 8 7 7 7 5 7 12 9 6 8 8 7 7
9 8 8 7 7 7 6 6 6 6 6 7 7 6 6 6 6 6 7 8 7 6 6 7 7 6 5 7 9 9 10 11 12 12 11 10 8 9 9 8 8 8 8 7 4 8 11 7 5 5 6 7
9 10 10 9 9 9 9 9 9 8 8 8 8 9 8 7 7 6 5 5 7 7 6 6 7 8 6 5 6 7 8 9 11 12 13 11 8 9 9 9 10 8 7 9 4 4 9 8 6 4 4 6
8 8 8 9 9 8 8 9 9 10 10 9 8 9 9 9 9 9 8 6 5 6 6 6 6 8 8 6 6 6 6 7 8 10 12 12 11 10 8 8 10 8 5 8 7 5 7 7 7 6 3 4
6 6 6 7 7 7 7 7 8 8 8 8 7 8 8 9 8 8 10 9 7 5 5 6 5 7 8 7 7 7 7 6 5 7 9 11 13 12 10 8 8 9 7 6 7 7 9 7 5 6 5 3
5 5 5 5 6 5 5 4 5 5 6 7 6 6 6 7 8 7 6 8 9 7 5 4 5 6 7 7 7 7 8 8 6 6 6 8 10 13 13 11 9 8 8 8 7 6 9 10 7 5 5 4
5 5 5 5 5 5 5 4 3 2 3 4 5 5 4 4 6 7 6 6 7 7 7 5 3 5 7 8 7 6 7 9 9 7 6 6 7 10 12 13 13 9 7 7 8 7 7 9 10 7 4 4
6 5 5 5 5 5 5 5 4 2 1 1 1 3 4 3 2 4 6 6 6 5 6 7 4 3 4 6 7 7 6 6 9 9 9 7 7 8 9 10 13 13 9 6 6 7 7 7 9 10 7 5
8 8 7 6 5 5 5 5 5 4 2 0 -0 -1 0 1 1 1 2 3 6 5 5 6 6 5 3 3 4 7 8 6 7 8 9 8 7 7 8 9 10 11 11 10 7 5 6 7 7 8 8 6
11 10 10 9 8 7 6 6 7 7 7 6 5 3 1 1 1 0 1 0 1 3 4 5 6 6 5 4 2 3 6 6 6 7 7 8 8 7 8 8 8 9 9 10 10 8 6 6 7 7 6 5
9 10 10 10 10 10 9 8 8 9 10 11 11 11 9 7 5 3 2 1 1 1 1 2 3 4 5 5 4 4 4 5 5 6 7 7 8 7 7 6 7 7 8 9 10 12 11 10 9 9 7 5
5 5 6 7 8 9 10 9 9 9 8 8 7 7 8 8 8 8 6 4 3 2 2 1 1 2 3 4 4 5 5 4 4 5 7 7 7 7 7 7 7 7 7 9 10 10 11 12 12 11 10 8
5 4 3 3 4 4 5 6 7 7 6 5 5 5 5 6 6 7 8 7 6 5 4 3 1 1 2 3 3 3 4 5 5 5 5 6 7 7 7 7 8 8 6 7 10 10 10 11 13 12 10 9
8 8 7 4 4 3 3 3 3 4 4 4 5 7 8 8 8 7 7 7 7 7 7 7 5 3 1 2 3 3 3 3 4 6 6 5 6 7 8 8 7 8 7 5 6 9 10 10 11 12 12 10
5 5 6 6 5 4 2 2 1 2 3 5 5 6 6 6 7 8 8 8 8 7 6 7 7 7 6 3 1 3 4 3 2 3 5 5 5 6 7 8 8 7 7 5 4 6 9 10 10 10 13 13
5 5 5 6 6 6 5 4 3 3 3 4 4 4 5 4 5 5 5 7 8 9 8 6 6 6 8 8 5 2 1 4 4 3 3 4 5 6 6 7 9 8 7 5 5 4 5 8 9 10 11 13
7 8 8 8 8 8 8 8 7 6 4 2 1 0 2 3 4 5 5 4 5 7 8 7 7 5 4 6 8 7 4 1 3 4 4 3 4 5 6 7 7 8 8 8 8 6 5 6 6 9 11 11
6 6 6 5 6 7 7 7 7 6 6 5 3 1 -0 -1 0 2 4 6 6 7 7 6 6 6 6 5 4 6 7 5 2 2 4 4 3 3 6 7 7 7 7 8 7 4 5 6 6 5 6 8
9 8 7 5 4 4 5 7 7 7 6 6 5 4 3 1 -1 -1 -1 1 4 7 9 10 7 5 4 6 6 4 5 7 5 2 2 3 4 3 3 6 8 9 8 10 9 6 3 4 6 5 3 5
9 10 10 9 7 5 5 6 8 9 7 6 6 5 5 5 3 1 0 -1 0 2 4 8 12 10 7 4 4 5 5 5 6 6 4 1 2 3 4 4 6 8 11 12 11 8 5 3 4 7 6 5
9 10 10 11 10 8 7 7 9 10 9 7 6 7 6 7 6 5 3 1 1 1 1 1 5 9 12 9 5 3 4 4 4 5 7 5 2 1 2 3 4 6 8 8 6 7 9 9 6 7 10 7
10 11 10 11 11 9 9 8 8 9 10 8 7 8 7 8 9 7 6 4 2 2 1 0 1 2 6 11 11 6 3 3 4 3 4 6 6 3 0 1 2 5 7 6 6 8 13 15 9 3 3 4
8 10 10 10 10 9 10 10 9 8 8 8 8 9 8 8 9 9 9 8 6 4 2 0 0 1 1 2 8 12 8 3 3 4 4 3 4 6 4 1 -1 1 6 8 7 5 7 16 17 10 1 -0
9 10 11 11 10 9 9 10 11 12 12 11 11 11 10 10 10 10 11 10 8 7 6 3 1 2 3 1 1 7 12 10 5 2 4 5 4 4 6 6 1 -2 1 5 9 7 2 4 12 21 22 17
14 15 17 18 18 17 16 18 21 24 29 29 28 28 27 25 23 22 21 20 18 15 12 9 5 3 3 3 2 1 5 11 13 8 3 3 5 4 3 6 6 2 0 1 5 9 6 -2 -4 6 19 20
20 22 25 27 30 33 33 35 36 35 38 41 43 44 45 45 44 43 41 38 37 35 31 26 20 14 7 3 3 3 2 3 9 13 11 5 4 6 3 3 6 5 4 2 2 5 8 8 -3 -12 -10 0

ECMWFFLT2_500_avort_024.txt.gz
Vorticity
10 10 11 11 11 12 13 13 14 13 12 11 12 13 13 9 6 7 9 9 9 8 7 7 7 6 6 8 7 4 4 6 7 6 5 5 6 6 5 6 6 2 4 9 9 8 7 7 6 3 4 4
7 7 7 7 7 7 8 10 11 10 11 12 12 12 14 15 12 8 8 9 10 11 10 10 8 8 6 6 9 7 6 6 6 7 6 5 6 6 5 6 8 3 -0 6 9 9 8 7 8 6 5 5
5 7 7 7 7 6 6 6 7 7 6 7 8 8 8 11 14 13 11 9 10 11 11 12 11 11 10 7 8 9 8 7 7 7 6 6 6 7 6 4 8 7 -0 3 7 7 8 7 8 8 6 6
4 5 7 7 8 8 8 8 8 7 6 5 4 6 6 6 7 10 10 9 8 10 10 11 11 11 13 12 10 9 8 8 9 10 8 7 6 6 7 5 6 8 2 2 6 6 7 8 7 8 7 6
4 3 4 4 5 6 6 7 7 8 8 8 7 5 5 5 5 5 7 8 7 7 8 9 10 9 10 12 12 12 11 9 9 11 11 8 7 6 7 6 5 8 5 1 6 8 7 7 6 7 7 7
4 3 3 3 3 3 3 4 4 5 5 7 8 7 6 5 5 5 6 7 8 6 6 7 8 8 7 8 9 11 11 10 8 9 12 11 9 8 7 7 6 8 7 2 6 9 8 7 6 6 6 6
6 7 6 6 5 5 5 4 4 4 4 4 5 6 6 6 5 5 4 5 6 7 6 5 5 7 7 6 7 8 8 9 8 7 10 12 11 10 9 8 7 8 9 4 4 10 10 8 7 6 6 6
8 9 9 9 9 9 8 8 7 6 6 6 6 6 5 6 6 4 3 3 3 4 5 5 5 5 6 7 6 7 7 8 7 6 7 10 10 10 10 10 9 8 9 5 3 8 8 8 9 8 8 7
9 9 9 9 9 10 10 9 10 9 8 8 8 9 8 7 7 6 5 4 3 3 3 4 4 4 5 6 6 7 7 8 8 6 6 9 10 8 8 9 10 10 10 8 5 7 6 5 8 8 8 8
9 9 8 8 8 8 8 9 9 9 9 9 8 8 9 8 8 8 7 6 5 4 3 3 3 3 3 2 4 6 6 8 8 7 5 7 10 10 8 7 9 10 11 10 7 8 8 5 6 7 8 8
6 7 7 6 6 6 7 7 7 8 7 7 8 7 8 8 8 9 9 8 8 7 6 4 2 2 3 2 1 3 4 5 7 8 6 4 7 9 9 7 7 9 11 10 8 9 10 8 6 7 8 8
6 6 6 6 6 6 6 6 6 7 7 7 7 6 7 7 8 8 9 9 8 8 9 8 6 4 4 3 2 2 2 3 4 6 7 5 5 7 9 9 7 7 8 8 8 10 11 10 9 8 8 8
7 7 7 8 7 7 6 6 6 5 6 7 7 6 6 6 6 7 7 9 9 8 8 8 9 7 6 5 4 3 3 3 2 4 7 6 4 5 7 9 8 7 7 7 6 8 11 11 11 10 8 8
8 8 8 8 8 9 9 8 8 7 7 6 7 7 6 6 5 6 5 6 8 8 9 8 9 9 8 8 6 4 3 4 4 2 4 6 6 5 5 7 9 8 6 7 6 6 9 10 11 10 10 8
8 8 7 7 7 8 8 8 8 8 8 7 7 6 6 6 5 5 5 4 4 5 7 7 7 8 7 8 8 7 4 3 3 3 2 4 6 6 5 4 7 9 7 7 6 5 8 10 10 10 11 10
8 8 7 6 6 6 6 6 6 6 6 6 6 6 6 6 6 6 5 4 3 2 3 4 5 5 5 5 6 8 7 5 3 3 3 3 3 5 6 4 3 7 7 7 6 5 6 9 10 11 11 10
10 9 8 7 6 6 6 6 6 5 5 4 4 5 5 5 6 6 5 5 4 3 2 2 3 3 4 4 3 4 6 7 6 4 3 3 3 3 6 6 4 4 6 6 6 6 6 7 8 9 11 11
10 9 8 7 7 6 5 6 6 6 6 6 5 4 4 4 5 5 5 5 5 5 4 4 3 3 4 4 4 4 3 4 6 6 5 4 4 2 3 6 5 4 4 4 5 6 5 6 8 8 8 10
7 9 9 8 7 6 5 5 5 5 6 6 6 6 5 4 4 5 6 6 6 6 6 6 7 6 5 4 4 5 4 3 3 4 5 5 5 4 3 3 4 5 5 3 3 4 5 6 8 8 8 7
3 4 5 6 7 7 7 6 5 4 4 4 4 5 6 5 5 4 4 5 7 7 7 7 8 8 8 7 6 5 5 4 3 3 3 4 4 4 5 4 3 3 5 5 3 2 3 5 7 7 8 8
1 1 1 1 2 3 4 5 5 5 4 4 4 4 4 5 5 5 5 5 5 6 7 7 7 7 8 8 8 7 6 6 5 4 4 4 4 3 4 6 6 3 3 6 4 2 1 3 6 7 7 9
-1 -0 1 2 3 3 4 5 6 6 7 7 7 8 7 6 5 4 5 5 5 5 5 5 5 4 5 7 8 8 8 8 7 7 5 5 5 5 3 3 6 6 4 4 5 4 2 -0 2 6 8 8
0 2 4 6 7 8 8 8 9 9 10 10 9 10 9 9 9 7 6 5 5 5 5 5 4 3 3 3 4 6 7 7 8 8 8 6 5 7 6 3 3 4 6 5 4 4 4 2 1 3 7 8
9 9 8 9 9 9 9 7 7 7 7 8 8 8 9 9 10 10 9 7 6 5 6 6 7 7 5 4 2 2 3 4 5 6 8 7 5 5 7 7 5 3 4 5 5 4 3 3 3 2 3 6
9 8 8 8 7 7 7 7 6 5 5 5 5 6 7 9 9 10 11 10 9 7 6 4 5 6 7 7 6 4 2 1 1 2 4 7 7 5 5 7 7 5 4 4 5 6 4 2 2 2 3 4
11 10 9 9 8 7 7 7 7 7 6 5 5 4 4 5 6 8 9 9 10 10 9 7 4 3 3 5 6 7 7 4 2 0 -0 2 4 5 4 4 6 7 6 5 4 6 7 5 2 -0 1 2
10 9 10 10 10 10 8 8 8 8 9 7 6 5 3 4 4 4 5 6 8 8 10 10 8 6 4 2 2 4 6 8 7 5 3 0 0 3 4 3 3 5 7 6 5 5 6 5 5 2 -1 -0
7 6 6 7 8 9 9 8 7 7 9 8 7 6 4 5 6 5 4 4 6 7 7 9 10 10 8 6 4 2 2 5 7 9 9 7 3 0 1 3 3 3 4 6 6 6 5 4 6 6 1 1
12 10 8 7 7 7 7 9 9 8 8 8 6 5 3 5 7 7 6 5 5 7 6 6 7 9 10 10 9 6 3 2 2 4 7 10 11 7 2 0 2 2 2 4 5 5 7 6 6 6 4 4
19 18 14 12 11 9 7 8 8 9 10 10 9 8 7 7 8 7 7 6 5 6 6 6 6 6 8 9 9 10 8 5 2 0 0 3 7 11 10 5 1 1 2 3 4 3 4 6 6 7 7 6
24 24 21 18 19 19 17 15 12 9 10 11 10 10 12 12 13 11 10 9 8 8 7 7 7 6 7 7 6 8 9 9 8 5 2 -0 -1 3 8 12 8 4 2 2 3 3 4 4 5 7 7 7

ECMWFFLT2_500_avort_027.txt.gz
Vorticity
12 13 13 13 13 13 12 11 11 9 8 10 11 11 10 7 6 6 7 9 9 8 7 6 5 4 4 3 2 3 4 4 5 6 5 4 5 5 6 6 6 8 3 -0 3 7 7 5 5 6 4 3
8 10 9 10 11 11 12 12 12 12 10 10 10 12 12 11 9 8 7 8 10 10 9 8 7 6 5 5 4 3 4 4 4 4 5 4 5 5 5 5 5 6 6 3 3 6 8 7 5 5 5 4
6 7 7 6 7 7 8 8 8 10 10 9 9 10 12 13 12 11 10 8 9 10 10 10 9 9 8 7 6 6 5 5 6 6 5 5 4 5 5 4 4 5 4 3 4 6 8 9 6 5 5 3
5 5 6 5 6 6 6 7 7 7 7 8 8 9 10 11 10 10 12 10 9 9 9 10 10 10 9 9 9 8 7 6 6 7 7 7 5 5 6 5 4 4 4 1 2 6 8 10 8 6 7 4
3 3 4 4 5 6 6 7 7 7 8 8 8 8 9 9 9 8 9 10 10 10 10 10 11 11 11 10 9 9 9 9 7 6 6 8 7 4 6 7 6 5 5 1 -0 3 7 10 9 6 8 7
5 4 4 4 3 3 4 4 5 5 6 6 7 7 8 8 9 8 7 8 9 10 10 9 9 11 12 11 11 9 9 10 11 9 6 8 9 6 5 7 6 6 6 4 0 -0 3 9 10 7 7 9
9 8 7 7 5 4 3 3 3 3 4 4 4 5 6 6 7 8 7 7 7 8 10 9 7 7 9 10 12 12 10 8 9 10 9 9 12 10 7 7 7 6 6 6 4 1 2 6 9 8 6 7
9 9 9 9 9 8 7 6 6 5 5 5 4 4 4 5 5 5 5 5 5 6 8 9 9 7 7 7 8 11 11 10 9 10 9 9 11 12 10 9 9 8 8 7 6 4 3 5 7 7 6 5
9 9 8 9 9 10 10 10 9 8 8 7 7 6 6 6 5 5 5 5 4 4 4 5 7 8 8 7 6 7 8 9 10 10 9 7 8 10 9 9 9 9 9 8 8 7 4 6 9 8 8 5
9 9 8 8 8 8 9 10 10 10 10 9 9 8 8 7 7 7 7 7 6 5 4 3 3 5 6 7 6 6 6 7 8 8 9 8 7 9 9 8 9 9 9 8 7 8 5 5 10 11 10 8
9 9 9 8 8 8 8 8 9 9 9 10 9 9 9 9 8 8 8 8 8 8 7 6 4 3 4 5 6 6 6 5 6 6 7 8 7 8 9 8 9 9 10 9 7 7 6 3 6 11 12 10
9 8 8 8 7 7 7 7 7 7 7 8 8 8 8 8 8 8 8 8 8 8 8 8 8 6 5 6 6 6 5 5 5 6 6 7 6 6 8 8 8 8 8 10 9 8 8 5 3 8 13 12
8 8 8 8 7 6 6 6 6 5 5 5 5 6 6 7 7 7 7 7 7 7 7 7 8 7 7 7 7 7 7 6 5 5 5 6 6 6 6 7 8 8 6 6 8 7 8 8 4 2 9 13
7 7 8 8 8 8 8 7 6 6 5 5 5 4 4 5 5 6 6 6 6 6 6 6 6 6 6 6 7 8 8 8 7 7 5 4 5 6 6 5 5 6 6 5 5 5 5 7 7 2 3 10
8 8 8 8 9 10 11 10 10 9 9 8 8 7 6 5 4 4 5 5 6 5 5 5 5 5 5 5 4 5 6 7 8 8 8 7 6 5 5 4 4 4 5 5 4 4 4 4 6 4 2 5
9 8 7 7 6 7 8 9 10 10 9 9 8 8 8 8 7 5 5 5 5 5 5 5 5 5 4 5 4 4 4 5 5 5 6 8 8 7 6 5 6 6 6 6 6 6 6 5 4 4 3 3
8 8 7 7 5 4 3 3 4 5 5 5 5 5 5 5 6 6 6 5 5 4 5 5 5 5 5 4 4 4 4 4 5 5 4 5 6 7 8 8 6 6 6 6 7 6 6 6 5 4 4 4
7 7 7 7 6 5 4 2 1 0 1 2 2 3 3 3 3 4 4 4 5 4 4 4 4 4 5 5 4 4 3 4 5 6 6 5 4 3 5 8 9 8 7 6 6 6 6 6 5 5 5 5
8 7 6 7 7 7 7 6 5 4 4 4 4 5 4 4 3 3 3 3 4 4 4 5 5 4 4 4 4 4 3 3 3 3 5 6 6 5 3 3 5 8 9 8 7 6 6 6 5 4 4 4
10 9 8 7 7 8 8 8 9 8 8 7 6 6 5 5 5 5 5 4 3 3 4 4 5 5 5 5 5 5 4 4 3 3 3 4 4 6 6 3 2 4 6 7 8 8 7 8 8 6 4 4
17 13 10 8 8 8 8 8 8 7 8 8 7 7 6 5 5 5 5 5 5 4 4 4 4 5 5 6 5 5 5 4 4 4 3 3 3 3 5 6 4 3 3 3 5 7 7 7 8 8 7 6
17 17 15 12 8 7 8 8 9 9 8 7 7 7 7 7 6 5 5 5 6 6 6 6 5 6 5 5 6 6 6 6 5 5 5 4 4 4 3 5 6 5 4 3 2 3 5 6 6 6 7 7
4 8 12 13 12 8 6 6 7 10 11 10 9 8 7 7 7 6 6 6 6 6 6 6 6 6 6 6 6 6 6 7 7 7 6 5 5 5 4 4 4 6 6 5 4 2 2 3 4 5 4 4
2 2 3 5 7 8 7 4 3 3 6 10 11 11 10 9 10 9 8 8 7 7 6 5 6 6 6 6 6 6 6 6 7 7 8 7 6 5 5 4 4 4 5 6 6 6 4 3 3 3 3 3
13 11 8 6 4 5 5 5 5 2 -0 2 5 7 9 8 8 8 9 9 9 9 8 7 6 5 4 5 5 6 6 5 5 5 6 7 7 7 6 5 4 3 4 4 5 6 6 5 4 4 2 2
14 15 16 16 13 10 7 5 5 5 2 0 1 2 4 5 4 4 3 4 6 7 8 9 9 8 5 4 3 4 5 5 5 5 5 5 5 7 7 7 7 5 4 4 4 4 5 6 5 5 4 2
9 11 14 18 19 19 16 12 10 9 7 4 3 2 2 4 4 5 2 1 3 3 4 5 7 8 8 6 4 3 3 2 4 5 5 5 4 4 5 5 7 8 7 6 4 4 4 5 5 5 6 5
8 6 5 8 11 14 15 15 14 13 13 11 10 8 7 7 6 5 5 4 6 6 4 4 4 5 6 7 7 6 5 3 2 3 4 5 5 5 4 4 4 5 6 7 6 5 4 5 6 6 5 5
14 11 7 5 5 7 7 7 8 8 10 9 10 11 10 11 10 8 7 7 9 9 8 7 6 6 6 7 8 8 8 7 5 5 4 5 5 5 5 4 4 3 3 5 6 6 6 5 5 6 6 5
13 15 15 13 11 11 9 6 4 3 5 5 5 8 10 10 11 10 8 7 9 10 10 10 9 9 9 8 9 9 9 9 9 8 7 6 5 6 6 6 6 5 4 3 3 4 5 5 5 6 6 5
4 7 8 11 12 13 13 12 10 8 8 6 2 2 7 11 12 12 11 7 7 8 9 10 10 9 9 9 8 8 8 9 9 9 9 8 7 6 5 5 6 6 7 6 4 3 4 4 4 5 6 6

ECMWFFLT2_500_avort_030.txt.gz
Vorticity
12 12 12 12 11 12 12 11 11 10 9 8 8 8 8 9 9 9 9 7 4 4 4 4 4 3 3 3 3 5 6 7 7 5 4 2 3 4 3 5 5 4 6 3 0 4 7 5 5 4 3 4
11 12 12 13 12 12 13 13 13 14 13 12 11 10 10 9 9 9 10 10 8 7 6 5 5 5 5 4 4 3 4 5 6 7 6 4 2 2 3 3 5 4 4 5 3 2 6 6 5 5 2 1
8 9 10 10 11 11 11 11 11 12 13 14 14 13 12 12 13 11 9 10 11 9 7 6 6 6 6 7 7 6 5 3 3 5 6 6 4 2 2 2 3 3 1 4 4 2 5 7 7 6 4 1
5 6 7 8 8 9 9 9 9 9 10 10 11 11 11 12 14 17 15 11 10 11 10 8 7 6 7 8 8 8 8 7 5 5 6 6 6 5 4 2 2 3 1 1 3 3 3 7 8 7 6 5
3 4 5 7 7 7 7 7 7 7 7 6 7 7 7 6 6 12 16 14 10 11 13 12 10 8 9 10 10 9 9 10 8 7 7 7 7 6 6 5 3 3 3 1 1 2 2 4 7 8 6 5
4 3 3 5 6 7 7 7 7 6 6 5 5 5 5 4 2 2 5 10 11 10 12 13 12 10 10 10 10 11 10 9 9 9 8 8 8 7 8 8 6 5 4 2 -0 1 1 2 6 8 8 5
6 5 4 4 5 6 7 7 7 7 7 6 6 6 6 5 5 3 2 5 8 7 9 11 11 10 10 10 9 10 11 11 10 11 10 9 9 7 7 9 10 9 8 6 2 1 1 1 4 7 8 7
8 8 7 6 7 8 8 8 9 8 8 7 7 6 6 6 6 6 5 5 6 6 7 8 9 9 8 9 9 9 9 11 11 11 11 11 11 10 8 7 8 10 11 11 8 4 2 1 2 5 7 7
9 9 8 8 7 7 8 9 9 10 10 9 9 8 7 6 6 6 5 5 5 5 5 6 7 8 8 8 8 8 7 8 9 11 11 11 11 12 11 8 7 8 10 11 11 10 7 4 3 5 8 8
8 8 8 8 7 6 6 7 8 9 9 10 10 9 9 8 8 7 5 5 4 5 5 5 4 5 6 6 7 7 6 6 7 8 9 10 10 10 11 11 8 7 8 10 11 12 11 8 6 4 6 9
7 7 8 8 8 7 6 5 6 6 7 8 9 9 9 10 9 8 7 6 5 5 5 5 4 4 4 5 6 6 5 5 6 6 7 8 10 9 9 11 10 7 7 8 9 11 12 11 9 7 6 8
7 7 7 7 8 8 7 6 5 5 5 5 6 7 8 9 9 9 9 8 7 6 5 5 5 4 4 4 4 5 4 4 5 5 5 6 8 9 8 9 10 9 8 9 8 8 10 11 10 9 8 8
8 8 7 8 8 8 8 7 6 5 5 5 5 5 7 7 8 9 9 9 8 8 7 6 6 6 6 5 4 4 4 4 4 4 3 4 5 7 8 8 8 8 7 8 9 7 7 9 9 9 9 9
7 7 7 7 7 8 8 8 8 8 7 6 5 4 5 5 6 7 8 8 8 8 8 7 7 7 7 6 6 5 5 4 5 5 4 3 2 4 6 7 8 8 7 6 9 9 7 8 8 7 7 7
8 7 7 7 6 6 7 7 7 8 8 7 6 5 4 4 4 5 5 6 6 7 7 7 7 7 7 7 7 6 6 5 5 5 5 4 4 4 4 5 6 7 8 6 7 8 8 8 8 8 8 6
8 9 9 8 8 7 6 6 7 7 7 7 7 6 5 4 4 4 4 4 5 5 5 6 6 6 6 7 7 7 7 7 6 5 5 5 5 6 5 5 5 5 6 7 7 7 7 8 7 7 8 8
10 11 11 11 10 10 9 7 6 6 6 7 7 7 6 5 5 4 4 4 4 4 4 5 5 5 5 5 6 7 7 7 7 8 7 6 6 5 5 5 5 5 4 5 6 6 6 7 8 7 7 8
18 18 17 15 13 11 11 10 9 7 7 7 7 7 6 5 5 5 4 4 3 4 3 4 3 3 3 3 4 4 5 6 6 7 8 8 7 6 6 6 5 5 5 5 4 5 5 6 7 8 7 6
17 18 20 19 18 15 13 12 11 10 9 8 8 8 8 7 7 6 5 4 4 4 4 4 4 3 3 2 2 2 3 4 4 5 6 7 7 7 7 6 6 5 5 5 5 4 4 5 6 7 7 6
9 8 11 15 17 17 17 15 14 13 12 11 10 9 10 9 9 8 7 7 5 5 4 5 5 4 5 3 2 2 2 2 2 2 3 4 5 6 7 7 7 6 6 5 6 5 4 5 5 5 6 7
10 8 7 9 12 14 15 16 15 15 13 12 11 10 10 10 9 9 9 9 8 8 6 6 6 6 6 6 5 4 3 2 2 2 2 2 3 3 4 5 6 7 7 6 6 6 6 5 5 4 5 5
11 10 9 8 9 12 13 13 14 14 13 12 11 10 10 9 9 9 8 8 8 9 8 7 7 7 7 7 7 6 5 4 3 3 2 2 2 2 3 3 4 5 6 7 6 5 5 5 6 5 5 4
9 9 9 7 5 7 10 11 12 13 13 13 12 10 9 9 8 9 9 8 7 7 7 8 7 7 7 6 7 7 7 7 5 5 4 3 3 3 3 3 3 3 3 5 6 6 5 5 5 6 5 5
2 6 8 8 6 4 5 6 6 9 10 12 12 12 11 9 8 8 8 8 8 7 6 7 7 6 7 6 6 6 7 8 7 7 6 5 4 4 4 4 4 3 3 3 4 5 6 6 5 5 5 5
0 4 3 3 6 7 8 6 4 3 4 7 9 11 12 11 10 8 8 7 6 7 7 8 8 7 6 6 6 6 6 6 7 7 7 6 6 5 4 4 5 5 5 4 4 4 4 6 6 5 4 4
6 10 7 2 2 4 7 8 8 5 2 3 4 6 8 10 11 11 9 8 7 6 6 7 8 9 8 6 5 4 5 6 6 6 6 6 6 6 5 4 4 4 5 6 5 5 4 4 6 6 5 4
5 7 8 8 6 4 4 4 5 6 5 5 5 4 3 3 7 10 11 10 9 7 6 5 6 7 8 8 7 6 5 4 4 5 5 6 6 6 6 5 5 4 4 5 5 6 6 5 5 6 6 5
1 -0 1 4 6 4 5 5 3 3 3 2 3 4 4 3 2 4 8 10 10 10 8 7 6 6 7 6 7 7 7 6 4 4 4 5 5 5 5 5 5 5 4 4 5 5 5 5 5 6 6 6
6 5 4 3 2 -1 -1 2 4 7 9 5 2 1 2 5 5 2 3 5 8 9 9 8 6 6 7 7 7 6 6 6 6 6 5 4 5 4 5 4 4 5 5 5 5 5 5 5 5 5 5 5
9 11 11 10 9 5 1 -2 -4 -1 6 9 9 9 7 5 5 5 3 3 6 9 8 7 5 4 5 6 7 7 6 6 6 6 6 5 4 4 4 4 4 4 4 4 4 5 5 5 4 4 5 5
19 16 14 13 12 11 9 7 3 -1 -2 1 5 11 14 13 11 9 7 3 3 8 11 9 7 5 5 4 4 5 6 6 7 7 7 6 6 5 4 4 4 4 3 4 4 4 4 5 5 5 5 5

ECMWFFLT2_500_avort_033.txt.gz
Vorticity
9 9 9 8 8 7 8 9 9 8 8 6 4 5 8 12 12 11 12 12 12 10 9 9 7 6 5 5 6 7 7 7 5 4 3 3 4 6 4 6 7 8 11 8 5 4 5 5 3 2 3 5
9 10 10 10 10 10 9 9 9 8 8 8 6 3 3 7 11 12 11 13 13 14 16 16 12 9 7 5 5 5 7 7 6 6 5 3 3 5 5 4 5 6 8 9 8 5 4 6 5 3 3 4
7 8 8 9 9 10 11 11 11 10 10 10 9 8 5 2 6 9 10 11 11 12 14 15 15 13 10 8 6 5 6 7 7 7 5 4 4 4 4 4 4 5 6 6 7 6 5 5 6 5 4 4
6 7 8 7 7 7 8 10 11 11 11 11 11 11 11 7 4 5 7 8 9 9 4 3 8 12 11 9 9 7 7 7 6 7 6 4 5 5 4 4 4 4 5 5 3 4 5 6 6 5 4 4
7 7 8 8 8 8 7 7 8 9 9 9 10 11 12 12 9 7 6 6 8 9 7 6 7 11 13 12 10 8 7 8 7 6 7 5 5 6 5 4 5 5 6 7 4 2 4 5 6 6 4 4
7 7 7 7 8 8 8 7 6 6 7 7 7 7 8 10 11 9 8 8 7 6 9 11 10 11 15 17 17 16 11 8 7 8 8 7 6 7 7 5 4 4 5 7 6 4 3 2 4 7 5 4
6 6 6 7 7 7 8 8 7 6 6 6 5 5 5 6 8 9 8 8 8 7 6 7 8 8 11 14 17 22 21 14 7 7 10 10 8 8 8 8 7 5 4 5 5 5 5 3 2 4 5 5
6 6 5 5 6 7 7 8 9 8 8 7 6 5 4 4 4 6 7 7 7 7 6 6 6 5 7 8 7 12 20 21 13 7 9 12 11 11 10 9 10 9 7 6 5 4 5 5 3 3 4 4
6 6 6 6 5 6 7 8 8 9 9 8 8 7 6 5 4 4 4 6 5 5 5 5 6 4 4 6 3 1 4 9 13 9 6 10 11 12 13 11 11 11 9 8 8 7 5 4 5 4 3 5
7 7 6 7 6 5 5 6 8 9 9 9 9 9 9 8 7 6 4 4 4 4 4 3 4 5 4 5 4 5 3 3 9 11 5 6 8 9 12 12 11 11 11 9 8 9 7 6 6 5 4 4
7 6 6 6 6 6 5 5 5 6 8 8 9 9 10 10 10 9 7 5 4 4 4 3 2 3 6 5 2 3 4 2 5 9 6 4 6 7 8 9 11 10 11 10 8 9 10 8 7 7 6 5
7 6 6 7 6 6 6 6 5 5 5 6 7 8 9 10 11 11 10 9 7 6 5 5 3 2 5 4 1 -1 -2 -2 1 6 8 5 3 5 6 6 8 9 11 12 11 9 9 9 10 9 7 6
11 8 7 7 7 7 6 6 6 6 5 5 5 5 5 7 9 10 11 11 11 10 7 6 5 3 4 3 4 4 1 -0 1 3 6 6 4 3 4 4 6 8 8 11 13 12 9 8 9 10 10 8
15 13 10 8 7 7 8 7 7 6 6 7 6 5 4 4 6 7 8 9 9 11 11 9 7 5 5 4 4 5 4 3 2 1 1 5 8 6 3 3 4 8 8 7 9 11 11 9 8 9 11 11
13 14 14 12 9 7 6 7 8 8 7 7 7 7 6 5 5 5 5 7 7 8 10 10 9 7 6 5 5 4 4 4 3 2 0 1 5 7 6 3 1 3 7 8 8 9 9 10 10 8 9 11
9 11 13 13 13 10 7 6 6 7 7 7 8 7 7 7 7 7 6 5 5 6 7 8 9 9 8 6 6 6 5 5 4 4 3 2 2 4 6 6 3 -0 1 5 7 8 9 8 9 9 7 9
11 11 12 12 13 13 11 8 6 6 6 6 7 7 6 7 7 8 8 7 6 5 5 6 6 7 8 8 7 6 6 5 5 5 5 4 3 3 4 6 6 3 1 1 3 5 7 8 8 8 7 7
18 17 16 15 14 14 14 12 10 7 6 6 7 7 6 6 6 7 8 8 8 7 7 6 6 6 6 7 7 8 7 6 6 6 6 6 4 4 5 5 6 6 3 1 2 2 3 6 7 7 7 7
17 18 19 20 19 19 17 16 15 13 11 9 7 7 7 7 6 6 7 8 8 7 7 7 7 6 6 6 6 7 7 7 6 6 6 6 6 5 5 5 6 7 5 3 2 2 2 2 4 6 6 6
12 12 14 16 19 22 22 22 22 21 20 18 15 11 9 8 7 6 6 7 7 7 7 7 7 7 7 6 6 6 6 7 7 7 6 6 7 6 6 5 6 7 7 7 5 3 3 2 3 4 6 6
12 11 9 9 10 12 17 21 22 23 23 23 22 20 17 12 9 8 7 7 7 7 7 7 7 8 8 7 6 6 6 6 6 6 6 6 6 7 6 6 6 7 7 7 8 7 4 3 4 4 4 5
11 11 9 8 7 6 7 10 15 17 17 16 17 19 21 20 17 13 10 8 8 8 8 8 7 7 7 7 7 6 6 6 5 5 5 5 5 6 6 6 6 7 7 7 8 8 7 5 4 5 4 4
2 5 6 4 4 5 2 1 10 15 12 12 13 14 16 17 19 18 15 13 10 10 9 8 9 8 8 7 7 6 6 6 6 5 5 4 4 4 5 5 5 6 6 7 7 8 8 7 5 5 5 5
2 2 5 5 4 5 0 -4 6 15 12 11 11 11 11 11 13 14 15 16 15 13 11 10 9 9 8 8 7 6 6 6 6 6 5 5 4 4 4 4 4 4 5 5 6 7 7 7 6 5 5 5
10 7 8 8 7 8 5 -3 -1 5 10 13 11 8 7 7 10 11 11 12 13 14 13 12 10 10 9 9 9 8 6 6 5 5 5 5 5 4 3 3 3 3 4 4 4 5 6 7 6 6 6 5
11 7 6 7 7 7 7 4 3 -0 -1 6 10 9 6 4 7 10 11 10 9 10 12 12 11 10 9 9 9 9 8 7 6 5 5 5 5 5 4 3 3 3 3 4 3 3 4 4 5 5 6 6
25 15 7 3 4 7 6 4 5 4 -1 -2 1 5 6 4 3 6 10 11 9 8 9 11 11 10 9 7 7 9 9 8 7 7 5 6 5 5 5 4 3 3 3 3 3 3 3 3 4 4 4 6
45 41 28 14 4 3 6 6 6 6 3 -1 -1 2 3 3 1 1 4 7 9 9 7 8 10 11 10 8 7 7 8 7 7 7 6 6 6 6 5 5 5 4 4 4 3 3 3 3 4 4 3 4
49 55 56 48 32 14 4 3 5 7 7 3 0 1 0 1 1 1 1 1 4 7 6 6 7 10 11 10 9 7 7 6 6 6 6 5 5 6 5 5 5 5 5 5 5 4 4 4 5 5 4 3
31 40 51 60 64 55 36 17 6 2 5 7 5 5 2 0 -1 -1 1 1 2 5 6 4 3 6 9 10 10 9 8 8 6 5 6 6 4 4 5 5 5 5 5 5 6 6 5 5 4 5 6 6
11 18 26 36 50 64 69 62 45 25 12 5 3 4 5 6 3 0 -1 -1 -1 1 4 7 5 2 4 7 10 10 9 9 9 7 6 6 5 4 3 4 4 4 4 4 5 5 5 6 5 5 5 6

ECMWFFLT2_500_avort_036.txt.gz
Vorticity
8 7 7 6 6 9 9 8 8 8 8 8 8 8 10 10 7 2 3 9 11 10 7 3 3 5 5 3 3 5 6 7 7 3 4 8 7 5 5 6 7 7 11 11 3 -1 2 6 7 5 5 6
7 6 6 6 6 7 9 9 9 9 7 8 8 7 7 10 12 7 1 5 9 9 10 9 7 8 11 11 8 5 3 4 7 5 1 3 7 8 7 5 5 6 7 10 10 5 -0 1 6 7 6 6
8 8 7 7 6 5 6 8 8 9 9 9 9 8 6 6 10 10 4 3 7 8 8 10 10 10 14 14 9 6 6 6 7 8 3 0 3 6 8 9 6 5 5 5 8 10 5 -1 1 5 6 6
8 9 8 7 8 7 6 6 7 8 8 8 9 9 8 6 6 9 8 3 4 5 5 8 11 12 12 12 13 9 3 4 5 4 4 2 2 3 4 8 9 8 6 4 4 7 9 4 1 2 4 4
7 8 8 8 8 8 7 7 7 7 8 7 8 8 9 9 8 7 8 7 5 5 4 4 8 13 13 13 22 28 27 28 23 12 6 3 2 3 3 4 6 9 9 7 6 4 6 7 4 3 3 3
10 9 8 8 8 8 8 7 7 6 7 8 8 8 8 8 9 9 9 9 8 7 7 6 6 8 11 10 8 16 31 35 31 26 20 14 8 4 3 4 3 4 7 8 8 7 4 5 6 5 4 4
11 11 11 10 9 9 9 8 8 7 6 7 7 8 9 8 8 8 8 9 10 9 8 8 8 8 11 13 5 -3 -2 -1 4 13 15 15 14 10 6 5 4 3 4 5 7 8 6 4 5 6 4 4
10 10 10 11 11 10 10 10 10 10 9 8 7 7 8 9 9 8 7 7 7 9 9 8 8 8 9 12 12 5 -4 -8 -4 -0 3 9 10 10 10 8 7 4 4 5 5 6 7 5 5 6 5 4
9 8 8 9 10 10 9 9 9 10 10 10 10 8 7 7 8 8 8 8 6 6 8 8 6 6 7 9 11 11 6 2 2 1 4 13 15 14 15 12 10 7 4 5 6 5 5 5 5 5 6 6
10 8 7 7 8 9 9 9 9 9 9 9 9 9 9 8 7 7 7 8 8 7 6 7 7 4 4 6 8 11 11 7 6 4 2 7 15 17 18 17 14 11 7 5 8 9 6 5 4 4 5 5
12 11 9 7 5 5 7 8 9 9 9 9 9 9 9 9 9 8 7 7 7 7 6 5 6 6 3 3 4 7 10 9 8 8 4 4 8 10 11 15 17 15 12 6 6 11 11 7 3 4 5 4
12 12 12 11 9 6 4 4 6 7 8 9 9 9 9 9 10 10 8 7 7 7 7 6 5 5 4 3 2 2 5 8 9 9 5 3 5 9 10 9 13 16 17 12 7 9 13 12 6 4 6 5
11 11 12 13 13 11 8 5 5 5 6 8 8 9 8 8 10 10 11 9 8 8 7 7 6 5 5 4 3 2 1 2 6 7 6 3 1 6 5 5 14 15 13 13 10 10 12 13 10 5 6 8
7 8 10 11 12 13 13 10 8 6 5 5 6 8 8 7 8 9 9 10 10 10 9 8 8 7 6 5 5 4 3 1 1 3 5 6 5 4 -1 1 8 4 4 11 11 11 12 13 14 8 5 7
6 6 6 8 10 11 13 13 11 10 7 6 5 7 7 6 7 8 8 8 9 10 10 10 9 9 7 7 6 5 5 4 3 1 1 2 5 7 4 6 5 -4 -2 4 5 6 7 10 15 14 10 6
12 10 8 8 8 9 10 12 13 12 11 9 6 6 6 6 7 8 8 7 7 8 9 10 10 10 9 8 7 7 6 5 5 4 3 1 0 4 10 16 19 17 15 11 6 4 4 6 9 12 13 11
13 12 11 10 9 9 9 9 11 12 12 12 10 8 6 5 5 7 9 8 8 6 6 7 8 10 10 10 9 8 7 6 6 6 5 4 3 3 2 -0 3 12 22 27 20 7 3 3 3 7 10 11
10 10 10 10 9 9 9 9 9 10 11 11 11 11 9 8 5 3 6 8 9 8 7 7 6 7 8 10 10 9 9 7 7 8 6 5 5 6 1 -11 -16 -13 -7 5 10 5 4 2 -1 3 6 7
8 7 7 8 9 8 7 7 8 9 11 11 11 10 10 10 9 5 3 4 6 8 8 8 7 6 6 8 9 9 9 8 8 8 8 7 6 8 9 2 -4 -10 -18 -18 -11 -4 3 7 5 4 4 5
12 10 8 7 8 10 11 9 7 7 8 10 12 11 10 9 10 9 6 5 4 4 6 8 8 7 6 7 8 8 8 7 7 7 8 9 8 6 6 6 7 5 0 1 6 3 1 2 3 4 4 5
14 12 11 10 8 9 12 13 13 11 8 8 9 12 13 11 9 8 8 8 6 4 4 6 7 7 7 7 6 7 8 7 6 6 6 7 9 8 4 4 5 5 2 4 9 11 9 7 3 2 3 3
19 15 13 11 9 7 7 9 12 13 12 11 10 11 13 13 12 10 8 8 8 7 5 5 6 6 7 7 7 6 7 8 7 6 5 4 6 9 8 6 5 4 2 -3 -5 -3 2 5 3 2 3 3
28 23 19 15 12 9 7 5 6 9 11 13 13 11 10 13 15 15 12 9 7 7 7 6 5 5 6 7 7 6 6 7 8 7 6 5 4 5 7 8 7 7 7 5 2 -1 -3 -1 2 4 4 4
42 37 31 25 19 15 11 8 7 7 7 8 11 12 11 11 13 15 16 14 11 8 7 7 6 5 5 7 7 7 6 6 6 7 7 6 5 5 5 5 6 7 7 6 5 5 3 2 3 5 5 5
41 46 46 42 36 29 21 12 9 8 7 6 7 9 11 11 11 12 14 16 16 14 11 9 8 7 6 6 7 7 7 6 5 6 6 7 6 5 5 5 5 5 6 7 6 6 6 5 4 4 5 6
18 27 36 44 49 51 46 35 22 12 8 7 6 7 8 9 10 11 12 13 15 17 16 13 11 10 9 7 7 7 7 7 7 6 5 6 7 6 5 5 5 5 5 5 6 6 6 6 6 6 5 5
7 8 13 20 29 40 52 57 53 41 26 13 6 5 6 8 9 10 11 12 13 15 16 16 14 11 10 10 9 8 7 6 7 7 6 5 5 5 5 5 5 6 7 6 5 5 5 5 6 7 7 5
10 8 7 7 8 12 21 34 49 59 58 47 30 13 4 3 7 10 10 11 12 14 14 14 14 13 12 12 12 11 9 7 7 8 8 8 7 6 5 5 4 5 7 7 6 5 5 5 5 5 6 7
15 13 11 9 7 6 6 8 16 30 46 60 63 52 32 14 5 5 9 11 11 13 14 13 12 13 13 12 12 12 12 10 8 8 8 8 8 7 6 5 4 4 5 7 7 6 6 5 5 5 5 5
19 17 17 15 11 9 8 8 7 9 14 27 44 59 62 51 31 14 7 8 10 11 12 12 11 11 11 11 10 10 11 12 10 9 8 9 9 8 8 7 6 4 3 5 6 7 7 5 5 5 5 4
19 17 16 15 15 16 17 16 12 10 9 9 13 26 44 59 61 50 31 15 10 10 10 11 10 10 9 9 9 8 8 10 11 11 10 9 9 9 9 8 7 6 5 5 6 5 6 6 6 5 5 4

ECMWFFLT2_500_avort_039.txt.gz
Vorticity
9 11 11 10 10 11 9 10 14 12 5 0 -0 -2 -2 1 4 5 4 -0 -6 -4 -1 -2 -4 -5 4 7 -1 -1 3 3 4 5 -1 -6 0 8 11 11 5 3 6 6 4 2 3 8 8 5 4 4
12 11 11 12 10 10 10 8 10 14 15 10 4 4 4 2 2 3 6 6 1 -1 -1 -2 -1 -6 -6 1 2 2 6 6 0 1 7 7 4 -1 0 9 12 7 4 6 6 3 1 4 9 9 6 4
14 14 12 12 12 12 12 12 10 10 14 16 12 7 8 8 7 6 7 8 8 7 3 -0 0 1 2 3 2 0 5 10 6 1 1 5 11 8 -0 -3 5 12 10 6 6 7 3 -0 4 8 9 6
13 14 14 12 12 12 12 13 14 13 12 12 13 11 9 9 8 7 6 6 9 11 9 6 4 4 5 7 7 4 4 8 7 7 5 2 5 9 9 4 -1 4 11 11 6 5 6 2 0 3 8 10
13 13 12 12 12 11 11 10 10 10 11 11 10 9 8 8 9 8 6 5 5 8 9 9 8 7 6 5 9 9 7 8 7 6 6 6 9 6 6 10 7 2 4 11 13 9 6 4 2 1 3 7
14 14 12 10 10 11 11 10 9 8 8 8 9 10 8 6 7 8 7 6 5 6 8 9 9 8 8 7 8 11 8 7 7 8 6 2 7 10 6 7 10 9 4 4 10 14 13 8 3 -0 -0 2
11 14 14 11 9 10 11 11 10 9 9 8 8 10 9 7 6 7 7 7 7 7 6 7 9 9 10 9 7 9 11 9 8 9 12 8 4 5 6 5 5 9 10 5 3 7 14 14 10 4 -1 -3
9 11 12 13 10 9 10 11 12 11 11 10 9 9 10 10 8 8 8 7 6 7 7 5 7 8 9 11 9 8 9 11 11 9 11 12 8 7 6 3 2 3 5 8 5 1 5 10 11 10 5 0
9 9 10 10 10 10 9 10 11 11 13 12 11 9 7 10 11 11 9 8 7 6 6 5 5 7 8 9 11 11 9 9 10 11 10 9 11 18 20 16 17 15 8 8 9 3 1 6 9 10 9 6
9 9 10 10 9 7 8 10 10 10 11 12 13 11 8 7 10 11 11 10 9 8 7 6 5 5 7 8 9 11 11 10 9 10 11 12 15 18 19 21 24 26 20 15 17 14 5 3 5 7 9 9
10 8 8 9 10 9 7 8 10 10 8 9 10 11 10 8 9 10 11 11 10 10 9 9 8 5 4 6 7 8 10 11 10 9 10 14 15 7 3 7 6 9 17 14 12 18 19 15 9 4 4 5
15 12 9 7 7 8 8 7 8 9 8 8 9 9 9 9 10 9 9 11 11 11 10 9 11 9 6 5 5 6 7 9 10 11 10 10 9 3 2 3 -4 -5 6 14 11 5 8 13 16 13 7 3
10 14 14 11 8 6 6 6 6 8 8 7 7 8 8 8 9 9 8 9 10 11 11 10 10 11 9 7 6 6 6 7 9 12 12 10 7 5 7 6 3 -2 -6 7 18 11 3 1 3 9 11 8
6 8 12 13 13 10 7 6 5 7 9 10 8 6 6 6 7 9 8 7 8 8 9 10 9 10 10 9 7 6 6 6 6 8 10 12 11 9 10 7 5 4 -5 -3 9 11 11 10 3 1 3 6
11 6 7 10 12 12 12 11 8 5 7 9 12 11 8 6 4 5 7 8 7 6 7 9 9 9 8 10 9 6 5 6 6 6 5 8 11 10 11 11 6 5 0 -6 -2 6 13 21 22 16 8 5
23 14 8 7 8 11 12 14 13 10 8 7 8 12 13 12 9 5 4 6 7 7 7 7 8 8 8 8 9 9 6 5 5 5 5 5 7 8 9 11 8 6 2 -7 -6 1 6 14 21 27 25 16
32 27 18 10 7 8 10 13 15 15 13 11 9 8 10 12 14 11 7 5 5 6 7 7 7 7 8 8 8 9 8 6 5 4 5 5 5 6 7 10 9 7 6 1 -3 -4 -5 -1 4 13 24 25
34 34 29 21 13 7 6 8 11 14 14 15 15 13 11 9 10 12 12 10 7 6 6 6 7 6 7 8 8 9 8 7 6 5 4 4 5 5 5 7 10 10 7 4 2 2 1 1 2 -1 4 17
31 36 36 32 25 16 9 5 5 8 10 10 13 15 16 15 13 11 10 10 10 10 8 6 6 7 6 6 7 8 9 8 7 7 6 5 4 4 5 4 6 9 10 9 6 7 5 1 4 2 -2 6
18 26 35 39 39 32 22 14 7 5 7 7 7 8 11 15 18 17 13 10 9 9 10 9 8 7 6 6 6 6 8 8 8 8 8 8 5 3 4 5 4 4 6 10 9 10 6 -5 -2 5 5 4
19 16 20 29 38 42 38 30 20 11 7 7 7 5 5 7 11 16 18 16 13 11 9 9 9 9 9 7 6 5 6 7 7 8 8 8 9 6 4 3 4 5 4 6 8 9 6 -3 -8 -4 4 2
27 23 18 15 21 31 40 43 38 28 16 10 8 8 7 5 4 8 12 15 16 16 14 11 9 8 9 10 9 7 5 5 6 7 7 7 9 10 8 5 4 5 4 5 7 8 7 3 -4 -8 -3 -1
15 21 24 20 15 16 24 35 43 45 36 23 13 9 9 9 6 4 6 10 12 14 15 15 14 11 9 9 10 11 9 6 5 5 6 6 6 8 9 8 7 6 5 4 6 8 8 7 4 -0 -2 1
8 11 16 21 20 16 14 18 28 40 48 44 32 19 12 10 10 7 4 6 8 10 12 13 14 15 13 12 10 10 11 10 8 6 5 5 5 6 8 8 7 8 8 6 4 6 9 9 6 3 1 3
13 10 10 13 17 19 18 15 14 21 34 45 49 42 29 18 12 10 8 6 6 7 10 11 12 12 13 14 13 11 10 10 11 9 7 6 5 4 5 7 7 7 8 8 6 4 8 10 7 4 1 4
21 16 13 10 11 17 21 20 16 13 15 24 37 47 49 42 29 18 12 9 8 7 6 7 9 11 12 11 12 14 13 11 10 11 11 9 8 6 5 5 5 6 6 8 9 6 5 7 10 10 1 2
28 24 20 16 11 11 16 20 19 15 12 11 15 25 38 48 50 43 30 20 12 9 7 6 6 8 11 12 11 11 14 15 12 10 11 11 10 9 7 6 5 6 6 5 6 7 7 5 9 15 4 -3
32 29 27 23 17 12 12 16 17 18 16 13 10 10 15 25 37 47 50 44 33 21 13 9 7 5 7 10 12 11 10 13 15 14 11 11 11 11 10 9 6 6 7 6 5 4 7 7 6 13 10 -4
31 30 28 27 23 17 14 15 16 17 17 17 14 11 10 10 14 22 34 45 50 46 36 23 13 7 5 6 9 12 10 8 11 15 15 12 11 12 12 11 9 7 7 7 6 4 4 5 6 9 13 9
29 28 27 27 26 20 15 16 18 17 15 16 17 16 14 12 10 10 12 21 32 44 51 49 38 24 12 6 5 8 11 10 9 10 14 15 14 12 12 12 11 9 9 7 7 8 4 3 4 4 9 14
26 25 26 26 26 22 15 15 19 20 16 13 14 17 19 18 15 13 11 10 12 18 30 43 51 49 37 22 10 6 6 9 11 10 10 12 13 14 13 13 12 11 11 9 7 8 8 5 4 3 4 8

ECMWFFLT2_500_avort_042.txt.gz
Vorticity
9 9 7 9 11 8 4 1 3 6 5 5 9 10 5 1 0 8 21 18 11 17 21 19 19 19 13 2 -0 11 17 16 12 7 9 8 -1 -4 6 16 15 8 2 -0 2 3 4 2 -0 -0 4 7
8 11 11 9 10 12 11 6 4 6 4 2 8 11 3 -1 -5 -13 -1 11 3 -4 2 11 9 7 13 14 4 -2 -1 6 19 18 7 8 8 -3 -4 5 12 16 15 7 3 4 4 2 1 1 2 5
7 8 12 12 10 10 13 11 6 6 6 2 4 11 8 3 5 -6 -18 -8 3 -2 -4 3 4 -1 -0 8 12 8 -2 -9 2 20 22 17 15 9 2 1 2 5 13 16 9 7 8 3 -3 -1 3 3
13 6 7 11 13 11 10 13 10 5 6 8 5 5 9 5 4 5 -10 -22 -15 -5 -1 4 9 13 12 12 14 12 8 -1 -8 -0 13 20 20 19 13 6 4 -1 -1 10 15 12 14 14 3 -4 0 4
25 13 7 6 10 13 10 11 13 10 4 4 9 10 11 9 3 7 7 -10 -20 -17 -14 -16 -11 1 9 14 17 15 9 4 -0 -7 -9 -2 3 9 14 11 10 11 3 0 9 12 12 19 18 5 -1 4
32 25 15 7 6 9 11 9 10 13 11 2 1 5 9 13 10 8 12 8 -4 -8 -7 -13 -20 -20 -14 -7 4 16 17 9 9 10 1 -8 -8 -5 1 7 9 15 14 1 -3 3 5 8 18 20 7 1
31 32 25 16 9 6 8 9 8 7 12 12 4 0 3 8 13 11 11 14 10 3 3 7 5 -4 -12 -17 -15 -3 11 11 6 15 21 11 8 6 -1 2 5 10 18 13 1 -3 3 4 5 17 17 5
28 30 31 26 18 12 9 8 11 8 5 10 11 7 2 1 7 12 12 11 12 10 7 8 11 12 8 1 -7 -10 -3 5 2 6 21 20 11 13 16 16 11 9 13 19 18 4 1 7 4 4 12 16
28 26 29 31 26 20 17 13 11 12 9 6 8 10 9 4 -1 3 11 13 11 9 7 6 6 9 13 12 8 2 -4 -0 4 -1 4 16 15 12 15 14 9 5 3 11 26 24 9 5 9 6 2 8
30 26 24 28 31 25 21 20 16 14 15 12 8 8 10 11 6 -2 -2 6 12 13 12 7 3 5 11 12 10 10 4 -2 -2 -7 -11 -1 8 5 -6 -8 -2 -1 -1 -3 1 15 17 7 8 14 10 1
29 29 24 21 26 29 23 20 19 17 17 17 15 12 9 8 11 9 1 -3 -1 6 15 17 9 -0 2 10 10 10 11 5 -1 -4 -6 -10 -10 -5 -6 -6 -2 -0 6 3 -8 -4 6 6 3 9 17 13
29 30 30 25 20 23 25 22 18 16 16 16 17 17 16 11 7 8 9 6 0 -5 -2 11 19 10 0 3 7 6 7 9 7 3 2 0 -4 -3 1 3 2 1 5 8 6 3 3 4 3 3 9 13
31 30 31 33 29 23 21 22 20 17 15 15 15 14 16 18 15 10 7 7 8 7 -2 -5 5 12 8 4 5 4 2 5 9 10 6 6 4 1 2 5 5 4 2 5 10 12 13 11 4 3 4 6
28 31 29 28 32 33 28 23 20 18 16 15 15 14 13 15 18 17 14 9 4 7 10 4 -1 2 6 7 8 8 6 3 3 8 10 8 8 6 4 4 6 7 6 7 9 11 17 18 15 12 12 15
17 24 29 29 26 29 34 33 26 19 15 15 16 15 13 13 15 16 17 17 12 6 6 10 8 4 2 2 5 7 9 8 3 2 6 9 9 11 10 7 7 8 9 9 7 3 -1 7 20 24 23 22
10 13 19 27 28 25 26 33 36 31 20 13 13 15 13 11 12 14 15 15 17 14 9 8 10 11 9 7 6 4 5 7 7 4 5 8 8 9 11 11 10 7 9 9 7 -0 -12 -3 8 11 21 15
9 10 11 16 23 25 23 22 29 37 36 24 13 11 12 11 9 9 12 15 16 16 14 11 8 9 11 11 11 9 7 7 9 8 6 8 8 9 9 10 11 9 10 7 6 3 -1 8 4 -6 8 15
10 12 13 13 14 18 22 21 18 24 34 40 31 18 11 11 11 7 4 9 13 15 16 16 13 10 9 9 10 11 10 9 10 10 8 8 8 9 9 9 10 9 10 9 9 9 11 16 4 -10 -0 10
14 16 18 18 16 13 15 19 20 17 18 31 41 38 24 14 12 12 8 4 5 9 12 15 16 15 12 9 8 9 11 11 11 11 9 9 8 8 9 10 11 9 8 8 9 11 15 20 7 -11 -6 5
15 19 23 24 23 20 15 12 17 20 16 15 25 40 43 31 18 13 13 11 7 5 6 8 13 16 16 13 10 8 8 10 12 13 12 9 8 9 9 9 10 11 10 7 9 11 8 15 16 -6 -17 -1
16 19 23 26 27 28 24 15 10 15 20 17 12 20 37 45 37 22 13 12 12 10 7 5 5 9 13 15 14 11 8 7 9 12 14 12 9 8 9 10 10 10 12 8 9 14 5 0 13 13 -7 -16
17 20 23 25 28 31 32 27 16 10 14 22 20 12 17 33 46 44 31 16 10 10 12 10 6 5 8 11 13 13 11 8 7 8 10 13 12 9 7 9 10 9 12 11 6 13 12 -6 -9 6 9 -3
16 20 25 27 28 30 33 34 28 18 10 13 22 22 14 15 27 43 50 41 25 13 11 12 11 7 6 8 10 12 12 11 9 7 7 10 13 12 8 6 9 9 9 12 10 10 12 1 -11 -11 -1 6
18 19 25 31 32 31 31 34 34 29 19 10 13 22 21 15 14 22 38 50 47 34 20 14 13 11 8 7 8 10 11 11 11 9 7 7 9 13 12 7 7 9 8 9 11 12 10 7 3 -6 -12 -5
19 19 24 31 35 34 30 30 32 32 28 17 10 16 23 19 14 12 18 32 44 48 38 25 17 13 10 7 7 8 10 11 11 10 10 8 6 8 13 12 7 7 9 8 8 10 11 10 7 3 -4 -10
20 19 23 30 32 34 32 29 29 29 30 24 13 12 20 23 17 12 10 14 25 40 48 45 34 23 15 9 6 6 8 11 12 11 10 10 9 7 7 10 11 9 8 8 9 7 9 12 9 8 10 1
21 20 22 28 31 30 31 30 28 27 28 25 17 11 15 21 23 18 13 11 13 22 37 48 51 44 32 19 10 7 7 9 11 13 13 10 10 10 8 6 8 11 11 9 9 8 7 10 11 9 10 9
21 21 21 26 30 28 28 30 28 27 25 22 16 12 14 18 22 21 17 13 10 10 16 27 42 51 50 39 23 12 7 7 8 10 13 14 12 10 10 9 6 7 11 11 8 9 9 7 9 12 10 10
20 21 21 24 29 26 23 26 27 24 22 20 15 11 13 17 19 20 19 18 14 11 9 10 18 32 47 54 47 31 16 8 8 7 8 12 16 15 11 9 9 7 8 10 9 8 10 9 7 9 11 11
20 19 20 23 28 29 22 21 23 21 18 16 15 14 14 17 18 17 17 18 18 16 13 10 8 12 22 38 52 54 42 24 12 8 6 6 10 15 15 11 9 9 9 9 10 7 7 9 10 8 9 11
19 19 19 19 23 29 26 20 17 17 17 15 15 15 16 18 19 18 16 16 17 19 19 17 13 10 8 12 24 41 53 50 35 19 11 7 5 7 13 15 11 9 11 11 10 10 7 6 8 9 9 10

ECMWFFLT2_500_avort_045.txt.gz
Vorticity
37 42 38 36 34 33 36 38 28 8 0 9 15 11 3 -1 3 4 1 3 7 7 -1 -17 -22 -24 -17 3 6 1 4 6 8 9 6 1 12 20 10 10 13 10 8 4 7 10 1 -4 4 6 4 5
37 43 38 35 36 34 31 35 39 25 3 2 12 15 10 4 1 2 4 3 2 5 9 4 -14 -35 -32 -10 -8 -12 -6 2 9 13 18 13 7 15 17 11 10 9 10 9 3 5 9 1 -2 3 5 3
35 44 38 31 34 38 34 28 34 39 22 3 4 15 15 9 3 1 5 8 10 9 6 8 15 14 9 6 -3 -9 -10 -11 -4 2 8 14 13 14 18 12 7 5 5 10 9 2 5 9 1 -4 4 7
31 46 40 28 28 36 40 33 26 34 38 20 3 7 14 12 6 0 -2 0 5 18 26 22 29 39 23 3 3 11 12 5 0 0 1 5 8 9 16 17 10 6 8 11 15 10 3 8 11 -4 -7 7
24 44 44 29 23 29 38 41 31 25 32 35 20 7 9 12 11 5 -7 -16 -17 -5 8 7 9 12 2 -3 8 15 12 11 15 14 10 7 3 -2 2 16 23 16 10 11 16 20 13 10 19 14 -3 -7
17 37 48 33 20 23 32 39 40 32 25 30 31 20 12 10 11 9 2 -9 -17 -17 -19 -20 -11 -3 3 8 12 19 17 11 14 16 14 11 10 4 -7 -5 17 30 21 14 14 15 13 7 7 16 17 3
13 28 46 40 22 18 26 34 38 39 32 26 28 27 20 15 12 9 7 2 -4 -4 -6 -14 -14 0 19 21 9 8 14 18 19 14 11 9 11 14 9 -6 -7 13 26 23 20 13 5 6 3 1 12 22
11 21 39 44 29 17 20 31 35 36 36 32 27 26 24 19 17 14 10 7 -1 -6 3 4 -14 -15 6 19 21 15 6 11 17 16 15 12 9 10 14 11 -4 -7 7 18 25 25 16 12 14 8 -0 10
9 16 31 43 36 20 15 23 32 35 35 35 33 29 26 22 19 17 13 11 6 -11 -12 8 2 -18 -13 -2 5 13 14 12 10 8 11 15 15 12 8 9 8 -1 -6 -3 5 16 23 21 16 18 10 1
7 13 24 39 42 27 15 15 24 35 37 34 33 33 31 27 21 18 16 13 15 5 -18 -9 10 -5 -14 -5 -5 -6 4 10 5 -8 -11 -1 6 9 10 6 4 6 5 -4 -11 -6 3 14 17 16 18 10
6 10 18 31 43 37 21 13 15 25 36 37 33 32 33 32 27 19 17 15 15 19 3 -15 -2 0 -14 -7 3 -3 -5 2 5 -9 -16 -7 -4 -4 3 10 7 -1 6 9 -3 -10 -12 -7 4 9 11 9
6 8 14 22 34 41 32 18 13 15 25 36 37 33 31 33 34 27 18 17 14 16 18 3 -7 -5 -13 -15 -2 2 -4 1 9 4 -2 2 6 5 -4 3 19 8 -2 9 11 6 3 -1 -1 7 12 6
6 7 12 18 25 35 37 25 17 14 15 24 34 37 34 30 33 36 27 18 16 14 17 17 6 -1 -8 -16 -11 -2 -5 -6 4 11 6 -3 -3 8 1 -11 5 20 10 2 13 21 19 21 21 22 26 20
5 8 11 17 22 29 34 28 20 17 15 17 24 32 35 33 29 33 36 27 18 15 15 16 14 8 4 -2 -11 -8 -3 -7 -6 4 10 5 -3 -4 1 -7 -15 2 16 11 9 15 18 22 24 19 20 24
4 6 10 15 22 29 32 28 23 19 19 17 19 24 30 35 32 28 33 36 29 18 14 15 17 12 6 8 4 -3 -2 -4 -10 -10 -5 5 14 6 -2 -2 -9 -16 -2 18 14 5 11 14 8 6 4 3
3 4 7 12 20 29 34 32 26 21 22 21 20 22 24 28 32 31 27 31 36 30 19 12 14 19 12 7 8 6 2 -1 -3 -7 -14 -14 -1 13 13 7 5 -5 -8 11 15 2 5 9 4 3 5 -0
4 4 5 9 16 24 32 35 30 23 23 24 22 22 24 25 25 29 29 27 31 35 32 22 12 14 18 14 8 9 8 4 3 3 -0 -6 -12 -6 9 13 10 5 -3 -2 4 2 -2 2 9 1 -3 4
5 5 5 6 11 18 26 34 33 25 24 28 26 23 23 26 24 23 26 28 28 30 32 30 23 13 12 16 14 10 9 7 6 7 5 5 3 -6 -9 -2 7 12 8 -5 -8 5 4 -6 1 2 -8 -1
6 5 5 5 8 14 19 29 35 28 24 29 31 29 26 24 25 22 21 24 26 29 31 29 28 23 15 12 14 13 12 10 7 8 7 3 5 7 -2 -9 -3 9 17 13 -2 2 16 3 -8 -4 -11 -15
7 5 5 5 7 11 15 22 31 30 23 27 33 35 33 29 25 22 20 20 22 25 31 31 28 26 24 17 13 12 11 11 10 8 10 8 4 5 7 2 -4 -6 -1 14 11 -3 2 7 1 -0 -5 -11
7 7 6 6 7 8 13 18 25 28 24 24 32 37 38 37 31 24 18 17 21 23 26 32 32 26 25 24 20 15 12 10 10 10 10 12 11 6 6 8 5 -3 -13 -9 4 0 -9 -9 -7 -9 -4 9
8 7 6 6 8 8 10 17 23 26 25 24 29 36 39 42 38 31 24 16 16 21 24 27 34 33 26 23 23 21 17 13 9 8 8 10 13 12 9 9 9 8 -0 -12 -11 -4 -4 -6 -5 -7 -10 -2
8 7 7 6 8 9 8 13 20 24 26 25 27 33 36 40 40 36 30 21 14 17 23 23 27 36 35 26 21 21 21 19 15 10 7 6 9 14 12 10 11 12 10 3 -5 -8 -7 -5 -1 7 6 -6
8 6 6 7 8 9 9 11 15 20 25 24 25 31 34 35 37 37 35 28 16 13 21 26 24 27 38 40 28 20 18 19 19 15 11 7 4 8 12 11 11 13 14 12 7 2 -0 -1 -5 -5 6 8
8 7 6 7 8 9 10 13 13 16 21 23 23 27 32 32 32 33 34 31 21 13 16 26 31 24 27 42 47 35 22 17 18 18 16 13 8 5 7 11 10 10 12 14 12 8 5 7 7 -1 -3 9
7 7 6 6 8 9 10 13 15 17 19 20 21 24 27 29 30 29 27 25 19 16 16 19 30 31 20 23 41 52 44 27 17 17 18 16 15 11 7 7 9 11 10 11 13 11 10 9 13 13 7 9
7 6 6 6 7 9 10 12 15 19 21 19 18 22 25 24 24 23 20 18 14 14 17 17 20 28 26 16 17 35 51 49 31 17 15 15 16 15 13 9 7 9 11 11 12 10 10 10 11 15 14 13
7 6 6 6 7 8 9 11 15 19 21 19 18 19 23 22 20 18 15 14 14 13 14 17 19 22 25 22 15 16 30 49 53 38 20 12 13 14 13 13 10 8 8 10 14 13 8 5 7 11 12 13
7 6 5 5 7 8 6 9 16 20 20 19 18 19 21 21 19 17 15 14 15 17 17 15 18 22 24 22 18 15 15 25 45 56 47 26 13 11 12 13 11 10 10 9 10 13 14 9 4 5 7 12
9 7 5 5 6 7 6 9 14 17 19 19 18 18 20 21 19 16 15 16 15 16 19 19 17 18 22 24 20 17 15 14 21 39 57 54 34 16 10 11 11 9 10 11 10 10 13 13 8 4 5 9
11 8 6 5 6 6 6 9 13 16 18 18 18 17 19 21 20 17 13 13 14 13 14 17 19 18 17 21 23 21 17 15 14 17 32 54 59 43 21 9 9 10 9 8 10 9 10 13 13 8 4 5

ECMWFFLT2_500_avort_048.txt.gz
Vorticity
7 7 9 11 14 13 10 9 9 14 18 19 31 44 42 42 50 52 30 -1 3 16 13 13 11 9 18 18 9 4 -2 -2 4 5 9 11 9 8 8 10 7 -2 1 10 10 6 1 -1 4 7 1 -2
7 7 9 10 13 13 9 8 7 9 15 14 20 41 49 42 43 55 50 15 -4 8 11 8 20 22 21 27 22 18 11 7 12 11 14 16 8 7 6 7 14 9 -2 -1 7 10 10 5 -1 1 8 4
7 7 8 10 12 13 10 7 7 6 11 12 10 31 52 46 37 47 61 43 0 -8 11 5 4 16 17 21 24 22 24 21 11 3 9 18 17 15 14 7 6 11 7 0 -2 1 5 11 10 1 4 9
6 7 7 10 12 12 11 7 6 6 7 11 7 17 48 54 36 36 54 64 30 -14 -2 17 -0 -7 -2 4 10 13 23 24 10 3 3 5 16 23 22 15 7 10 18 19 11 2 -2 1 11 10 4 6
5 7 8 9 11 13 12 9 6 6 6 9 8 8 35 59 43 30 41 62 63 14 -14 14 20 -4 -12 -5 -3 -6 3 14 13 13 10 2 9 17 19 21 21 22 24 27 27 21 16 10 9 10 7 5
5 6 8 8 9 12 13 12 8 6 6 7 8 5 19 56 56 30 31 48 67 53 3 -9 11 2 -12 -2 2 -7 -5 6 11 12 12 10 9 9 8 14 19 22 18 13 13 11 12 14 15 12 10 10
5 6 7 8 7 10 13 14 11 7 7 6 7 8 9 40 64 41 25 37 55 68 41 -8 -16 -9 -17 -8 5 0 -2 7 16 12 2 -1 1 2 2 7 11 15 15 8 1 -3 -1 6 10 11 9 13
4 6 6 7 7 7 11 13 14 9 7 8 6 8 9 24 58 56 27 27 44 61 65 23 -19 -15 -13 -18 -6 0 -6 -1 18 24 12 1 -5 -4 -1 1 5 11 17 15 12 7 5 7 8 11 10 8
2 4 5 6 7 7 9 11 14 13 8 8 6 6 10 18 44 60 38 22 33 49 67 57 5 -18 -9 -12 -17 -10 -6 -8 4 21 24 19 10 4 -1 -5 -2 4 9 8 10 14 15 14 9 7 14 14
2 2 4 4 6 6 8 10 12 14 11 7 6 6 8 18 37 53 45 24 25 39 54 69 46 -0 -15 -8 -18 -30 -21 -10 -5 7 16 21 23 17 6 -1 -3 -2 0 -2 -7 -4 7 17 16 8 7 15
3 2 3 3 5 6 7 9 11 12 13 9 5 7 8 17 37 47 45 31 20 31 44 57 66 41 -2 -13 -8 -24 -35 -25 -12 -1 6 10 20 25 17 5 -2 -2 -0 4 4 -5 -6 0 9 17 14 7
4 4 4 4 4 5 7 8 11 12 12 11 6 6 8 14 38 47 39 35 22 19 37 48 58 63 35 -2 -8 -8 -24 -33 -25 -11 -5 -5 4 20 27 16 2 3 6 7 14 17 12 1 -7 3 16 14
6 6 5 5 4 4 7 8 9 13 11 11 7 6 9 11 35 54 38 31 31 17 22 43 51 57 56 29 -2 -10 -12 -22 -27 -23 -18 -18 -15 0 22 28 11 3 9 10 9 12 13 12 7 4 5 11
7 7 7 6 5 4 5 7 8 11 12 11 8 5 9 11 26 54 46 27 30 25 15 27 46 54 56 50 22 -5 -8 -8 -16 -24 -27 -26 -22 -11 6 22 21 8 5 10 11 7 5 8 13 17 11 5
8 8 9 8 7 6 4 6 8 10 11 11 10 5 7 13 21 45 51 34 28 28 20 17 30 49 55 57 43 13 -0 -2 -6 -12 -23 -29 -28 -15 -2 6 20 22 11 6 10 12 13 15 11 9 13 13
8 8 9 10 9 8 6 5 7 10 11 10 11 7 7 11 18 37 48 39 34 30 24 18 18 35 49 57 55 33 11 2 -0 -4 -12 -20 -30 -24 -8 -1 7 18 20 12 8 11 13 17 17 10 6 14
8 8 9 11 11 9 8 6 6 9 10 10 11 7 7 11 13 30 45 37 37 40 31 21 15 22 37 49 57 51 28 8 3 2 -5 -11 -19 -25 -18 -8 -6 -1 14 19 13 11 11 11 12 12 6 6
7 8 9 10 12 11 9 6 6 8 9 9 10 8 5 10 12 22 41 37 31 43 45 33 19 15 25 37 48 56 47 22 5 5 5 -4 -10 -15 -23 -20 -15 -16 -8 7 15 14 12 11 6 6 4 -1
8 8 9 10 11 12 10 8 6 7 10 9 9 10 5 7 12 16 32 37 28 34 48 49 35 18 16 27 37 46 54 42 14 5 12 5 -3 -1 -13 -25 -23 -19 -18 -13 3 12 10 8 6 6 1 -4
8 8 9 9 11 12 11 9 8 7 9 10 8 8 7 5 10 13 22 34 30 27 39 50 50 36 18 17 28 36 45 51 34 10 10 12 4 6 4 -12 -25 -24 -17 -15 -11 -3 4 5 3 5 3 0
8 8 9 9 9 11 12 9 8 8 8 10 9 7 6 5 8 12 17 28 30 25 31 42 50 49 35 19 19 29 34 44 46 24 11 15 13 8 10 6 -11 -24 -23 -14 -9 -9 1 9 3 3 8 10
9 9 9 9 9 10 12 11 8 8 9 9 9 8 6 5 7 11 14 22 28 25 26 34 43 50 48 33 20 24 30 34 44 38 18 14 19 18 12 10 4 -9 -21 -22 -14 -9 0 12 7 5 13 10
9 10 10 8 8 10 10 11 10 8 9 9 9 8 7 5 6 10 14 18 23 24 22 26 35 44 50 46 32 24 28 31 37 42 31 15 15 22 20 14 8 4 -1 -14 -19 -18 -11 5 6 1 10 11
8 10 11 9 7 10 10 10 11 9 9 9 8 8 7 5 5 8 13 17 20 22 21 20 23 32 42 47 42 31 27 32 35 40 42 29 15 16 22 20 11 8 12 6 -6 -15 -20 -10 -1 -6 -3 7
8 10 11 11 8 9 10 11 10 9 9 10 8 8 6 6 6 7 12 17 20 20 20 19 17 20 27 35 39 37 31 31 35 37 42 42 29 17 17 20 15 9 10 14 11 0 -13 -19 -13 -8 -12 -8
7 10 11 11 9 9 10 11 11 9 9 9 8 7 6 6 6 7 11 15 19 21 20 20 18 15 16 20 25 29 31 31 34 37 39 43 41 30 20 17 16 12 8 10 15 12 5 -6 -15 -14 -10 -10
7 9 11 12 10 9 10 10 11 10 9 9 9 7 5 6 7 7 10 14 17 20 21 21 20 18 14 15 17 19 23 28 33 38 41 41 44 43 35 24 17 13 9 7 10 12 14 14 3 -11 -13 -7
7 9 11 12 11 9 10 10 11 11 9 9 9 7 5 5 7 8 9 12 16 18 21 21 20 20 17 14 15 16 17 21 27 32 38 41 42 45 45 41 30 18 12 9 7 7 9 14 20 13 -5 -11
7 9 11 12 11 10 10 9 10 12 10 9 10 7 5 5 6 8 9 11 14 17 19 20 20 20 20 17 14 15 15 16 21 26 32 36 38 39 42 48 46 34 21 13 7 7 11 9 14 27 17 -7
7 9 12 13 12 10 10 10 9 11 11 10 10 8 5 5 5 7 10 11 13 16 17 18 20 19 19 18 15 13 13 12 14 19 27 32 35 34 34 41 49 50 39 24 10 5 11 12 7 16 28 18
7 9 12 13 13 11 10 11 10 10 12 11 10 8 6 4 5 6 9 11 12 15 17 17 18 20 19 18 16 13 12 11 10 12 17 26 33 33 30 30 36 49 53 43 27 9 3 11 14 11 17 30

ECMWFFLT2_500_avort_051.txt.gz
Vorticity
3 2 2 3 4 4 5 5 5 5 5 6 6 7 8 9 12 15 17 18 15 16 21 26 27 32 48 42 19 16 21 17 16 22 20 21 29 24 17 14 13 9 6 7 3 4 12 6 -6 -2 6 5
4 3 3 4 4 3 4 4 4 4 4 5 6 7 8 9 10 13 16 18 15 14 17 23 23 29 49 51 30 17 27 32 16 10 10 9 21 26 25 20 16 14 8 8 6 2 9 14 5 -7 -2 7
5 5 4 4 4 3 3 4 4 4 4 5 6 6 7 8 9 11 14 18 17 13 12 20 21 21 44 61 47 17 2 20 31 17 3 1 4 -1 5 19 17 16 18 16 13 4 1 11 15 5 -6 -0
6 6 5 5 4 3 2 3 4 3 4 5 6 7 8 8 8 9 12 16 18 15 10 16 23 16 31 62 64 40 -1 -22 -1 19 18 6 0 -4 -2 16 21 17 19 15 12 3 -7 4 15 15 4 -8
8 8 7 6 4 3 3 3 3 3 3 4 6 7 8 9 8 7 9 14 17 18 12 9 21 18 20 54 69 58 29 -14 -32 -18 5 8 -0 9 16 18 21 23 23 7 -3 -1 -3 5 13 14 13 -0
8 8 7 6 5 4 4 3 2 2 3 4 5 7 8 11 10 7 5 10 16 18 16 7 14 21 14 41 73 69 41 12 -5 -24 -19 4 6 13 24 21 20 24 28 22 5 -0 2 4 11 12 12 11
8 8 8 7 5 5 4 3 3 2 3 3 4 6 7 11 11 9 4 6 13 17 19 10 7 19 16 28 65 81 54 17 10 4 -13 -6 2 4 14 15 15 22 25 31 30 16 8 2 8 14 8 10
7 8 8 7 6 5 5 4 4 3 2 3 3 5 6 10 13 11 6 3 9 15 19 14 7 12 16 25 54 77 73 37 8 9 3 -12 -13 -8 4 5 -5 5 15 19 29 29 21 7 -1 9 12 8
5 7 7 6 6 6 6 6 5 4 3 3 3 5 6 9 13 12 9 4 4 13 19 15 8 11 12 21 51 71 73 56 18 3 9 3 5 14 16 9 -12 -18 -4 3 8 20 32 27 6 -3 5 8
4 5 5 4 5 5 6 6 6 6 4 5 4 5 6 8 12 13 11 7 3 8 18 18 8 9 13 17 45 70 69 60 37 10 -0 4 20 37 34 11 -5 -13 -12 -4 -6 -4 15 35 35 12 -2 3
2 2 3 2 3 4 5 6 6 7 6 6 6 5 7 8 11 13 11 8 5 6 14 19 11 6 10 20 40 62 68 57 49 33 1 -1 7 13 27 11 -4 3 -0 2 0 -9 -7 7 33 39 18 6
1 1 2 2 2 3 3 5 6 7 7 7 7 6 6 8 10 11 12 9 6 5 11 17 12 8 7 20 41 51 64 58 46 50 19 0 -2 -18 5 18 1 6 8 8 9 3 -2 -10 0 27 33 22
2 2 3 3 3 3 2 4 5 6 7 8 8 7 7 8 10 10 12 11 8 5 9 17 11 8 7 18 46 43 51 62 42 51 44 10 1 -16 -16 6 7 3 4 6 10 9 7 -0 -7 1 18 25
4 3 4 4 4 4 3 3 4 5 6 8 8 9 8 8 10 9 12 10 10 8 6 16 12 8 8 15 49 45 34 59 47 40 56 35 10 -7 -24 -16 1 4 -0 -1 2 10 8 5 7 2 4 13
5 4 4 5 6 5 4 3 4 5 6 8 9 10 9 9 10 8 11 12 9 10 6 12 13 7 8 13 45 54 27 44 55 35 47 58 27 -6 -20 -25 -14 0 4 2 -2 7 12 4 8 12 9 10
4 4 5 6 7 6 5 4 4 5 5 7 9 10 11 9 11 8 9 12 10 10 8 9 12 7 7 12 36 58 36 30 50 41 34 59 51 6 -17 -27 -26 -8 1 3 1 4 13 8 2 6 8 13
5 6 8 8 7 6 5 5 4 5 5 7 9 10 12 9 10 11 8 11 11 10 9 7 10 9 6 9 29 51 46 32 40 44 30 42 63 36 -3 -26 -33 -16 -6 -6 -1 3 9 11 5 2 1 5
6 7 9 8 7 5 4 5 4 5 5 7 10 10 12 12 10 11 9 10 11 10 10 9 7 8 7 6 23 43 46 41 38 38 33 27 48 59 31 -4 -26 -25 -12 -10 -6 4 8 10 9 9 6 1
7 7 8 7 6 5 4 5 5 5 6 6 9 11 11 12 11 11 10 9 11 12 9 9 8 6 8 5 16 37 39 44 48 36 32 26 27 50 55 35 2 -26 -23 -13 -10 2 8 7 12 14 12 6
7 6 6 6 5 5 5 6 6 5 6 8 9 12 13 12 11 11 11 10 9 12 10 8 9 4 7 7 10 31 34 35 57 49 28 25 20 31 52 57 37 -7 -26 -18 -19 -10 1 2 9 16 16 12
6 5 5 5 4 5 6 6 7 7 7 9 9 10 13 12 12 12 11 12 10 11 11 8 9 5 4 9 6 22 36 26 48 67 40 20 15 19 39 56 59 27 -12 -22 -25 -24 -11 -3 3 12 16 16
5 5 4 4 5 5 7 7 7 9 8 9 10 10 13 13 12 13 11 12 11 10 11 9 8 7 2 8 8 13 33 27 31 66 62 31 13 9 23 44 63 58 12 -20 -22 -26 -24 -11 -1 6 11 15
4 5 4 4 6 6 6 8 8 9 10 10 11 11 12 13 11 13 13 12 13 10 10 10 6 7 4 4 10 10 24 30 23 49 70 53 26 6 10 27 49 70 44 -4 -18 -20 -29 -25 -13 -5 4 12
4 4 5 5 6 7 6 7 9 10 12 12 11 11 11 13 13 12 14 12 13 11 8 10 6 5 7 3 7 10 17 28 24 34 60 63 46 19 5 14 31 56 63 32 2 -8 -19 -27 -23 -15 -5 6
5 4 6 7 6 7 7 7 10 10 13 13 10 11 11 12 13 12 14 13 12 13 8 8 8 4 6 5 6 10 14 23 24 25 44 57 56 39 13 8 20 35 55 54 29 7 -4 -16 -25 -20 -13 -7
6 7 6 7 7 7 8 7 9 11 13 14 10 9 12 11 13 14 13 14 12 13 10 6 8 6 5 6 6 9 12 19 24 21 30 44 51 51 30 10 12 25 42 54 46 23 6 -2 -16 -21 -14 -18
6 8 7 7 8 7 8 8 9 13 14 14 10 9 12 11 12 15 14 15 13 12 11 7 6 6 5 6 6 8 11 16 23 21 22 31 40 50 47 26 9 13 29 48 58 39 13 8 -3 -17 -15 -18
7 7 7 7 8 7 8 9 8 14 17 14 10 8 12 12 12 16 16 15 14 12 11 7 6 6 5 6 7 7 11 14 20 22 20 23 29 38 48 47 27 10 13 32 52 54 36 18 4 -3 -9 -14
7 7 7 6 7 7 8 10 9 14 19 14 9 8 11 13 12 16 18 15 14 13 11 8 5 6 5 6 7 7 9 13 17 21 20 20 23 26 33 47 49 31 13 15 31 51 60 38 15 17 6 -13
7 6 8 7 6 7 7 10 12 15 21 15 7 8 10 12 13 16 18 16 14 12 11 9 5 5 5 5 7 8 9 11 15 19 20 19 21 23 23 28 45 51 34 19 16 26 52 57 36 27 16 0
7 6 7 7 6 7 8 11 14 16 21 16 6 7 10 11 13 16 18 16 14 13 11 9 6 5 5 5 7 8 9 10 13 17 20 19 18 20 23 19 24 42 47 39 27 13 25 55 57 37 25 19

ECMWFFLT2_500_avort_054.txt.gz
Vorticity
8 7 7 6 8 10 11 10 7 6 8 8 5 4 5 6 7 7 6 4 5 6 6 6 6 6 6 7 8 10 12 15 18 20 23 25 27 26 25 22 15 21 26 20 17 12 3 5 10 6 4 6
8 8 7 8 10 11 10 8 8 8 9 7 5 5 6 6 7 7 5 3 4 6 6 6 5 6 5 6 7 8 10 13 16 19 22 22 25 26 27 28 19 15 21 24 22 16 9 5 9 12 7 5
9 8 8 8 9 9 8 8 8 9 8 6 5 6 7 7 8 7 5 3 4 5 5 5 5 5 5 5 6 8 8 11 14 17 21 21 21 25 25 28 25 13 11 21 26 21 13 7 6 10 14 10
9 8 8 8 8 6 6 6 7 7 6 5 5 6 7 8 8 7 6 4 4 5 5 5 4 4 4 5 5 6 8 9 12 15 20 22 20 23 24 29 28 9 5 14 20 25 16 5 -1 -3 8 16
9 8 8 8 7 5 4 4 5 5 4 4 5 6 7 7 7 7 6 5 4 5 5 5 4 4 4 5 5 5 7 8 11 12 17 23 22 24 23 32 39 12 -2 4 4 18 24 15 3 -14 -7 10
8 8 7 7 6 4 3 3 3 3 2 3 4 5 6 6 6 6 6 6 5 5 6 6 5 4 4 4 5 6 7 8 10 11 13 21 22 25 24 29 48 30 0 2 -1 2 19 30 23 -5 -17 -1
7 6 6 5 5 4 4 2 2 1 1 2 3 5 5 5 5 6 6 7 6 6 6 6 6 5 5 4 6 7 8 8 9 11 10 17 22 23 28 25 45 53 22 17 21 4 2 19 36 23 -12 -12
6 5 4 4 4 4 4 3 2 2 1 1 3 4 4 4 4 5 6 7 6 6 6 5 6 6 6 5 6 7 8 10 9 12 9 12 21 21 28 28 37 60 36 16 29 19 0 -2 20 41 12 -17
5 4 3 3 2 2 3 4 3 2 1 2 4 4 4 4 4 5 5 6 6 6 5 4 5 6 7 7 7 7 8 12 10 11 10 8 18 20 25 30 35 55 45 15 20 28 20 8 -0 25 35 -1
4 3 2 2 1 1 4 5 3 2 2 3 5 5 5 4 4 5 4 6 6 5 4 4 6 6 8 9 8 9 8 12 12 10 11 7 13 20 21 28 36 51 58 30 12 25 32 28 8 0 28 25
3 3 3 3 2 3 4 5 3 2 3 4 6 6 5 5 4 5 5 5 5 4 4 4 7 7 9 11 9 11 9 10 13 11 10 8 10 19 19 23 36 47 63 45 5 11 27 30 32 4 3 29
4 4 4 4 4 3 4 4 3 2 4 6 6 6 5 6 5 5 5 6 5 3 4 5 7 9 10 12 11 11 12 11 13 13 10 8 8 17 19 17 31 48 62 60 15 -6 9 18 37 29 1 17
5 5 5 6 4 3 4 4 3 3 6 7 6 7 7 7 5 6 6 5 4 3 4 6 8 11 13 13 13 12 12 12 13 14 10 7 9 13 20 14 22 49 61 66 38 -14 -16 4 24 38 18 13
5 6 5 5 3 3 5 4 4 5 7 7 7 8 7 6 6 6 6 3 3 4 5 7 10 13 15 15 14 14 12 12 12 14 11 5 10 12 18 16 13 45 64 64 55 -1 -30 -5 11 30 29 14
5 6 5 4 4 5 5 4 5 6 6 7 8 8 6 6 6 5 4 3 2 4 6 8 13 15 17 17 14 14 12 12 12 14 13 4 9 14 13 17 10 35 66 62 62 25 -24 -13 3 19 32 16
6 7 6 5 5 6 6 6 6 6 6 8 8 7 6 5 5 4 2 3 3 5 8 10 15 17 18 17 13 14 12 11 14 14 14 5 6 15 11 14 12 28 61 61 64 45 -7 -15 1 13 30 25
8 7 6 6 7 7 6 6 5 6 7 8 8 6 5 6 4 3 2 3 4 5 9 12 16 19 18 17 12 13 14 10 14 15 12 6 6 13 12 10 13 27 53 57 61 58 16 -13 -14 -3 17 29
7 6 6 7 7 6 5 5 6 6 8 7 7 6 5 5 2 2 3 3 6 7 11 14 17 20 17 15 13 12 15 12 13 17 12 6 7 11 11 8 11 29 48 49 55 63 41 3 -29 -38 -14 11
6 7 7 7 6 5 5 5 6 6 8 7 5 6 5 4 2 2 4 4 6 8 12 15 17 20 18 14 12 12 15 14 13 17 12 6 8 9 10 8 8 30 49 41 45 60 53 32 -7 -47 -38 -9
7 7 6 6 4 5 5 5 7 7 7 6 5 6 5 3 2 2 4 5 7 10 12 16 18 19 18 13 11 14 15 15 15 16 13 6 8 8 8 9 7 29 52 39 36 52 54 48 27 -13 -26 -11
6 6 5 5 5 4 5 6 8 8 7 6 5 6 5 2 3 3 4 5 7 11 14 16 19 18 16 13 10 15 16 15 15 15 12 7 8 8 6 8 7 26 49 43 36 42 51 52 41 23 -1 -8
5 5 5 5 5 4 6 7 7 8 6 5 6 5 5 3 3 4 4 6 7 12 16 15 19 18 15 12 10 15 17 15 16 14 11 7 8 8 6 7 6 23 42 42 45 41 42 52 44 39 8 -22
5 5 6 5 6 6 6 8 7 8 6 5 6 5 4 4 3 5 4 6 8 12 16 16 19 19 14 11 10 15 17 15 16 13 10 7 9 8 6 7 4 21 37 33 51 51 37 45 40 47 30 -26
6 5 7 7 7 7 7 8 8 7 7 6 6 5 4 5 3 5 5 6 9 13 16 17 19 18 13 12 11 14 17 16 16 13 9 7 9 10 5 8 5 16 34 26 45 61 42 41 35 44 58 5
7 6 7 8 7 8 7 8 8 6 7 6 6 6 5 5 4 5 6 6 10 15 16 16 18 17 13 13 11 14 16 16 16 12 9 7 8 11 5 6 7 12 30 23 33 62 51 41 36 36 65 36
7 7 8 8 7 7 7 8 8 7 7 6 5 7 5 5 5 5 6 7 11 15 17 16 17 17 14 13 11 14 16 15 15 11 8 8 7 11 7 5 8 10 26 24 22 51 56 46 37 32 58 53
7 8 8 8 8 7 7 7 8 7 7 7 7 7 6 5 5 5 6 8 12 16 17 16 16 16 14 13 12 14 17 14 14 12 7 8 7 10 9 5 8 9 20 25 18 34 50 50 42 34 48 57
8 9 8 8 7 7 8 7 8 7 6 7 7 8 7 6 5 5 7 9 13 16 17 16 15 17 15 13 12 14 16 14 13 11 8 7 6 9 10 6 8 9 16 23 18 24 39 45 43 42 43 47
9 9 8 8 7 7 8 7 8 7 8 8 7 8 7 7 6 5 7 9 13 17 18 16 14 16 16 12 12 15 15 14 13 10 8 8 6 8 9 7 8 9 14 22 19 18 29 38 38 41 47 44
8 8 8 8 8 8 8 7 7 7 8 9 8 8 7 6 6 5 7 10 13 17 19 17 13 15 17 13 11 15 15 13 13 10 8 8 7 8 9 7 8 9 12 19 21 16 19 32 35 33 44 49
8 8 8 8 8 8 9 8 9 9 9 9 8 8 8 6 6 6 8 11 13 17 19 17 13 15 17 13 11 15 16 13 12 9 8 9 7 7 10 8 8 9 10 15 20 18 15 23 32 29 35 47

ECMWFFLT2_500_avort_057.txt.gz
Vorticity
11 10 9 9 10 10 11 10 9 9 8 7 7 8 8 8 7 7 8 7 6 5 4 6 7 7 8 9 8 6 3 2 3 3 3 4 5 6 7 10 13 16 17 17 16 14 14 15 14 16 22 27
13 12 10 10 10 11 10 9 9 8 7 7 7 7 6 6 6 7 6 5 4 4 5 7 7 7 9 9 8 6 4 3 3 3 3 3 4 6 8 9 11 14 17 17 16 16 15 14 15 16 19 26
11 12 12 12 12 11 10 8 8 7 7 7 6 6 5 4 4 5 5 4 3 4 6 8 8 9 9 9 7 5 4 4 4 3 3 3 4 5 7 8 10 12 15 17 15 15 16 16 16 17 18 23
11 12 13 13 13 11 10 8 7 6 6 6 6 6 5 4 3 4 4 2 2 5 7 8 9 9 9 7 6 5 5 5 4 3 3 3 4 5 6 7 9 11 13 15 15 14 13 14 16 19 19 21
12 13 14 13 12 11 9 8 7 6 6 6 6 6 6 5 5 4 3 2 2 4 7 7 9 9 7 5 4 5 4 4 3 3 3 3 4 4 5 5 7 10 13 13 13 13 12 11 14 18 21 22
13 14 14 13 12 10 9 8 7 6 5 5 5 5 4 4 5 5 3 2 3 5 7 7 8 7 5 3 3 4 3 3 2 2 2 3 4 4 4 5 6 9 13 13 12 11 11 10 11 15 21 24
13 13 12 12 11 9 8 7 6 5 5 5 4 4 3 3 5 5 2 2 4 6 6 6 7 6 3 3 3 3 3 2 3 2 3 3 3 4 4 5 7 10 13 14 13 10 10 10 10 13 17 23
12 12 11 10 10 9 7 6 6 5 5 5 5 6 5 4 5 3 1 2 5 7 6 6 6 5 3 3 3 3 3 3 3 3 2 4 4 3 5 6 8 11 14 15 14 12 10 10 10 12 14 20
12 11 10 9 9 8 7 6 6 5 6 5 6 9 7 5 5 2 1 4 6 6 5 6 5 4 3 3 4 3 3 3 3 3 2 3 4 4 4 6 10 13 16 16 15 13 11 11 10 11 13 17
10 10 9 8 8 8 7 7 7 7 7 7 9 8 6 4 4 2 3 6 6 6 5 5 5 4 3 3 4 3 3 4 3 3 3 3 4 4 4 6 12 17 19 18 16 15 12 12 11 11 13 17
10 9 9 8 7 7 7 7 7 7 8 9 9 6 4 4 4 3 5 7 6 5 5 5 5 4 4 4 3 3 3 3 3 3 3 4 3 3 4 7 14 20 23 19 16 16 14 14 12 12 12 15
10 9 9 9 9 8 8 8 8 9 9 8 6 4 4 5 4 5 6 6 5 5 5 5 5 4 4 3 3 3 4 4 3 3 3 3 3 2 4 9 16 24 26 20 17 16 15 14 12 12 12 13
9 9 9 10 10 10 10 11 10 10 8 6 5 5 6 5 5 6 5 6 5 5 5 5 4 4 4 3 3 3 3 4 3 3 3 3 3 3 5 10 19 27 27 21 17 16 14 14 12 12 12 12
9 9 8 9 9 9 9 9 9 7 6 5 5 6 6 6 5 5 5 5 5 5 5 5 4 4 4 3 3 4 4 3 3 3 3 3 3 3 6 12 22 29 27 20 16 15 13 13 12 11 12 12
8 8 7 8 7 7 7 6 6 5 5 5 6 6 5 5 5 5 5 5 5 5 5 5 5 4 4 3 3 3 4 3 4 4 3 3 3 4 8 14 24 30 27 19 15 14 12 13 12 10 11 12
7 7 7 7 7 7 6 5 5 5 6 6 6 5 5 5 4 4 5 5 6 5 5 5 5 5 4 3 3 3 4 4 4 4 4 3 3 5 10 17 25 30 26 18 14 12 12 13 11 9 9 11
7 7 7 7 7 7 6 5 5 6 6 6 6 5 4 4 4 5 5 5 6 5 6 6 5 5 4 3 3 4 4 4 5 4 4 3 4 5 11 19 27 29 24 17 13 11 11 13 11 9 8 9
7 7 7 7 7 6 5 5 5 5 6 5 5 4 4 4 4 5 5 5 5 6 6 6 6 5 4 4 4 5 4 5 5 5 4 3 4 6 12 22 29 28 21 16 12 10 12 14 12 7 7 9
6 6 6 6 6 6 5 5 5 6 6 5 5 4 4 5 5 5 5 6 5 6 6 5 6 5 4 4 4 5 5 6 6 5 4 4 5 7 14 23 30 27 19 15 10 10 13 13 13 6 6 11
6 6 6 5 5 6 6 6 7 6 6 5 4 4 5 5 6 6 6 6 6 6 6 6 6 5 5 5 5 6 5 6 6 6 5 4 6 8 15 25 30 26 18 14 9 10 14 13 12 6 5 10
6 6 6 6 6 7 7 7 7 6 6 5 5 5 6 6 7 7 7 7 7 7 7 6 6 6 6 6 6 6 6 7 7 6 5 4 7 9 16 26 30 25 16 13 10 10 13 15 12 5 7 9
6 6 6 7 7 8 7 7 6 7 7 7 7 7 7 7 7 8 8 8 7 7 7 7 7 6 6 7 7 7 7 7 7 7 5 5 7 10 17 27 29 23 15 11 9 10 12 15 12 5 7 8
4 4 5 5 6 7 6 7 6 7 7 7 8 8 7 8 8 8 8 8 8 8 8 7 7 6 7 7 8 8 8 8 8 7 6 6 8 11 19 27 29 21 13 11 9 10 12 14 13 6 7 9
3 3 4 4 5 6 6 7 7 7 7 7 8 8 8 8 8 8 8 8 8 8 8 8 8 7 8 8 8 8 8 8 8 7 6 7 9 13 20 27 28 20 11 10 9 9 12 14 14 8 7 9
3 3 3 4 4 5 7 7 8 9 8 8 9 9 9 9 8 8 8 8 8 8 8 8 8 8 8 8 9 9 8 9 8 8 7 7 10 14 21 27 26 19 11 9 9 8 12 14 13 9 7 9
3 4 4 4 5 6 7 9 10 10 9 9 9 8 9 9 8 8 8 8 8 8 8 8 9 9 9 9 9 9 9 9 8 7 7 9 12 16 22 28 24 16 11 9 9 8 11 14 12 10 8 8
4 5 5 6 7 8 9 10 10 10 10 10 8 8 8 8 8 8 8 7 8 9 9 10 10 9 10 9 9 10 9 9 9 7 8 10 14 17 21 27 24 15 10 10 9 8 10 12 12 9 8 10
5 7 8 8 9 10 11 11 11 11 10 9 9 9 8 8 7 8 8 8 8 9 10 10 10 10 10 10 9 10 9 9 9 7 9 11 14 19 22 26 23 13 10 10 8 8 11 11 11 10 7 10
6 8 9 9 10 11 12 12 11 10 8 7 8 8 8 8 8 8 8 9 9 9 10 10 10 11 11 11 10 10 10 9 9 7 8 11 15 20 23 24 21 13 9 10 9 8 11 12 10 10 8 8
8 9 9 10 11 12 11 10 10 8 8 7 7 6 6 7 7 8 8 8 9 9 10 10 10 10 10 11 11 10 10 9 9 8 9 12 16 21 24 23 19 13 10 8 9 9 10 13 9 8 10 8
9 9 10 10 10 11 9 9 9 7 7 6 6 6 6 5 5 6 6 7 8 7 8 9 9 10 10 11 11 10 9 9 9 8 9 12 17 23 23 22 17 12 11 7 8 11 10 13 10 7 10 8

ECMWFFLT2_500_avort_063.txt.gz
Vorticity
5 5 7 7 9 10 11 12 13 14 15 14 14 13 11 10 10 10 10 10 10 10 10 10 10 10 10 9 9 9 9 8 8 8 8 8 7 7 6 6 6 7 7 7 6 6 7 6 5 3 2 3
7 8 9 10 11 11 12 13 14 13 13 11 11 9 9 9 9 9 9 9 9 9 9 9 9 9 9 9 8 8 8 7 7 6 6 6 6 6 6 6 6 6 6 7 7 7 7 6 4 3 2 3
10 11 12 12 12 12 12 12 12 10 9 9 9 9 9 10 10 10 10 10 10 10 10 10 9 9 9 8 8 7 7 6 6 5 5 5 5 5 5 5 5 5 6 7 8 8 7 5 4 3 3 3
10 11 11 12 12 11 10 9 9 8 8 9 9 11 11 11 11 11 11 11 10 10 10 10 10 9 9 8 7 6 6 5 5 5 5 5 5 5 5 5 4 5 5 7 7 7 7 4 3 2 4 5
9 10 9 9 9 9 9 9 9 10 10 11 12 13 13 13 12 12 12 11 11 10 9 10 9 9 8 7 7 5 5 5 5 4 4 5 5 5 6 5 4 5 6 7 7 5 4 3 2 2 4 6
9 9 9 9 10 10 10 11 13 14 14 15 14 13 13 13 13 12 12 11 11 10 9 9 8 7 7 6 6 5 5 4 4 4 4 4 4 5 5 4 3 5 8 8 7 5 3 3 3 5 6 6
10 10 11 12 13 14 14 15 16 16 16 16 15 14 14 13 13 13 12 12 11 10 9 8 8 7 6 5 5 5 5 5 5 5 5 5 5 5 4 3 2 6 9 8 6 4 3 3 4 5 6 6
12 12 14 14 15 16 17 17 16 16 16 16 16 16 16 15 15 15 15 14 13 13 11 10 9 8 8 7 7 6 6 7 7 6 6 7 7 6 4 2 3 8 9 6 4 3 4 4 4 5 5 5
14 14 15 15 16 16 16 16 16 16 16 16 16 15 15 14 14 15 15 15 15 15 14 14 13 12 12 11 11 10 10 10 10 10 10 9 8 6 3 3 6 8 8 5 4 4 5 5 5 5 4 5
14 14 15 16 16 16 16 16 15 15 14 14 13 13 12 12 12 13 13 13 14 15 15 15 15 14 14 13 14 13 13 13 12 11 10 8 5 4 3 5 7 7 6 5 5 4 4 5 5 5 5 5
15 16 17 17 16 15 14 12 11 10 10 9 9 9 9 9 10 10 11 12 11 12 12 13 13 13 13 12 12 12 11 10 9 7 5 5 4 5 6 7 7 6 5 4 3 4 3 4 4 5 5 4
17 17 16 14 13 10 8 7 6 5 5 6 6 6 7 7 7 7 8 8 8 8 8 9 9 9 9 8 8 8 8 7 6 6 6 7 7 8 8 7 6 4 4 3 2 3 3 3 3 4 5 3
15 13 11 10 8 6 5 4 4 4 4 4 5 5 6 6 6 6 6 6 6 6 6 7 7 7 7 7 7 7 8 8 8 9 9 8 8 7 6 5 4 3 2 2 3 3 3 3 3 3 4 4
10 8 7 6 5 4 3 4 4 4 5 5 5 5 6 6 6 6 6 7 6 7 7 7 7 7 7 7 7 7 8 8 7 8 8 7 6 4 4 3 2 2 1 2 3 3 4 3 4 3 3 4
6 5 4 3 3 3 4 5 5 5 6 6 6 6 6 6 5 5 5 5 5 5 6 6 6 6 6 6 6 6 6 6 6 5 6 5 5 4 3 3 2 2 1 2 3 3 3 3 3 4 4 4
4 3 3 3 4 5 5 6 6 6 6 6 5 5 4 4 3 3 3 3 3 3 3 3 3 3 3 3 3 3 3 3 3 3 3 3 3 3 3 4 4 4 4 3 4 4 4 4 4 4 4 5
3 3 4 5 5 5 5 5 5 5 5 4 3 2 2 2 2 2 1 1 1 1 1 1 1 2 1 2 2 2 2 2 2 2 2 3 3 3 3 4 4 4 4 4 4 4 4 5 5 5 6 5
4 5 6 6 6 5 5 5 4 3 3 2 2 1 1 1 1 1 1 1 1 1 2 2 1 2 2 2 2 2 2 2 3 3 3 4 4 4 4 4 5 5 5 5 5 5 5 6 6 6 7 7
6 6 6 6 6 5 5 5 4 3 3 2 2 1 1 1 1 1 1 1 2 2 2 2 2 2 2 2 2 2 3 2 2 3 3 3 3 4 5 5 6 6 6 7 6 7 8 8 7 7 8 9
6 6 6 6 6 5 5 4 4 4 3 3 2 2 1 1 1 1 1 2 2 2 2 3 2 3 3 3 3 3 4 4 4 4 5 6 7 7 8 9 9 9 9 8 7 8 9 10 9 8 8 9
5 6 6 6 5 5 5 4 4 4 4 4 3 3 2 2 2 2 2 3 3 4 4 4 4 4 4 4 5 5 6 7 7 8 9 10 11 11 11 11 11 11 11 10 8 8 9 10 10 8 8 8
3 5 5 5 5 5 5 5 4 4 4 4 4 4 4 3 3 3 4 4 5 6 6 7 7 8 9 9 9 10 10 10 10 10 10 10 10 11 11 10 11 11 11 10 9 9 9 9 10 9 9 9
0 3 4 5 6 5 5 5 4 5 4 5 5 4 4 4 4 5 5 6 7 8 9 9 10 10 10 11 10 10 9 9 9 9 9 9 8 8 9 9 9 8 9 9 9 9 10 10 10 10 10 10
-0 3 5 5 6 5 5 5 5 5 5 5 5 5 5 5 6 7 8 9 10 10 11 10 10 9 8 8 8 7 7 6 7 7 7 8 7 7 7 7 8 8 8 7 7 8 8 9 9 10 10 10
1 3 4 5 6 6 6 6 5 6 5 5 5 6 6 7 8 9 10 10 10 10 9 9 8 8 8 8 8 8 7 7 8 8 8 9 9 9 9 9 9 9 9 8 8 8 7 7 7 8 9 9
3 4 6 6 6 6 5 6 6 5 5 4 5 6 7 9 9 9 9 8 8 8 7 7 7 7 8 8 8 9 10 10 10 11 10 10 10 10 10 10 9 9 9 9 8 8 7 7 7 7 7 7
6 7 8 7 6 6 6 6 6 5 7 7 8 8 8 9 9 8 8 7 7 7 8 8 8 8 9 9 10 10 10 10 9 9 9 9 9 9 8 8 9 9 8 9 8 8 8 6 6 7 6 6
8 7 7 7 7 7 6 5 6 8 10 11 11 10 9 8 8 7 7 7 7 8 8 8 8 9 9 10 10 9 9 8 8 8 8 9 9 8 9 9 9 9 9 10 10 9 8 8 7 6 6 7
7 7 8 7 6 6 6 7 9 10 10 10 10 9 9 8 7 7 7 7 8 8 9 9 9 9 9 9 8 8 9 9 9 9 8 8 8 8 8 8 7 8 9 9 9 9 9 9 9 7 7 8
8 7 6 5 5 6 8 9 10 10 8 8 8 8 8 7 7 7 7 7 8 9 10 10 10 9 8 8 8 9 9 10 10 9 9 8 8 9 8 9 9 9 10 10 10 11 12 11 11 11 10 9
6 5 5 6 8 8 9 8 7 8 8 8 8 7 7 7 8 8 9 9 10 10 10 9 9 8 9 9 9 10 9 9 9 9 10 11 11 11 11 11 12 12 12 13 14 14 14 14 13 14 13 12

ECMWFFLT2_500_avort_066.txt.gz
Vorticity
5 5 5 5 5 5 5 5 6 7 8 8 9 9 10 10 11 11 11 11 10 10 10 9 9 9 9 9 9 9 8 8 8 8 9 9 9 9 9 9 9 10 9 8 7 6 6 7 7 7 6 6
5 5 5 5 5 5 5 6 7 8 9 9 10 10 11 11 11 10 10 9 8 8 8 7 8 8 9 9 9 8 8 8 8 8 9 9 9 9 8 8 7 7 7 8 7 7 6 6 6 6 6 5
5 5 5 6 6 6 7 8 9 10 10 10 11 11 11 11 11 10 10 10 9 9 9 9 9 9 9 9 8 8 8 9 9 9 9 9 9 8 8 8 7 6 6 5 6 6 6 6 6 6 6 5
5 6 6 7 8 9 10 11 11 11 11 11 12 12 12 12 12 12 12 12 12 12 11 11 10 10 10 9 9 9 9 8 9 9 9 9 8 8 7 7 6 6 6 5 5 5 5 5 6 6 6 6
6 6 8 9 10 11 11 11 12 12 12 13 13 13 14 14 14 14 14 14 14 14 13 13 12 12 11 10 10 10 9 8 8 8 8 8 7 7 6 6 6 6 6 5 5 4 5 5 5 5 4 5
7 8 10 11 11 12 12 13 13 13 14 14 14 14 14 14 15 15 14 15 14 14 14 14 13 12 12 11 10 10 10 9 9 8 8 7 7 7 6 6 5 6 6 5 5 4 5 5 5 5 4 3
10 11 12 12 12 12 13 13 13 14 14 14 14 14 15 15 15 15 14 14 14 14 14 15 14 14 13 12 11 10 10 9 9 9 8 7 6 6 6 6 5 5 5 5 5 5 4 5 6 6 5 4
12 12 13 13 13 14 13 14 14 14 14 15 15 15 15 15 14 14 14 14 13 13 13 14 14 14 14 14 14 13 12 11 10 9 9 8 7 7 6 6 5 5 5 5 5 5 5 4 6 6 5 4
13 13 13 13 13 13 13 14 14 15 15 15 14 14 14 13 13 13 12 12 12 12 12 12 12 12 13 13 14 14 14 13 12 12 11 10 9 8 7 7 6 6 6 7 7 6 7 6 6 6 4 3
13 12 12 13 13 13 13 14 14 15 14 13 12 11 10 10 9 9 9 9 9 9 10 10 10 11 11 11 11 12 14 14 14 14 14 13 12 11 10 10 9 9 9 9 9 8 9 8 8 6 3 3
11 12 12 12 13 13 14 14 14 13 11 10 9 8 7 6 5 6 6 7 7 7 8 8 8 9 9 9 10 10 11 12 13 13 14 14 14 14 13 13 12 12 12 11 10 9 9 8 6 4 3 4
11 12 12 12 13 13 14 12 11 9 9 8 7 6 4 4 4 5 5 5 6 5 6 6 6 6 6 6 7 7 8 9 9 9 11 11 11 12 11 12 11 11 10 10 9 7 6 5 4 4 5 7
12 12 12 12 12 12 11 9 8 6 6 5 4 4 4 5 5 5 5 4 5 5 5 6 6 6 6 6 5 5 6 6 7 7 8 8 8 8 8 9 8 9 8 8 8 6 7 7 7 7 8 8
12 11 11 11 12 11 9 6 5 4 4 5 5 6 6 6 6 6 6 6 6 6 7 7 7 7 6 6 6 5 6 5 6 6 7 7 8 8 8 8 8 8 8 8 9 8 8 8 8 8 7 6
10 10 10 10 10 8 6 5 3 3 4 6 6 6 6 6 7 7 7 8 7 7 6 6 6 6 5 5 5 4 4 4 4 4 4 5 5 5 5 6 7 7 6 7 7 7 6 6 6 5 5 4
8 9 10 9 8 7 5 4 3 4 5 6 6 6 6 6 6 6 6 6 5 5 4 3 3 2 3 3 2 3 2 2 2 2 2 2 2 2 2 3 3 3 3 3 4 4 3 3 3 3 3 3
8 9 9 8 7 5 4 3 3 5 6 7 7 6 6 6 6 5 5 4 3 3 2 2 2 2 2 2 2 2 2 2 2 2 2 2 2 2 2 2 2 2 2 2 2 2 2 2 1 2 1 2
8 10 9 8 6 4 3 2 2 5 6 6 7 6 5 5 5 5 5 4 4 3 3 3 2 2 2 2 1 1 2 2 2 2 2 2 2 2 2 1 1 2 1 2 2 1 2 1 1 2 1 1
7 9 9 7 5 4 2 -1 0 2 2 4 6 7 7 6 6 6 6 5 5 4 4 4 3 3 2 2 2 1 2 2 2 2 2 3 3 3 3 3 2 2 2 2 2 2 2 2 2 2 2 2
6 9 10 8 5 4 0 -3 -2 -2 -2 -0 2 4 6 8 7 7 7 6 6 5 5 5 4 4 4 4 3 3 3 3 4 4 3 3 4 4 3 4 3 3 3 2 3 3 3 3 3 3 3 3
7 8 10 10 7 4 1 -2 -3 -3 -3 -2 -1 1 4 6 7 7 7 7 6 5 6 6 5 5 5 5 4 4 4 4 4 4 3 3 5 5 5 6 7 7 7 6 6 7 7 8 7 8 8 8
8 9 9 10 8 6 4 2 0 -0 -0 -1 -0 1 4 6 7 8 7 7 7 6 6 6 5 6 5 5 5 4 5 5 6 6 6 6 7 8 8 8 9 10 11 11 10 10 10 11 11 11 11 11
8 7 7 7 7 7 6 5 5 4 3 2 3 5 6 7 8 8 7 8 7 6 6 6 6 6 7 7 7 7 8 8 9 9 10 10 9 10 10 10 8 8 8 9 9 9 9 9 10 10 10 10
5 4 4 5 6 7 8 7 6 4 4 5 6 8 8 8 8 7 7 6 6 6 6 6 7 8 9 10 9 10 10 10 10 10 10 10 9 9 9 9 9 8 7 7 7 8 8 8 9 9 9 9
4 5 6 7 8 7 6 5 4 5 7 8 8 8 8 8 8 7 6 5 5 6 7 8 9 9 10 10 10 10 10 9 9 9 9 10 10 9 8 7 9 10 9 7 6 6 7 8 9 9 8 8
6 8 8 7 6 4 4 6 8 9 9 9 8 8 8 7 6 5 5 6 7 8 9 10 10 10 10 10 10 10 9 9 9 9 9 9 9 9 9 7 8 10 10 9 7 6 5 6 8 9 9 9
7 7 6 5 5 7 9 10 10 9 9 9 8 7 6 5 4 5 7 8 9 10 10 9 9 9 9 9 10 9 9 9 9 8 8 8 8 7 8 8 7 9 10 10 10 9 8 6 6 8 10 10
6 6 6 7 9 9 9 8 9 9 9 8 6 5 5 6 7 8 8 8 9 9 8 8 8 8 8 8 9 8 8 8 8 9 8 9 9 8 8 8 8 9 10 10 10 10 10 10 9 8 8 9
7 7 8 8 8 8 8 8 8 8 7 6 7 8 8 9 9 9 8 8 8 7 7 8 8 8 8 8 8 9 8 8 8 8 8 9 9 10 10 9 9 10 10 10 10 10 11 11 10 9 8 8
8 8 8 7 7 9 9 8 6 6 7 8 10 10 9 8 7 7 7 6 6 7 7 7 7 7 7 8 8 8 8 8 8 7 8 8 8 9 10 10 10 9 10 9 10 11 11 11 11 11 11 10
8 8 7 8 8 8 7 7 7 8 9 9 8 8 7 7 6 7 6 7 7 7 8 7 7 7 7 7 7 6 7 7 7 8 8 9 9 9 9 9 10 8 8 9 9 10 10 11 12 12 13 12

ECMWFFLT2_500_avort_069.txt.gz
Vorticity
4 4 4 4 4 4 4 4 4 4 5 5 6 6 6 7 7 8 9 9 9 10 10 11 11 11 11 11 11 11 11 12 12 13 13 13 12 11 10 10 10 10 11 11 11 10 9 10 9 8 8 7
4 4 4 4 4 4 4 4 5 5 6 6 6 6 7 8 8 9 10 11 12 12 13 13 13 13 13 13 12 12 11 11 10 10 10 11 11 11 10 9 9 9 9 9 10 11 10 9 9 8 8 8
4 4 4 4 4 4 4 5 6 6 7 6 6 7 8 9 10 12 12 13 14 14 15 15 15 15 14 14 13 12 11 11 10 10 10 10 10 10 9 8 8 8 8 9 9 9 10 9 8 8 8 8
4 4 4 5 5 6 6 6 6 6 6 6 7 8 9 11 12 13 13 14 14 15 15 15 15 15 14 14 13 13 12 11 11 11 11 11 10 10 9 9 8 7 7 8 9 9 9 9 8 8 7 6
4 4 5 6 6 6 6 6 5 6 7 8 9 10 11 12 12 13 13 13 14 14 15 15 15 14 14 13 14 14 14 14 13 12 12 12 12 12 11 10 9 8 7 7 8 8 9 9 8 8 7 6
4 5 6 6 7 6 5 6 6 8 9 10 11 12 13 13 14 14 14 14 14 15 15 15 14 14 14 14 14 14 14 15 14 14 13 12 12 13 13 12 11 10 9 7 7 7 8 8 8 8 7 7
6 7 7 6 6 5 7 8 8 10 11 11 11 12 13 13 14 15 15 15 15 15 15 15 15 15 15 15 14 14 14 14 15 15 14 14 13 12 12 12 12 11 10 9 8 7 7 7 7 8 8 7
8 7 6 6 6 7 8 9 9 11 11 11 11 12 13 14 14 14 14 15 15 15 14 14 14 14 14 14 14 13 14 13 14 14 15 15 14 14 12 12 11 11 11 10 9 8 7 7 7 7 7 8
7 6 5 5 7 8 9 10 10 10 10 10 11 13 14 14 14 14 14 14 14 13 12 11 10 10 10 10 10 10 11 11 11 12 13 14 14 15 14 14 13 11 11 10 10 9 8 7 7 7 7 7
5 5 5 6 8 9 10 10 9 9 10 10 12 13 13 13 13 13 12 11 10 9 8 7 7 6 6 6 7 7 8 9 9 9 10 11 12 13 14 15 15 14 13 12 11 10 9 8 7 7 7 6
6 6 7 8 9 9 10 9 8 9 10 11 12 12 12 12 11 10 8 7 6 6 5 5 5 4 5 6 6 6 6 6 6 7 8 8 9 9 11 12 13 14 15 15 14 13 11 10 9 9 9 8
7 8 9 10 10 10 9 9 9 9 11 12 12 11 11 11 9 7 5 5 5 5 5 5 5 5 5 6 6 6 5 5 4 5 5 5 6 6 7 7 8 9 11 13 14 14 14 13 13 12 11 11
9 9 10 10 10 10 9 9 9 10 11 11 10 10 10 10 8 5 4 4 5 5 6 6 6 7 7 6 7 6 5 6 5 5 5 5 5 5 5 5 5 5 5 7 8 10 11 12 13 13 13 12
8 9 9 10 10 9 9 9 10 10 10 9 10 10 10 9 7 5 4 3 4 5 6 7 7 7 7 7 7 7 7 7 7 7 6 6 6 6 6 6 6 6 5 5 5 5 6 6 8 9 10 11
10 10 10 10 9 9 9 9 8 8 8 8 10 11 10 9 7 5 3 3 5 6 6 7 7 7 7 7 8 7 8 8 8 8 8 7 6 6 6 6 7 6 6 7 7 7 7 6 6 6 6 6
11 11 11 11 10 10 8 7 7 7 8 9 12 12 9 8 6 5 3 3 5 6 6 7 6 6 6 6 7 7 7 7 7 6 6 6 5 5 5 4 5 5 5 6 6 6 7 7 7 7 7 7
11 12 11 10 9 8 6 6 6 7 8 9 12 12 9 7 6 4 2 2 4 5 4 6 7 7 7 6 5 5 5 5 5 5 4 5 4 3 3 3 3 3 2 3 4 4 4 4 4 5 5 6
10 10 9 7 7 5 4 5 5 6 7 7 10 11 10 8 6 4 2 1 1 1 1 2 5 7 8 8 6 5 5 4 4 4 3 3 3 3 3 2 2 2 2 2 2 3 2 2 2 2 2 3
8 7 6 5 5 4 3 4 5 6 7 7 7 9 10 9 7 5 3 -0 -2 -2 -2 -2 -1 3 6 7 8 7 7 6 5 5 4 4 3 3 3 2 3 3 2 2 2 3 3 2 2 2 2 2
7 6 6 5 5 5 5 5 6 8 9 9 9 9 10 10 9 8 6 3 0 -1 -1 -1 -1 1 3 4 6 7 8 8 7 7 5 6 5 3 4 3 3 4 4 3 3 3 3 3 3 2 3 3
7 6 6 5 6 6 6 7 7 9 9 9 9 8 8 9 10 9 8 8 6 5 5 5 3 4 5 5 5 7 8 8 8 8 6 6 7 6 4 4 5 5 5 4 3 3 3 4 4 3 4 3
7 7 7 6 7 7 7 7 8 8 8 8 7 6 7 8 8 8 9 9 8 7 7 7 6 6 8 7 7 7 8 9 9 9 8 6 7 8 5 4 5 5 6 6 4 3 4 5 4 3 5 5
7 7 8 8 7 7 6 6 7 7 7 7 7 7 7 7 7 7 6 6 7 6 6 8 8 8 9 9 8 7 7 9 9 8 8 6 5 7 7 4 4 5 6 6 6 6 6 7 6 5 5 6
7 7 7 6 5 5 5 6 6 7 7 7 7 7 7 6 6 6 6 6 7 8 8 8 9 9 9 9 8 7 7 7 7 7 7 7 6 6 8 8 7 7 7 7 7 8 8 9 10 10 9 9
5 5 4 4 5 6 6 7 7 8 8 8 8 7 7 6 6 7 7 8 8 8 8 8 9 9 9 9 7 6 6 6 7 8 8 8 8 7 8 9 11 11 8 7 7 8 8 9 9 9 10 10
4 5 6 7 8 9 9 9 9 8 8 7 7 7 7 7 7 7 8 8 8 9 9 9 8 7 7 6 7 7 7 8 9 9 10 10 10 10 9 7 9 12 11 9 9 8 8 8 9 11 10 9
7 8 9 10 10 10 10 9 8 7 7 7 8 8 8 8 7 8 8 8 8 7 7 7 6 6 7 8 9 9 9 10 10 9 10 10 9 10 10 8 8 10 13 11 10 10 8 5 5 7 10 11
8 9 9 9 9 8 7 7 7 8 8 8 7 8 10 11 10 10 9 8 8 7 6 6 7 8 9 10 10 10 9 9 9 8 8 9 9 8 8 8 7 8 10 11 11 11 9 8 5 2 4 9
7 7 6 6 6 7 7 7 8 9 8 8 8 9 10 11 12 11 10 9 8 8 8 8 9 9 8 9 9 8 8 7 7 7 7 7 8 8 8 7 7 7 8 10 12 12 12 11 9 6 3 3
7 7 6 6 7 7 7 6 6 7 6 6 6 5 5 5 7 8 9 9 9 9 9 9 9 9 8 7 6 6 6 6 5 6 7 7 8 8 9 8 7 7 8 9 10 12 13 12 12 9 7 6
7 6 6 7 7 7 8 7 5 6 6 6 6 5 6 7 7 8 8 7 7 7 6 6 6 6 6 5 5 6 5 6 6 6 6 7 7 7 8 9 8 7 7 8 8 9 10 11 12 12 9 9

ECMWFFLT2_500_avort_072.txt.gz
Vorticity
4 4 4 3 4 4 4 4 4 4 4 4 4 4 4 4 4 4 4 4 5 5 6 6 6 7 7 7 7 8 8 9 10 10 10 10 10 10 11 11 10 10 11 12 12 12 12 12 12 12 11 11
4 4 4 4 4 4 4 4 4 4 4 4 3 3 4 3 4 4 5 5 6 6 7 7 7 7 7 8 9 10 11 12 13 13 14 14 13 12 12 12 12 12 11 11 11 12 12 12 12 12 11 11
4 4 4 4 4 4 4 4 4 4 3 3 3 3 3 4 4 5 6 6 7 7 7 7 7 8 9 11 12 13 14 15 15 15 15 16 16 15 14 13 12 13 12 11 10 10 10 11 11 11 10 10
3 3 4 4 4 5 5 4 4 3 3 2 3 3 3 4 5 6 6 6 7 7 7 7 8 10 12 14 14 15 16 16 16 16 16 16 16 16 16 15 13 12 12 11 10 9 9 10 10 10 10 9
3 4 4 5 5 5 5 3 3 2 2 2 3 3 4 5 6 6 7 7 7 8 8 9 10 12 14 14 15 16 16 17 18 18 18 17 17 16 15 15 14 12 11 11 10 9 9 9 10 10 10 10
4 5 5 6 6 5 4 3 2 2 2 3 3 4 5 6 7 8 8 8 9 9 9 10 12 13 14 15 16 17 17 18 18 18 18 17 17 16 15 15 15 14 13 11 11 10 10 10 10 10 10 10
5 6 6 6 5 4 3 2 2 2 3 3 3 4 6 7 8 8 8 9 9 9 10 11 12 14 15 17 18 19 18 17 16 16 17 17 17 17 17 16 16 16 16 14 12 11 11 10 10 10 10 9
5 6 5 5 4 3 3 3 3 3 3 4 4 6 7 8 8 8 8 8 8 9 10 12 13 15 17 19 19 18 17 17 16 16 16 16 16 17 18 17 17 17 18 18 16 14 12 12 12 12 12 10
5 5 5 4 4 3 3 3 3 4 4 5 6 7 8 8 8 8 8 8 9 9 10 11 13 15 17 18 17 16 15 14 14 13 12 12 12 13 14 15 15 15 16 18 18 17 15 13 12 12 13 12
5 5 5 4 4 4 5 5 5 6 7 7 8 8 8 9 9 9 9 9 9 9 10 12 14 15 16 15 14 13 10 10 10 9 8 8 8 9 9 11 12 12 12 13 15 17 16 15 13 12 12 12
5 5 5 6 6 6 6 6 6 7 7 8 8 9 9 9 9 9 9 9 9 11 13 14 15 15 15 13 11 9 6 6 6 6 6 6 7 7 8 8 10 10 10 11 11 13 14 15 15 14 12 11
6 7 7 8 7 6 6 6 7 7 8 9 9 9 9 9 9 8 9 10 11 12 13 13 13 14 13 10 8 6 4 4 5 6 6 6 6 7 7 7 7 8 8 10 10 10 11 12 13 15 14 14
8 8 7 6 5 6 6 7 8 8 9 10 10 9 9 9 9 9 10 10 10 11 11 12 12 12 11 8 6 4 3 3 5 6 6 7 7 7 7 7 6 6 6 8 8 8 9 9 10 11 13 14
8 6 6 6 7 7 7 8 9 10 10 10 9 9 9 9 9 10 10 9 9 10 10 11 13 13 10 7 6 4 3 3 5 7 7 7 7 7 7 7 7 7 7 7 8 8 7 8 8 8 9 10
6 6 7 7 7 7 8 9 10 10 9 9 9 9 9 9 9 10 9 8 9 10 9 10 14 14 10 8 6 4 2 3 6 7 8 8 7 7 7 7 8 7 7 7 8 8 7 8 7 7 7 7
7 7 7 7 7 8 9 10 9 9 9 9 10 10 10 9 8 9 8 7 9 10 9 9 12 14 12 9 7 5 2 2 4 5 6 8 7 7 7 6 7 7 7 7 7 7 7 8 7 7 7 7
6 6 7 8 9 10 10 10 11 11 12 11 11 10 9 7 7 8 7 7 9 10 9 8 9 12 13 12 8 5 3 1 2 2 2 4 5 6 7 7 7 7 6 6 6 5 6 5 6 7 6 6
7 8 9 10 11 11 12 12 13 13 12 11 10 9 7 6 6 7 6 7 9 9 9 9 8 10 12 13 10 6 5 2 1 1 -0 0 1 2 4 5 7 8 6 6 5 5 5 4 4 4 3 5
10 11 12 12 12 12 12 12 11 11 9 8 7 7 6 6 6 6 6 7 8 8 9 9 8 8 9 11 10 8 7 5 3 2 -0 -0 -1 -1 1 2 4 7 7 7 6 6 5 4 4 3 3 3
13 13 13 12 12 12 11 10 9 8 7 7 6 6 6 6 6 6 7 7 7 8 8 8 7 7 7 8 9 9 9 8 7 5 2 2 2 -1 1 2 2 4 5 6 7 7 6 5 5 3 3 4
13 12 11 11 11 10 9 7 7 7 6 6 6 6 6 6 7 6 6 6 6 6 7 8 8 8 9 9 9 9 9 9 9 9 6 5 7 4 3 5 4 5 5 4 4 6 7 7 6 5 4 4
10 10 10 10 9 8 8 8 7 7 6 6 6 6 5 5 5 4 5 5 6 7 8 9 10 10 10 10 10 10 9 9 9 10 8 7 9 10 7 7 7 7 7 6 4 5 7 8 7 6 6 6
9 9 9 9 8 8 7 7 6 6 6 5 5 5 5 5 5 6 7 8 9 10 10 10 10 9 10 10 10 10 9 9 10 10 9 7 7 10 9 7 8 9 8 7 6 5 7 8 8 7 7 7
9 9 9 8 7 7 6 5 5 4 5 5 6 7 8 9 11 11 11 11 10 9 8 8 8 7 8 9 8 8 8 8 9 9 9 8 6 7 8 7 7 9 9 7 5 6 6 6 7 7 7 7
8 7 7 6 6 6 4 4 3 4 6 7 8 9 10 11 12 12 11 11 10 9 8 6 6 6 6 7 6 6 6 7 7 8 8 8 7 6 6 6 6 8 8 6 5 4 4 5 6 6 6 7
7 7 7 6 5 4 3 4 5 6 7 8 8 8 9 8 8 8 7 7 8 8 8 8 7 7 6 6 6 5 6 6 6 7 7 7 7 7 6 4 6 7 7 6 6 5 3 3 6 8 8 7
7 7 6 5 4 4 5 6 8 9 8 7 7 7 8 8 7 7 7 7 7 6 7 8 8 8 8 8 9 8 7 7 7 7 7 7 7 8 8 6 6 8 8 7 7 7 5 3 4 7 10 10
6 6 5 6 6 6 7 8 8 8 8 9 9 8 8 8 9 9 9 7 7 7 8 9 10 10 10 10 11 12 11 11 11 10 10 10 9 9 9 10 9 10 11 11 10 9 8 7 5 4 7 10
6 6 6 6 6 8 10 9 8 7 8 9 9 8 7 7 9 9 9 7 7 7 8 9 11 11 11 11 11 12 12 11 11 11 11 11 11 11 10 10 10 10 11 12 12 11 11 10 8 5 4 6
6 6 5 5 6 7 6 4 5 6 6 4 3 4 4 3 6 7 7 6 6 8 9 9 10 11 11 11 10 11 11 11 10 11 11 11 11 10 10 10 9 9 9 10 11 12 13 12 11 9 7 6
5 6 6 7 8 7 6 6 5 5 6 5 3 1 1 3 5 5 5 7 9 11 12 12 11 11 11 10 10 10 10 10 9 9 9 10 10 10 9 9 8 7 7 8 9 9 10 11 12 11 9 9

ECMWFFLT2_500_avort_078.txt.gz
Vorticity
4 5 6 7 7 7 7 7 7 7 6 7 7 6 6 6 5 5 5 5 5 5 5 5 4 4 4 4 4 4 4 5 5 5 5 4 5 5 5 5 5 5 5 5 6 6 5 5 5 5 5 4
7 7 7 7 7 7 7 7 6 6 6 6 6 5 5 5 5 5 5 5 5 5 5 5 5 5 4 4 4 5 5 5 4 4 4 4 4 4 3 4 4 4 5 5 5 5 5 5 5 4 5 5
8 7 7 6 6 6 6 5 5 5 4 4 4 4 4 5 5 5 5 5 5 5 5 5 5 5 5 5 5 5 5 4 4 3 3 3 3 3 3 4 4 4 4 5 5 5 5 4 4 4 4 4
6 5 5 5 5 4 4 3 4 4 4 5 5 5 5 5 5 6 6 6 6 6 6 6 6 6 6 5 5 5 4 4 4 3 3 3 3 3 4 4 4 5 5 5 5 5 5 4 4 4 4 4
4 4 4 3 3 3 4 4 5 5 6 6 6 6 6 6 6 6 6 6 6 6 6 6 6 6 6 5 5 5 4 4 4 4 4 3 4 4 4 5 5 6 6 6 6 6 6 5 5 5 4 4
4 4 4 4 5 5 5 6 6 6 6 6 6 6 6 6 6 6 6 6 6 6 5 5 5 5 5 5 5 5 4 4 4 4 4 4 4 5 5 6 6 7 7 7 7 7 6 6 5 5 5 4
5 5 6 6 6 6 6 6 7 6 6 6 6 6 6 6 5 5 5 5 5 5 5 5 5 6 6 6 5 5 5 5 5 5 5 5 5 6 7 7 8 8 8 7 6 6 6 6 6 6 6 6
6 7 6 6 6 6 7 7 7 6 6 6 5 5 4 4 4 4 4 5 5 5 6 6 6 6 6 6 6 6 6 5 5 5 5 6 6 7 8 8 9 8 7 6 6 6 6 7 8 8 9 10
7 7 6 6 7 7 7 6 6 5 4 4 4 3 3 3 4 5 5 5 6 6 6 6 6 6 7 7 7 6 6 6 5 5 5 6 7 8 9 9 9 8 7 6 6 6 6 8 10 11 12 14
6 6 6 6 6 6 6 5 5 4 4 4 4 4 4 4 5 6 7 7 7 7 7 7 8 7 8 7 7 6 6 6 5 6 7 7 9 9 9 9 8 7 7 7 8 8 8 10 12 13 15 17
5 5 5 5 5 5 5 5 4 4 4 4 4 4 5 6 7 8 8 8 8 8 8 8 8 7 7 6 6 6 6 6 7 7 8 9 10 10 9 8 7 7 8 8 10 11 11 13 14 15 15 17
5 5 5 5 5 5 5 5 5 5 5 5 5 6 7 8 8 8 8 8 8 8 8 7 7 7 6 6 6 6 7 8 9 9 9 9 8 8 8 7 8 8 9 11 12 13 13 15 15 15 15 16
5 5 6 6 5 6 6 6 5 5 5 6 7 7 8 8 8 8 8 8 8 8 7 7 7 7 7 7 7 8 8 9 9 9 8 7 7 7 7 8 10 11 13 14 14 13 14 14 14 14 14 15
6 6 6 6 6 6 5 5 5 6 7 7 8 8 9 9 9 8 8 8 8 7 7 7 6 7 7 8 9 9 9 8 8 7 7 7 8 8 10 12 14 15 15 15 13 13 13 13 13 14 13 13
7 7 6 6 6 6 6 6 7 8 8 9 9 9 9 9 9 8 8 8 8 7 7 7 7 8 9 9 9 9 8 8 8 8 8 9 10 11 13 14 15 14 14 13 12 12 12 12 12 13 14 12
6 6 6 6 7 7 8 8 8 9 9 9 10 10 9 9 9 8 8 8 8 7 7 7 8 9 9 9 9 9 9 8 8 9 9 11 12 13 13 13 13 12 11 11 11 11 11 11 12 13 15 13
7 8 8 8 9 9 9 9 9 10 10 10 10 9 9 8 8 8 7 7 7 7 7 8 9 9 8 8 9 8 8 8 8 10 10 11 12 12 12 11 11 10 9 9 10 11 11 11 12 12 15 14
9 9 9 9 9 10 10 10 10 10 10 10 9 9 8 8 7 7 7 7 7 7 8 8 8 8 8 8 8 8 8 9 9 10 10 10 10 10 9 9 9 9 8 9 9 10 10 11 12 12 14 15
9 9 10 10 10 10 10 11 10 10 10 9 9 8 8 7 7 7 7 7 7 8 8 8 9 8 8 8 8 8 8 8 8 8 8 8 8 8 7 7 7 7 7 7 7 7 8 9 11 12 12 14
10 10 10 11 11 11 11 11 10 10 9 9 9 8 8 8 7 7 7 7 8 9 9 9 8 8 8 7 7 7 7 7 7 7 7 7 7 6 6 5 5 5 5 5 4 4 6 7 8 10 11 12
11 11 11 11 11 11 11 11 10 10 9 9 8 8 8 7 7 7 7 8 9 9 9 8 8 7 6 6 6 6 6 6 6 6 6 5 5 4 4 4 4 4 4 4 5 5 6 8 9 9 10 11
11 11 11 11 11 11 10 10 9 9 8 7 7 7 7 7 6 7 8 9 9 9 8 7 7 6 5 5 5 5 5 5 5 5 4 5 4 4 3 4 4 6 6 7 7 8 9 9 11 11 11 11
12 12 11 11 11 10 9 9 8 7 7 7 7 6 5 6 7 8 9 9 9 8 7 6 5 5 4 4 4 4 4 4 5 5 4 4 4 4 5 6 7 8 8 9 9 9 10 10 10 11 11 11
11 11 10 10 10 9 8 8 7 6 7 6 6 5 5 7 8 9 9 9 8 7 6 5 4 4 4 4 4 4 4 4 4 5 5 5 6 7 8 9 9 8 8 8 7 7 7 8 8 9 10 9
9 9 9 9 8 7 7 6 6 6 7 6 5 5 6 9 10 10 9 8 7 6 5 5 3 3 3 3 3 4 4 4 5 6 7 8 8 8 8 8 8 8 7 7 7 7 7 7 7 7 8 8
8 8 8 7 7 6 6 6 7 7 7 6 5 6 9 11 11 10 9 8 7 6 4 3 3 2 3 3 4 4 5 5 6 7 8 7 7 7 7 8 7 8 8 8 8 8 8 8 8 8 8 7
7 8 8 7 7 6 6 6 6 7 6 5 6 8 10 11 10 9 8 7 6 5 4 4 3 3 3 4 4 4 5 5 6 6 6 7 7 8 8 8 8 8 9 9 9 8 9 9 8 9 9 8
8 9 9 8 8 7 6 7 7 8 7 7 9 10 11 10 9 8 6 5 4 4 3 3 3 4 5 5 5 6 5 5 6 6 7 9 9 9 8 8 10 10 9 10 10 10 10 10 9 10 10 10
9 9 10 10 9 8 8 9 9 7 7 8 11 11 10 8 6 4 3 2 2 3 4 5 6 7 8 7 7 6 6 6 7 9 10 11 10 9 10 9 10 10 10 10 11 12 11 11 10 10 10 11
8 8 8 8 8 8 8 7 6 5 6 7 7 7 5 5 5 5 6 7 7 7 8 8 8 8 8 7 7 8 10 12 12 12 12 12 11 11 12 10 9 10 11 11 11 12 13 12 11 9 9 10
8 7 7 6 5 5 4 3 4 4 5 4 3 4 5 6 7 8 8 8 9 8 8 8 8 8 8 8 9 12 13 14 13 12 11 11 11 11 11 10 9 8 9 11 12 11 12 13 13 11 9 9

ECMWFFLT2_500_avort_084.txt.gz
Vorticity
7 6 5 5 5 4 3 3 3 2 2 2 2 2 2 3 3 3 3 3 3 3 5 6 8 8 7 6 5 5 5 5 5 5 5 5 5 5 5 4 4 3 3 3 3 3 3 3 3 2 2 2
8 7 7 7 6 5 5 4 4 4 3 3 3 3 4 4 4 4 4 5 5 6 7 7 7 6 5 5 5 5 5 5 5 5 5 5 5 4 4 4 4 4 3 3 3 3 3 3 3 3 3 3
7 7 6 6 6 5 5 5 5 5 4 4 4 4 4 4 5 5 6 6 6 6 6 5 5 4 4 4 4 4 4 4 4 4 4 4 4 3 4 3 3 4 3 3 3 3 3 2 3 3 3 3
5 5 5 5 5 5 5 5 5 5 4 5 4 5 5 5 5 5 5 5 5 4 4 3 3 3 3 3 4 4 4 4 4 4 4 3 3 3 3 3 3 4 4 4 4 3 3 3 3 3 3 3
5 5 5 5 5 5 5 5 5 5 5 5 5 5 5 5 5 4 4 3 3 3 3 3 3 3 3 4 4 4 4 4 4 4 4 4 4 4 4 4 4 4 4 5 5 5 5 5 4 4 5 4
4 3 3 4 4 4 4 5 5 5 5 5 5 5 5 5 4 4 4 4 4 4 4 5 5 5 4 5 5 5 5 5 5 5 5 5 5 5 5 5 5 5 5 5 5 6 6 6 6 6 6 6
2 3 2 2 2 3 3 4 4 4 4 4 4 4 4 4 4 5 5 4 6 5 5 6 6 5 5 5 5 5 6 6 6 6 6 6 6 6 6 6 6 6 6 6 6 6 6 6 6 6 7 7
3 3 3 3 3 3 3 3 4 3 3 4 4 3 4 4 4 4 5 4 5 5 5 5 6 6 5 6 6 6 6 6 7 7 7 7 7 7 7 7 6 6 6 6 6 6 6 6 6 6 6 6
4 4 4 4 4 4 4 4 4 4 3 4 4 4 4 5 5 4 5 4 5 6 6 6 6 7 6 6 7 7 6 6 7 7 8 7 7 7 6 7 6 6 6 5 5 5 5 6 6 6 5 6
4 4 5 4 4 4 5 4 4 5 4 4 5 5 5 5 5 5 6 5 4 5 6 5 5 6 6 6 6 6 6 6 6 6 6 6 6 6 6 6 6 6 5 5 5 5 5 5 5 5 5 5
5 5 5 4 5 5 4 4 5 6 5 5 6 7 6 5 5 5 6 6 5 5 5 6 5 5 5 5 6 6 6 6 7 6 6 6 6 6 6 6 6 6 6 6 5 5 6 6 6 6 6 6
5 6 6 6 6 5 5 5 6 6 6 6 5 6 6 5 6 6 5 6 6 6 6 6 6 6 6 5 5 5 5 5 6 6 6 6 6 6 6 6 7 6 6 6 6 6 7 7 7 7 7 7
6 6 5 4 4 5 6 6 6 5 6 6 4 5 6 6 6 6 6 6 6 6 6 6 6 6 6 5 5 5 5 5 5 6 6 6 6 6 6 6 7 6 6 7 7 7 7 8 8 8 7 7
7 6 5 5 6 7 7 6 6 6 5 6 5 5 5 6 6 6 6 6 5 6 6 6 6 6 6 6 6 6 6 6 6 7 7 7 7 7 7 7 7 7 7 7 8 8 8 9 9 9 8 8
7 7 8 8 8 7 6 6 6 6 6 6 6 6 6 6 7 7 7 7 7 7 7 7 7 7 7 7 7 7 7 7 7 7 7 7 7 7 8 8 8 8 8 8 8 8 8 8 8 9 9 8
7 7 7 7 7 7 7 7 7 7 8 7 7 7 7 7 7 8 8 8 8 7 7 7 7 7 7 7 7 8 8 7 7 7 7 7 7 7 8 8 9 8 8 8 8 9 8 7 7 7 8 8
7 7 7 7 7 7 7 7 8 8 8 8 8 8 8 8 7 7 8 8 8 8 8 8 8 8 8 8 8 8 8 7 7 7 7 8 8 8 8 8 9 9 9 8 8 8 8 7 7 6 7 7
8 8 8 8 7 7 7 7 7 7 7 7 8 8 7 8 8 7 7 8 8 8 8 8 9 8 8 8 8 8 8 8 8 8 8 8 8 9 9 9 9 9 9 9 8 7 7 7 7 6 7 7
9 9 8 8 8 8 7 7 8 8 8 8 8 9 8 8 9 9 8 8 8 8 8 8 8 8 8 8 8 8 8 9 8 8 8 8 9 9 10 10 10 9 9 9 8 8 8 7 7 7 7 7
9 9 9 9 9 9 9 9 9 9 9 10 10 10 10 10 9 10 9 9 9 8 8 8 8 8 8 8 8 8 9 9 9 9 9 10 10 10 11 11 11 11 10 9 9 9 9 8 9 8 8 8
9 9 9 9 9 9 9 10 10 10 10 11 11 11 10 10 10 9 9 9 9 9 9 8 8 8 8 8 8 8 10 10 10 11 11 12 12 12 11 11 10 10 10 10 9 9 9 9 9 9 8 9
6 6 7 7 8 9 9 10 10 10 10 10 10 10 9 9 9 9 9 9 8 9 9 9 9 10 10 10 9 10 11 11 12 12 12 12 12 12 11 10 9 8 9 9 8 8 9 9 9 8 8 9
5 6 7 7 8 8 9 9 8 8 9 8 8 9 9 8 9 9 9 10 10 10 11 11 11 11 11 11 11 11 11 12 12 13 13 13 12 11 11 10 8 7 7 8 8 8 7 8 8 9 9 9
8 8 9 9 9 9 9 9 9 9 9 9 9 11 12 11 10 11 11 11 11 10 10 10 10 10 11 10 11 11 11 12 12 12 12 12 11 9 8 8 8 7 7 7 7 7 7 7 8 8 9 9
12 12 11 11 11 10 10 10 11 11 10 11 10 11 13 12 10 10 10 10 9 9 9 9 10 10 10 10 10 10 10 10 11 11 10 9 9 7 6 6 6 7 7 7 6 6 6 6 7 7 7 8
12 12 11 11 11 11 11 11 11 11 10 10 10 10 10 10 8 6 7 9 8 9 9 9 9 10 11 11 11 11 10 10 10 9 9 8 7 6 6 5 4 5 6 7 6 5 5 5 6 7 7 7
11 10 10 10 10 10 10 10 11 11 11 10 9 9 7 7 7 6 6 8 9 9 10 10 9 9 9 9 10 10 10 10 9 8 7 6 6 5 5 5 4 5 6 7 6 6 5 5 5 6 7 7
12 12 13 12 12 12 11 10 10 11 11 10 9 8 8 8 9 9 8 9 10 10 9 9 9 9 9 8 8 7 7 7 8 8 7 6 6 5 4 4 4 5 6 6 6 6 6 6 6 5 5 6
14 14 14 14 13 13 13 13 12 11 11 12 11 10 9 9 10 11 11 10 10 10 9 8 7 8 9 8 8 7 6 5 5 6 7 7 6 5 5 4 5 6 6 5 5 5 6 6 6 5 5 5
13 13 14 14 13 13 12 13 13 13 12 12 12 12 12 12 11 11 11 11 9 8 9 8 7 7 8 9 8 8 8 7 6 6 7 8 9 8 7 7 7 8 7 7 7 7 7 6 6 6 6 6
11 10 10 10 10 10 10 10 10 11 11 11 10 10 11 12 12 11 11 12 11 9 10 9 8 7 9 10 10 10 9 9 8 7 8 9 10 10 10 10 10 9 8 8 9 10 10 8 8 8 6 6

ECMWFFLT2_500_avort_087.txt.gz
Vorticity
9 9 9 8 8 8 7 7 7 7 5 4 3 3 3 3 3 3 3 2 2 2 2 1 1 2 2 2 2 2 2 2 2 2 3 4 4 4 4 4 4 5 5 5 5 5 5 5 5 5 5 5
9 9 9 8 8 7 7 7 7 7 6 5 4 3 3 3 2 2 3 2 2 2 2 2 2 2 2 2 2 2 2 3 2 3 3 4 4 4 4 4 5 5 5 6 6 6 5 5 5 5 5 5
8 8 8 7 7 7 7 7 7 7 6 6 5 5 4 4 3 3 3 3 3 2 3 2 3 3 3 3 3 3 3 4 4 4 4 5 5 5 5 5 5 5 5 5 5 6 6 5 5 5 5 5
5 6 6 6 6 6 7 6 7 7 6 6 6 6 5 5 5 5 5 5 4 3 4 4 4 4 4 5 5 5 5 5 5 5 5 6 6 5 5 5 5 5 4 4 4 4 5 5 5 4 4 4
3 3 3 4 4 5 5 5 5 6 6 6 6 6 6 5 5 5 5 5 6 5 5 5 5 5 5 6 6 6 5 5 5 6 6 6 5 5 4 4 4 4 4 4 4 4 4 4 4 4 4 4
1 2 1 2 2 2 3 3 4 4 4 4 5 6 5 5 5 5 5 6 7 6 6 6 6 6 6 6 6 6 5 5 5 6 6 5 5 4 4 4 4 4 4 4 4 4 4 4 4 4 4 4
2 1 2 2 2 2 2 2 2 3 3 3 3 4 4 4 4 4 4 4 5 5 5 5 5 5 5 5 5 5 5 5 5 5 5 5 4 4 4 4 4 4 4 4 4 4 4 4 4 3 4 4
3 3 4 4 4 4 4 4 4 3 3 3 3 3 4 3 3 2 2 2 2 3 3 3 4 3 3 3 3 4 4 4 4 3 3 4 4 4 4 4 4 4 4 4 4 4 4 4 4 4 4 4
4 6 6 5 5 5 5 5 4 4 4 4 4 4 4 3 2 2 2 2 3 3 4 3 3 3 3 2 2 3 3 3 4 4 4 3 4 4 4 5 5 4 5 5 5 5 4 4 4 4 4 5
6 7 6 6 5 5 4 3 3 3 4 4 4 3 3 4 4 5 5 4 4 4 4 4 4 4 4 5 4 4 4 4 4 4 5 4 4 4 4 5 5 5 5 5 5 6 6 6 5 5 4 4
5 4 5 5 4 4 3 3 3 3 3 4 4 4 4 5 5 5 6 5 4 4 4 5 6 6 6 6 6 5 5 4 4 4 5 5 4 4 5 4 5 5 5 6 6 6 6 6 6 6 6 6
4 4 4 3 3 2 2 3 3 3 3 3 4 5 5 6 5 5 5 6 6 6 6 6 6 6 6 6 6 6 6 6 7 7 6 5 5 5 6 5 5 5 5 5 6 6 6 6 6 6 6 6
5 5 5 4 4 3 3 3 3 3 3 3 4 5 5 5 5 5 5 5 5 6 6 6 6 6 6 6 6 5 6 7 7 7 6 6 7 7 6 6 6 6 6 5 5 5 5 5 5 5 5 5
7 6 6 6 6 6 6 6 6 6 6 6 5 6 6 5 5 5 5 5 5 6 6 6 7 7 7 6 6 6 7 6 5 5 6 7 7 7 7 6 6 6 6 6 6 5 5 6 5 5 5 4
8 7 7 6 7 8 8 9 8 8 7 7 7 5 5 6 7 7 7 7 6 6 6 6 6 6 6 6 7 7 7 6 6 6 6 6 6 6 7 7 7 7 6 6 7 6 6 6 6 6 6 6
8 8 7 7 7 7 7 7 7 7 7 7 7 7 7 6 7 7 8 8 7 6 6 6 5 5 5 5 6 6 6 7 6 6 6 7 7 7 7 7 7 7 7 7 7 7 7 7 7 7 6 7
8 8 8 7 7 7 7 7 7 8 8 8 8 8 9 9 8 7 7 7 8 7 7 6 6 6 6 6 6 6 6 6 6 7 7 6 6 7 7 7 6 6 7 6 7 7 7 7 7 7 7 6
8 8 8 8 8 8 8 8 7 8 8 8 7 7 8 8 8 7 7 7 7 8 8 8 8 7 7 8 7 7 7 7 7 7 7 7 7 7 7 6 6 6 6 7 7 7 8 8 7 8 7 7
10 10 10 10 9 9 9 9 9 9 9 9 8 8 7 7 8 8 8 8 8 8 9 8 8 8 8 8 8 8 8 8 8 7 7 7 7 7 7 7 7 7 7 7 7 7 8 8 8 8 8 8
10 9 9 10 10 10 10 10 11 11 11 11 11 11 10 10 9 9 10 9 10 10 10 10 10 10 9 9 9 9 9 9 9 8 7 8 7 7 7 8 8 7 8 7 7 8 8 8 9 9 9 9
9 10 10 10 9 9 9 9 9 9 9 9 9 9 9 10 9 9 10 10 10 9 10 11 10 11 10 10 10 10 10 9 9 9 9 9 9 9 7 8 8 8 8 8 7 7 8 8 8 9 9 9
9 9 9 9 10 9 10 9 9 9 9 9 9 9 9 9 8 8 9 9 9 8 8 9 9 9 10 10 9 9 8 9 9 10 9 9 9 10 9 7 7 8 8 8 8 7 7 8 9 9 10 10
10 11 10 10 10 10 10 10 10 10 10 9 9 9 9 9 9 8 8 8 8 7 7 7 8 8 8 9 8 8 8 8 9 9 9 9 8 8 10 9 8 8 9 8 8 8 8 9 10 10 10 10
11 11 11 12 11 11 11 11 10 10 9 9 8 8 9 9 9 8 8 9 9 8 8 7 7 7 8 8 8 8 8 8 8 8 9 10 9 8 9 12 12 10 9 9 9 10 10 10 10 10 11 11
14 13 12 11 11 10 10 10 10 10 10 10 9 8 8 9 9 9 9 9 10 11 11 10 10 9 9 9 9 9 9 9 10 10 10 9 10 10 9 10 12 13 11 10 10 11 10 11 11 10 11 11
15 16 16 16 16 14 13 13 12 11 12 12 12 11 10 10 10 10 10 10 10 10 11 12 12 12 12 13 12 11 11 10 10 10 11 10 10 11 10 8 7 10 13 12 10 9 9 10 11 11 11 9
9 11 14 16 18 19 19 19 19 18 17 15 15 15 14 14 13 12 12 11 11 11 11 11 11 11 12 13 13 13 12 11 10 9 9 11 10 10 10 10 9 9 10 11 10 10 10 8 9 10 11 10
10 6 6 7 9 11 13 15 17 19 20 20 20 20 19 19 18 17 16 15 15 14 14 13 12 12 11 12 13 13 12 11 11 11 10 10 10 9 9 10 12 12 11 11 11 11 11 10 9 8 8 10
23 18 12 8 5 4 5 6 9 11 12 14 17 18 18 18 19 19 18 17 17 17 16 16 15 13 11 12 14 14 13 11 10 11 12 12 12 12 11 9 9 12 14 14 14 12 12 12 11 10 8 7
25 26 24 20 15 10 6 3 2 4 4 5 7 9 10 11 12 13 14 13 14 16 15 15 15 14 13 12 13 15 15 14 12 11 12 13 14 14 15 13 10 9 10 13 15 15 13 11 10 10 10 9
15 18 20 22 22 21 17 12 7 4 1 -1 -1 2 3 5 6 7 8 9 10 11 11 11 11 11 11 12 12 13 14 15 15 13 12 12 13 13 14 14 13 11 8 8 12 15 15 14 12 10 8 8

ECMWFFLT2_500_avort_090.txt.gz
Vorticity
10 10 11 11 10 10 11 10 10 10 10 10 9 9 8 8 8 8 6 5 4 3 3 3 3 4 4 4 3 3 3 3 3 2 2 2 2 1 1 2 2 1 -0 1 2 2 3 4 5 5 5 5
6 6 7 7 7 7 8 9 9 10 10 10 9 9 10 10 10 10 9 8 5 4 3 3 3 3 4 3 3 3 3 4 3 2 2 2 2 2 2 2 3 3 2 1 2 3 4 5 5 6 6 5
4 4 4 5 5 5 5 6 6 6 7 7 7 7 8 8 9 10 10 10 9 7 5 4 3 3 3 3 3 2 3 3 3 3 2 2 2 2 3 3 3 4 5 4 2 2 4 5 5 5 6 6
4 3 4 4 4 5 4 5 5 5 6 6 7 6 6 6 6 7 8 9 9 9 8 7 6 5 5 4 4 3 3 3 3 3 2 2 2 3 3 3 4 4 5 5 4 3 3 4 5 5 5 5
3 3 3 3 3 3 3 4 4 5 5 5 5 5 4 5 5 5 5 6 6 6 7 7 7 7 6 5 5 5 4 4 5 5 4 4 4 4 5 5 5 4 4 5 5 5 4 4 3 4 5 5
2 3 3 3 3 3 3 3 3 3 3 3 3 3 3 4 4 4 4 5 5 4 4 5 5 6 6 6 6 6 5 5 5 5 5 5 5 5 5 5 5 4 4 4 4 4 5 4 4 3 3 4
3 3 3 4 3 3 3 3 3 3 3 3 2 2 2 2 3 3 3 4 4 4 4 4 4 4 5 5 6 6 6 5 5 5 5 5 5 4 4 4 4 4 4 4 4 4 5 5 5 5 4 4
5 6 6 6 6 6 5 4 4 4 4 5 4 4 4 4 3 3 3 3 3 3 4 4 4 3 3 3 4 4 5 5 5 5 5 5 6 6 5 5 5 5 5 5 5 5 5 5 5 6 5 5
4 4 4 4 5 5 6 5 5 6 6 6 6 6 5 5 5 4 4 3 4 3 3 4 4 4 3 3 2 2 3 4 4 4 4 4 4 5 5 5 5 5 5 5 5 5 5 5 5 6 6 6
3 3 2 2 2 2 3 3 3 4 5 5 5 5 5 6 6 5 5 5 5 4 4 4 4 5 5 4 4 4 4 4 4 4 4 4 3 3 3 4 4 4 4 4 4 5 5 5 5 5 5 5
5 5 5 4 4 4 4 4 4 3 3 3 3 3 4 4 4 5 5 5 5 5 5 5 5 5 5 5 6 5 5 5 6 5 6 6 6 5 4 5 5 5 4 5 5 5 5 5 5 5 5 5
6 6 6 6 6 5 5 6 5 5 4 3 3 3 3 3 4 4 4 5 5 5 6 6 6 6 6 6 6 6 6 5 6 6 6 6 6 6 6 6 6 6 6 6 5 5 5 5 5 4 4 4
6 6 7 7 7 7 7 7 7 7 7 6 6 5 5 5 5 4 4 4 3 4 4 4 5 5 5 5 5 5 5 5 5 6 5 5 5 5 6 6 6 6 6 6 6 6 5 5 5 4 5 4
7 7 7 7 7 7 7 7 7 8 8 8 8 9 9 8 8 7 6 5 5 4 4 3 3 3 4 4 5 5 5 5 4 5 5 5 5 5 5 6 5 5 5 6 5 5 5 5 5 5 5 5
9 8 9 9 8 8 8 7 7 7 8 8 8 8 8 8 9 9 9 9 8 8 7 7 6 6 6 6 6 6 6 6 6 5 4 4 5 5 5 5 5 5 5 5 5 5 5 5 5 5 5 5
8 8 8 9 9 9 9 8 8 8 9 9 8 8 7 7 7 7 7 7 7 7 7 7 7 7 7 7 7 7 7 6 6 6 6 5 5 5 5 5 5 5 5 5 5 5 5 5 5 6 6 6
7 7 7 7 7 7 8 8 7 8 8 8 9 9 9 9 8 8 7 7 7 7 6 6 6 6 6 6 6 6 6 6 5 6 6 5 5 5 5 5 5 5 6 5 5 6 6 6 6 5 6 6
7 7 7 7 7 7 6 7 6 6 6 6 7 7 8 9 9 10 9 9 9 9 8 8 7 7 7 6 6 6 5 6 6 6 6 6 6 6 6 6 6 6 6 5 5 5 6 6 6 6 6 7
7 7 7 7 7 7 7 7 7 7 7 6 6 6 6 6 7 8 9 9 9 9 9 9 9 8 8 8 7 7 7 7 7 7 7 7 7 7 7 7 6 6 6 6 6 5 5 6 6 6 6 7
9 9 9 9 8 8 7 6 6 7 7 7 6 6 6 6 6 6 6 7 7 8 8 8 8 8 8 7 7 7 7 7 7 7 7 8 8 7 8 8 7 7 7 7 7 7 6 6 6 6 6 6
10 10 10 10 11 11 11 10 8 7 7 7 6 6 6 6 6 6 6 6 6 5 6 7 7 8 8 8 8 7 7 7 6 6 6 7 7 7 7 7 9 8 8 8 7 8 8 7 7 6 6 6
14 13 12 11 10 10 11 12 12 11 11 10 9 8 8 7 7 7 7 7 7 7 6 6 6 7 7 7 8 8 8 8 8 8 7 6 7 8 8 7 8 8 8 8 7 7 7 8 8 8 8 7
20 20 19 18 16 14 13 12 12 11 12 12 13 13 12 10 9 9 8 8 8 8 9 8 8 7 7 7 7 7 7 8 8 9 9 8 7 8 10 9 7 7 8 8 8 7 6 6 8 8 8 8
23 23 23 22 21 21 20 18 16 14 11 10 10 13 15 15 13 12 11 10 9 9 9 10 10 10 9 9 9 8 8 7 8 8 9 10 9 8 9 11 10 8 8 9 9 9 9 8 8 7 7 7
22 24 24 25 25 25 25 25 25 24 22 18 13 10 11 13 15 15 14 13 11 11 11 11 10 10 11 12 12 12 10 9 9 8 8 8 9 9 8 9 11 10 9 8 9 9 10 10 10 9 8 8
13 15 16 18 20 22 23 24 26 27 28 28 25 21 16 13 12 13 15 16 15 13 12 11 10 10 10 12 13 14 14 13 12 11 11 10 9 10 9 8 9 11 12 10 8 8 8 9 10 11 10 9
9 9 9 9 10 11 13 15 17 19 21 23 25 26 25 22 18 14 12 13 16 18 17 15 13 11 9 9 10 12 14 15 15 15 14 14 13 12 12 12 10 10 12 12 11 9 8 7 7 11 12 11
14 12 11 10 9 9 8 8 10 11 14 16 18 19 21 22 22 20 16 12 10 12 15 17 18 18 16 13 11 10 10 11 13 15 16 16 17 15 14 14 15 13 13 13 13 12 11 9 7 7 9 13
16 14 13 12 11 11 10 9 8 9 10 12 14 16 17 18 19 20 20 18 14 11 8 8 10 13 15 16 16 15 13 11 9 10 11 13 15 16 16 13 13 16 17 17 16 14 13 13 12 9 6 7
15 14 13 12 12 12 11 10 10 10 10 11 13 14 15 16 17 18 19 19 19 18 15 12 9 8 8 9 10 13 14 15 13 11 10 10 9 10 13 13 11 11 14 18 20 18 16 13 12 13 11 8
15 15 14 11 11 11 11 11 10 10 11 12 13 14 14 15 15 16 17 17 17 18 18 17 16 14 12 10 9 8 8 9 11 11 11 12 11 9 9 10 9 6 6 10 18 22 21 17 14 12 12 11

ECMWFFLT2_500_avort_093.txt.gz
Vorticity
10 10 10 10 11 11 11 10 10 10 10 10 9 9 9 9 8 7 6 5 5 5 5 5 6 6 6 6 5 5 5 4 4 4 4 4 4 4 4 3 2 2 2 2 2 2 2 1 1 2 2 2
8 8 8 8 8 8 8 9 9 9 9 8 8 8 8 9 10 10 9 9 8 7 7 6 6 6 6 7 6 5 4 4 4 4 4 4 4 4 4 4 3 2 2 2 2 2 2 1 1 1 1 2
6 6 6 6 5 5 6 6 5 5 6 6 6 7 7 8 8 9 9 9 9 9 9 8 7 7 7 7 7 7 6 5 5 4 4 4 4 4 4 4 4 3 2 2 2 2 2 2 2 1 1 1
4 4 4 4 4 4 4 5 4 5 5 5 5 5 6 6 6 7 7 7 8 8 9 9 9 9 8 8 7 7 7 6 6 5 5 4 4 4 4 4 4 4 4 3 2 2 2 2 2 2 2 2
1 1 2 2 2 2 2 3 3 3 4 4 4 3 3 3 4 4 4 5 5 5 6 6 7 8 9 8 8 8 7 7 6 6 6 6 5 4 4 4 4 4 4 4 3 2 2 2 2 2 2 2
0 1 1 1 1 1 1 1 1 1 1 2 2 2 2 2 2 2 2 3 3 3 3 4 4 5 6 6 7 8 8 8 8 7 6 6 6 6 5 5 5 4 4 5 5 4 3 2 2 2 2 2
2 1 1 1 1 0 0 1 1 1 1 1 1 2 2 2 2 2 2 2 2 2 2 2 2 3 3 4 4 5 6 7 7 7 7 7 6 7 6 5 5 5 5 4 5 5 5 4 3 3 3 3
4 4 3 3 2 2 1 1 1 1 1 1 1 1 1 1 1 1 2 2 2 2 2 2 2 2 2 2 2 2 3 4 5 5 6 6 6 6 6 6 6 5 5 5 5 5 5 6 5 4 4 4
5 5 5 5 5 4 4 3 3 3 3 3 2 2 2 1 1 1 1 1 2 2 2 2 2 2 2 2 2 2 2 2 2 3 3 4 5 5 6 6 6 5 5 5 5 5 5 5 5 5 5 5
8 8 8 7 7 7 6 6 6 5 5 5 4 4 4 4 4 4 3 3 3 3 3 3 3 3 3 3 2 3 2 2 2 2 2 3 3 3 4 4 4 5 5 5 5 5 5 6 6 6 6 5
7 8 9 9 10 10 9 9 8 8 8 8 8 7 6 6 5 5 5 5 5 5 5 5 5 4 4 4 4 4 4 4 3 3 3 3 3 3 3 3 3 3 3 4 4 4 4 4 5 5 5 5
5 5 6 6 7 8 8 9 8 8 9 9 10 10 10 9 8 7 6 6 5 4 4 4 4 5 5 5 5 6 5 5 5 5 4 4 4 4 4 4 4 4 3 3 3 3 3 4 4 4 4 4
6 6 6 6 5 6 6 7 7 7 7 7 7 7 8 9 9 10 9 9 8 7 6 5 4 4 4 4 4 5 5 5 5 6 6 5 5 4 4 4 5 5 4 4 4 4 4 4 4 4 4 4
7 6 6 7 6 6 6 6 7 8 8 8 8 7 6 6 7 8 8 8 9 9 9 9 8 7 6 5 5 4 5 4 4 4 5 5 5 5 5 5 5 5 5 5 5 5 4 4 5 5 5 4
7 7 7 7 7 6 6 6 6 6 6 7 8 9 9 8 8 7 7 7 7 7 8 8 8 8 8 8 8 7 6 6 5 4 4 4 5 5 5 5 5 4 4 5 5 5 5 4 4 5 5 4
7 7 7 7 7 6 7 6 6 6 5 5 5 6 7 8 9 9 9 9 9 8 8 8 7 7 7 7 8 8 8 8 8 7 6 5 5 5 5 5 5 5 5 5 5 5 4 5 5 5 5 5
8 8 8 8 8 7 7 7 7 7 7 6 6 5 5 5 5 6 7 8 9 10 9 9 9 9 8 8 7 7 7 7 8 8 8 8 7 6 5 5 5 5 6 5 5 5 5 5 5 5 5 5
14 13 13 12 12 12 11 11 10 10 9 8 8 8 7 7 7 6 5 5 5 7 8 8 9 10 10 9 9 8 8 7 7 7 7 8 8 8 7 6 6 6 6 6 6 6 6 6 5 5 5 6
21 20 19 18 17 16 16 16 16 15 15 14 12 11 10 9 8 8 8 7 6 5 5 6 6 7 8 9 9 9 10 9 9 8 8 7 7 8 8 8 8 7 7 7 7 7 7 8 7 6 6 6
26 26 25 25 23 22 21 19 19 18 18 18 18 17 16 15 12 11 9 9 8 8 7 7 6 6 6 6 7 8 9 9 10 9 9 10 8 8 8 8 8 8 8 7 7 8 8 8 8 8 8 8
29 30 30 30 31 30 29 28 26 25 24 22 21 20 20 20 20 19 17 14 12 10 9 8 8 7 7 6 6 6 7 7 9 9 9 9 10 10 9 8 9 8 8 8 7 7 8 8 8 8 8 8
23 25 26 28 29 31 32 33 34 34 33 32 30 27 24 21 21 21 21 22 21 19 17 14 11 9 8 8 8 7 7 6 7 7 8 8 9 9 9 9 9 9 9 9 8 8 7 7 8 8 8 8
11 11 12 14 15 17 20 22 24 27 29 31 33 34 33 30 26 22 20 19 20 21 23 23 21 18 14 11 9 8 8 8 7 7 7 7 8 9 10 9 8 8 8 8 9 9 8 8 8 8 8 9
7 7 6 7 6 7 8 8 10 12 15 18 21 25 29 32 32 30 26 21 19 18 18 20 22 23 23 21 17 14 11 9 9 9 8 8 8 7 9 11 11 9 7 7 8 8 8 9 9 9 9 8
6 6 6 6 6 6 6 6 5 6 7 8 10 13 17 22 26 29 30 27 23 19 17 17 18 19 21 23 23 22 20 16 12 10 9 8 8 8 7 8 12 12 10 8 7 7 7 9 9 8 9 10
5 5 5 5 5 5 5 5 5 5 5 5 5 6 9 13 17 22 26 28 26 22 19 17 17 17 17 19 20 23 24 23 21 17 13 10 8 8 8 7 8 12 14 13 11 8 6 6 8 9 8 8
4 4 4 4 4 5 5 5 5 5 5 5 5 5 6 9 12 15 20 24 25 24 22 18 16 16 15 16 16 18 20 23 24 24 22 18 14 9 7 8 8 9 12 13 14 14 11 7 4 7 10 9
4 4 4 4 4 4 5 5 5 5 5 5 6 5 6 8 10 13 16 19 20 21 21 19 17 16 15 15 15 15 15 17 19 22 24 24 24 19 12 9 7 8 11 12 12 12 15 15 9 6 7 9
4 4 4 4 4 4 5 5 4 4 5 5 6 7 7 8 9 12 14 16 18 19 18 17 17 16 16 16 17 17 17 16 16 17 19 20 22 24 22 18 12 9 10 12 14 11 11 14 14 12 9 6
3 3 4 4 4 4 5 5 4 4 5 5 6 7 8 8 10 13 15 16 17 18 17 17 17 16 17 17 17 18 18 19 19 18 18 18 18 19 21 22 20 16 13 12 14 14 12 11 10 12 12 10
3 3 3 4 5 5 5 5 4 4 4 4 5 6 7 8 10 13 16 17 18 19 18 17 17 17 17 18 17 17 17 17 18 19 19 20 20 19 18 19 19 18 17 16 16 15 15 14 13 11 9 9

ECMWFFLT2_500_avort_099.txt.gz
Vorticity
4 4 4 4 5 5 5 5 5 6 6 6 6 6 7 7 7 7 7 8 8 8 8 8 8 8 7 7 7 6 6 5 5 4 4 4 3 3 3 3 3 4 4 5 5 5 5 4 4 4 4 4
3 3 3 3 3 3 3 3 3 3 3 3 3 3 4 4 4 4 5 5 5 6 6 7 7 8 8 9 9 10 9 9 9 8 8 7 6 5 4 4 3 3 3 3 4 5 5 5 4 4 4 4
3 3 3 3 3 3 3 3 3 3 3 3 3 3 3 2 2 2 2 2 2 2 3 3 3 3 4 4 5 6 7 8 9 9 10 10 10 10 9 7 6 4 4 3 3 3 4 5 5 4 4 4
3 3 3 3 3 3 3 3 3 3 3 3 3 3 3 3 3 3 3 3 3 3 3 3 2 2 2 2 2 2 3 3 5 5 6 7 8 10 11 11 11 9 7 6 5 4 4 4 5 5 5 5
3 2 3 3 3 3 3 3 3 3 3 3 3 3 3 3 3 3 3 3 3 3 3 4 3 4 3 3 3 2 2 2 2 2 3 3 4 5 6 8 10 11 11 10 9 8 7 5 5 5 5 5
3 3 3 3 3 3 3 3 3 3 3 3 3 3 3 3 3 3 3 3 3 3 3 3 3 3 4 4 4 3 3 3 2 2 2 2 2 2 2 3 5 6 8 9 10 10 10 10 8 7 6 5
4 4 4 4 4 5 4 5 5 5 5 5 5 4 5 4 4 4 3 3 3 3 3 3 3 3 3 3 3 3 3 3 3 3 3 2 2 2 2 1 2 2 4 5 6 7 8 9 10 10 9 8
5 5 6 6 6 6 6 6 6 6 6 6 6 6 6 6 6 6 6 6 5 5 5 4 4 4 4 4 3 3 3 3 3 3 3 3 3 2 2 2 2 2 2 2 3 4 4 5 7 8 9 10
7 7 7 7 7 7 7 7 7 7 7 7 7 7 7 6 6 6 6 6 7 7 7 7 7 7 6 5 5 5 4 4 4 4 4 3 3 3 3 3 2 2 2 2 2 2 2 3 4 5 6 7
6 6 6 6 6 7 7 7 7 7 8 8 8 8 8 8 7 7 7 6 6 6 6 6 7 8 8 8 8 7 7 6 6 5 5 4 4 4 4 3 3 3 2 2 2 2 2 2 2 2 3 4
6 6 6 6 6 6 6 6 6 7 7 7 7 8 7 7 8 8 8 8 8 7 6 6 6 6 6 7 7 8 8 8 8 8 8 7 6 6 5 4 4 4 4 3 3 3 3 2 1 1 2 2
7 7 7 7 7 7 7 7 7 7 7 7 7 8 8 8 8 8 8 8 7 7 7 7 7 7 6 6 6 6 7 7 8 8 8 8 8 8 7 7 6 5 5 5 4 4 4 4 3 2 1 1
11 11 12 12 12 13 13 13 13 13 12 12 12 12 12 12 12 12 12 11 11 10 10 9 8 7 7 7 6 6 6 6 6 6 7 7 8 8 9 9 9 8 7 6 6 5 5 6 6 5 4 3
16 17 17 17 17 17 17 17 17 18 18 18 17 17 16 16 16 15 15 15 15 15 15 15 14 13 12 11 10 9 8 7 6 6 5 5 6 6 7 8 8 9 9 9 8 6 6 6 6 7 7 6
19 19 20 20 20 20 20 20 20 20 20 21 21 21 21 21 21 20 20 19 18 18 17 17 18 18 18 17 17 16 15 13 11 10 9 8 7 6 5 5 6 6 7 9 10 9 8 7 6 6 7 7
21 21 21 21 21 22 22 21 21 21 21 21 22 22 22 23 23 23 24 23 23 23 22 22 21 20 20 20 20 20 19 20 19 18 17 16 14 13 11 9 8 6 5 5 7 8 9 9 8 7 6 6
17 16 16 15 15 15 15 16 15 16 16 16 16 16 17 17 18 19 20 21 21 22 23 23 23 23 23 22 22 22 21 22 22 21 21 21 20 19 18 17 16 14 12 9 7 6 7 8 8 9 9 7
6 5 6 5 5 5 5 6 6 6 7 7 7 7 7 8 8 9 10 12 13 14 16 17 18 20 21 22 22 23 23 23 23 23 23 22 22 22 22 21 21 21 21 19 17 14 11 9 8 7 8 8
3 3 3 3 3 4 4 4 4 4 4 4 4 4 4 4 4 4 4 4 5 5 6 7 8 9 11 13 14 16 18 20 21 22 23 23 22 23 23 23 22 21 21 22 23 23 22 19 16 13 10 8
6 6 7 7 7 7 7 7 7 7 7 7 7 7 6 6 6 5 5 5 4 4 4 3 3 3 4 4 5 6 8 9 11 13 15 18 19 20 22 23 23 23 22 21 21 22 23 24 24 22 20 16
8 8 8 9 9 9 9 9 9 8 8 8 8 8 7 7 7 7 7 7 6 6 6 6 5 5 4 4 3 3 3 3 3 4 5 7 9 11 14 16 18 20 20 21 20 21 21 22 22 23 24 25
8 8 9 9 9 9 9 9 9 9 8 8 9 9 9 9 9 8 8 8 7 7 7 6 6 6 6 6 5 5 4 4 4 3 3 2 3 4 5 6 8 10 12 15 16 17 18 19 19 19 20 23
8 8 8 7 8 7 8 8 8 8 8 9 9 9 9 9 9 9 9 10 9 9 9 8 7 7 7 6 6 6 6 6 6 6 5 5 4 3 3 3 2 2 4 6 9 11 13 16 17 17 17 17
6 6 6 6 7 7 7 7 7 8 8 8 8 8 9 8 8 9 9 9 10 10 10 10 10 9 9 8 8 7 7 7 7 7 7 7 6 5 5 5 5 4 3 2 3 5 8 11 13 15 16 15
5 5 6 6 6 6 6 6 6 6 6 7 8 8 8 8 8 8 8 8 9 9 10 10 10 10 10 9 9 9 8 8 8 7 7 7 7 7 5 5 6 5 4 3 2 2 3 6 10 12 14 16
5 5 5 5 5 5 5 5 5 5 5 6 6 7 7 7 7 7 8 8 8 9 9 9 9 9 10 10 10 10 10 9 9 8 8 8 8 8 7 6 6 6 5 4 4 2 1 2 6 9 11 13
5 5 5 5 5 5 5 6 5 5 5 6 6 7 7 7 7 7 7 8 8 8 9 9 9 9 10 10 10 10 10 10 9 9 9 8 8 8 8 8 8 8 7 6 5 4 4 2 2 5 8 11
6 6 6 5 5 6 7 7 7 6 7 7 7 7 7 7 7 7 7 7 8 8 8 9 9 9 10 9 10 10 9 9 9 8 8 8 8 8 8 7 7 8 8 8 7 6 6 6 4 4 6 9
7 7 7 7 7 7 8 8 8 8 8 7 7 7 7 6 7 7 7 8 8 8 8 8 9 9 10 10 10 9 9 8 8 7 7 7 8 8 8 7 6 7 7 8 9 7 7 7 7 6 7 8
7 7 7 8 8 8 8 8 8 8 8 7 7 7 7 7 7 7 8 9 9 9 9 9 9 9 9 10 10 10 9 9 8 8 8 8 7 7 7 6 6 6 6 6 8 8 7 8 8 8 9 10
7 8 8 8 8 8 8 8 9 9 9 8 8 8 8 8 7 7 8 9 9 9 9 8 9 9 9 10 10 10 9 9 9 8 8 8 8 7 6 6 6 6 5 5 6 7 7 8 9 10 11 10

ECMWFFLT2_500_avort_102.txt.gz
Vorticity
4 5 5 5 5 5 5 5 5 5 5 5 5 5 5 4 5 5 5 5 5 5 5 5 6 6 6 6 6 5 5 5 5 5 5 5 5 4 4 4 4 4 4 4 5 5 4 4 4 4 5 5
3 3 3 3 4 3 4 4 4 4 4 4 4 4 4 3 3 3 3 4 4 4 4 4 4 4 4 5 5 5 5 5 5 5 6 6 6 6 6 6 6 6 5 5 5 5 5 5 5 4 4 4
2 2 2 2 3 3 3 3 3 3 3 3 3 3 3 3 3 3 3 3 3 3 3 3 3 3 3 3 3 3 4 4 4 4 4 4 5 5 6 6 6 6 6 6 6 5 6 6 6 6 6 5
2 2 2 2 2 2 2 2 2 2 3 2 3 3 3 3 3 3 3 3 3 3 2 3 2 2 3 3 3 3 3 3 3 3 3 3 3 3 4 4 5 5 5 6 6 5 5 5 5 6 6 6
3 3 3 3 2 3 3 3 3 3 3 3 3 3 3 3 3 3 3 4 3 3 3 3 3 2 3 3 3 3 2 2 2 2 2 2 2 2 3 3 3 4 4 4 5 6 5 5 5 5 5 5
4 4 4 4 4 4 3 3 4 4 4 4 4 4 4 4 4 4 4 4 4 4 5 4 5 4 4 4 4 3 3 3 3 2 2 2 2 2 2 2 2 2 3 3 3 4 5 5 5 5 5 5
5 5 5 5 5 5 5 5 5 5 5 5 5 5 5 5 5 5 5 5 5 5 5 5 5 5 5 5 5 5 5 5 4 4 4 3 3 3 2 2 2 2 2 2 2 2 3 4 4 5 5 5
6 6 6 6 6 7 7 7 7 7 7 6 6 6 6 6 6 6 6 6 6 6 6 6 6 6 6 6 6 6 6 6 5 5 5 4 4 4 4 4 4 3 3 3 2 2 2 2 2 3 3 4
6 7 6 7 7 7 7 7 7 7 7 7 7 7 7 7 7 7 7 7 7 7 7 7 7 7 7 6 6 7 6 7 7 7 7 6 6 5 5 4 5 5 4 5 4 3 3 2 2 2 2 2
6 6 6 6 6 6 7 7 7 7 7 8 8 8 8 8 8 8 8 8 8 8 8 8 8 7 7 7 7 7 7 7 7 7 7 8 8 7 7 6 5 5 5 5 5 5 4 4 3 3 3 2
7 8 8 8 9 9 10 10 10 10 10 10 10 11 11 11 11 11 11 11 11 11 11 11 11 10 10 10 9 9 8 8 8 7 7 7 7 7 7 8 7 7 7 6 6 6 6 5 5 4 4 3
12 13 13 14 15 15 15 16 16 16 17 17 17 17 17 16 16 16 16 15 15 14 14 14 13 14 14 14 13 13 13 12 12 11 11 10 9 9 8 7 7 7 8 7 7 7 7 7 6 6 5 4
19 19 20 20 21 21 21 21 21 21 22 22 22 22 22 22 22 22 22 22 21 21 20 19 19 18 17 17 17 17 17 17 16 16 15 14 14 13 13 12 11 10 9 8 8 7 7 7 7 7 7 6
20 20 20 20 20 19 19 19 19 19 18 18 18 18 18 18 18 19 19 19 20 20 21 21 21 21 21 21 20 19 19 19 19 19 19 19 19 18 17 17 16 16 15 14 12 10 9 8 7 7 7 7
15 14 13 12 11 9 9 8 8 8 7 7 7 7 7 7 8 8 9 9 10 11 12 13 14 15 17 17 18 19 19 19 19 20 20 20 21 21 21 20 20 19 19 19 18 17 16 14 12 10 9 8
6 5 4 4 3 3 3 3 3 3 3 3 4 4 4 3 4 4 4 4 4 4 5 5 6 6 7 8 9 10 11 13 14 15 16 16 17 19 20 21 22 22 22 21 21 21 20 20 19 17 15 13
3 3 4 4 4 4 5 5 5 5 6 6 6 6 6 6 6 6 6 6 6 6 6 5 5 5 5 5 5 5 5 6 6 7 8 9 10 11 12 14 16 18 19 21 22 22 22 22 22 22 22 20
6 6 6 6 7 7 7 7 7 7 8 8 8 8 8 8 8 8 8 9 9 9 9 9 9 8 8 8 7 7 7 6 6 6 5 5 6 6 6 7 8 9 10 13 15 18 20 21 22 22 22 23
7 7 7 7 7 7 7 7 7 7 7 7 8 7 8 8 8 8 8 8 9 9 9 9 9 10 10 10 10 9 9 9 9 8 8 7 6 6 6 5 5 5 5 6 6 8 11 13 16 19 21 22
7 7 7 7 7 7 6 6 6 6 6 6 6 6 6 7 7 7 7 7 8 8 8 8 8 8 8 8 8 9 9 10 10 10 10 10 9 8 7 7 6 6 6 5 5 5 5 5 6 8 12 15
6 6 6 5 5 5 5 5 5 5 5 6 6 6 6 6 7 7 7 7 7 7 7 7 7 7 7 7 7 8 8 8 9 9 10 11 11 11 10 10 8 8 7 7 7 6 6 5 4 4 4 5
4 4 4 4 4 5 5 5 5 5 5 5 6 6 6 6 7 6 6 6 6 6 6 6 6 6 6 7 7 7 7 7 8 8 8 9 9 10 10 11 11 10 10 9 8 8 8 7 6 6 4 4
3 3 3 4 5 5 5 5 5 6 6 6 6 6 7 7 7 7 7 7 7 6 6 6 6 6 6 6 6 6 6 7 7 7 7 7 8 9 9 10 10 10 10 10 10 9 9 9 9 8 7 6
2 3 4 5 6 6 6 7 7 7 7 7 7 7 7 8 8 8 8 8 8 8 7 7 7 7 7 7 7 7 7 7 7 7 7 7 8 8 9 9 9 9 10 10 10 10 9 9 9 9 9 8
3 4 5 6 6 7 7 8 8 7 8 7 7 8 8 9 9 9 9 9 9 9 9 8 8 8 8 8 8 8 7 7 7 7 7 8 8 8 8 9 9 9 10 10 9 10 10 10 10 10 10 10
5 5 6 6 6 7 7 8 8 8 8 7 7 8 8 9 9 9 9 9 10 10 10 10 9 8 8 8 8 7 7 6 7 7 7 8 8 9 9 9 10 10 10 10 10 10 9 9 10 10 9 9
6 6 6 7 7 8 8 8 8 8 7 7 7 8 8 8 9 9 9 9 10 10 11 11 10 9 8 9 8 7 7 6 6 6 6 7 7 8 9 10 11 11 11 11 11 11 10 9 9 10 10 8
6 6 6 7 7 8 8 8 7 7 7 6 7 8 8 9 9 9 9 9 9 10 11 10 9 9 9 9 9 8 8 7 7 6 6 6 7 8 9 10 11 11 11 12 12 11 11 10 9 9 9 9
7 7 7 8 8 8 7 7 6 5 6 6 7 8 9 9 9 9 9 8 9 9 9 9 9 9 9 8 9 8 8 8 7 7 6 6 6 7 8 9 11 12 11 11 12 12 12 12 10 9 9 8
9 9 9 9 8 8 7 7 6 5 6 7 8 9 10 10 10 10 9 9 9 9 9 10 10 10 9 9 9 9 9 8 8 7 7 7 7 8 8 9 10 11 11 11 11 11 12 12 12 11 10 9
10 10 10 9 8 8 7 6 6 6 7 7 8 10 10 10 10 10 10 9 9 9 9 10 10 10 10 10 10 10 9 8 8 8 8 8 8 8 9 9 9 10 10 11 11 10 10 11 11 11 11 10

ECMWFFLT2_500_avort_105.txt.gz
Vorticity
6 5 5 5 4 4 3 4 4 4 4 5 5 5 5 5 5 5 5 4 4 4 4 4 4 4 4 4 4 5 5 5 5 5 5 5 5 5 5 5 5 5 5 5 5 4 4 4 4 5 5 5
5 5 4 4 4 4 4 4 3 4 3 4 4 4 4 4 4 4 4 4 4 4 4 4 4 4 4 3 3 3 3 4 4 4 4 4 4 4 4 5 5 5 5 6 6 6 6 6 6 6 5 5
3 3 3 3 3 3 3 3 3 3 3 3 3 3 3 3 3 3 3 3 3 3 3 3 3 3 3 3 3 3 3 3 3 3 3 3 3 3 3 3 4 4 4 4 4 5 5 6 6 6 7 7
2 2 2 2 2 2 2 3 3 3 3 3 3 3 3 3 3 3 3 3 3 3 3 2 2 2 2 2 2 2 2 2 2 3 3 3 3 3 3 3 3 3 3 3 3 3 3 4 4 4 5 5
3 3 3 3 3 3 3 3 3 3 3 3 3 3 3 4 4 4 4 4 4 4 4 3 3 3 3 3 3 3 3 3 3 3 3 3 3 3 3 2 2 2 2 3 3 3 3 2 3 3 3 4
4 4 4 4 4 4 4 4 4 4 5 4 4 4 4 4 4 5 5 5 5 5 5 5 5 4 5 5 4 4 4 4 4 4 4 4 4 3 3 3 3 3 2 2 2 3 3 3 2 2 2 3
5 5 5 6 6 6 6 6 6 6 6 6 6 6 6 6 6 6 6 6 6 6 6 6 6 6 6 6 6 6 5 5 5 5 5 5 5 4 4 4 4 4 4 4 3 3 3 3 3 3 3 2
6 6 6 6 6 6 7 7 7 7 7 7 7 7 7 7 7 7 7 7 7 7 7 7 7 7 7 7 7 7 7 7 7 6 6 6 6 6 6 5 5 5 4 5 4 4 4 4 4 4 4 4
7 7 7 7 7 7 7 7 7 7 7 7 8 8 8 8 8 9 9 9 9 9 8 8 8 8 8 8 8 8 8 8 8 8 8 8 8 7 7 7 7 6 6 5 5 5 5 4 4 4 4 5
7 7 7 7 7 8 8 8 8 9 9 10 10 11 11 12 13 13 14 14 14 15 14 14 14 14 13 13 13 12 12 12 11 11 11 10 10 10 9 9 8 8 8 7 7 7 7 6 6 5 4 4
8 8 9 9 10 10 11 11 12 13 14 15 16 17 17 18 19 20 20 20 20 21 21 21 21 21 21 20 20 20 19 19 19 18 17 17 16 15 14 13 12 11 10 9 9 8 8 8 8 8 7 6
11 13 14 16 17 18 19 19 20 20 19 19 19 18 18 17 17 16 16 16 16 16 16 17 17 17 18 18 18 19 19 19 20 20 20 21 21 21 20 20 19 19 18 16 15 13 11 10 9 9 8 8
16 16 17 17 18 18 18 17 17 16 15 15 14 12 11 11 10 9 9 9 9 9 9 9 9 9 9 10 10 11 11 11 12 13 13 14 15 17 18 18 19 21 21 21 21 21 19 17 15 13 11 10
18 17 15 13 12 10 9 8 7 7 6 6 6 6 6 6 7 6 7 7 7 7 7 7 7 7 7 7 7 7 8 7 8 8 8 9 9 9 10 11 12 13 15 17 18 20 21 22 22 21 19 17
12 10 9 8 7 6 6 6 6 6 6 6 6 6 7 7 7 7 7 7 7 7 7 7 7 7 7 7 7 7 8 7 7 8 7 8 8 8 8 8 8 8 9 10 11 12 14 16 18 20 21 22
5 5 5 5 6 6 7 7 7 8 8 8 8 8 8 7 7 6 6 6 6 6 6 6 6 6 6 6 6 6 7 7 7 7 7 8 8 8 8 8 8 8 8 8 8 8 8 9 10 12 14 16
5 5 6 6 7 7 7 8 8 7 7 7 6 6 6 5 5 5 5 5 5 5 5 5 6 6 6 6 6 6 6 6 6 6 7 7 7 7 8 8 8 8 8 8 8 8 8 8 8 8 8 9
7 7 7 7 7 7 7 7 6 6 6 5 5 4 4 4 4 4 4 4 4 4 5 5 5 5 5 5 5 6 6 6 6 6 6 6 7 7 7 8 8 8 8 8 8 8 8 8 8 9 9 9
7 7 7 7 6 7 6 6 5 5 4 4 4 3 4 4 4 4 4 4 4 4 5 4 5 5 5 5 5 6 6 6 6 6 6 6 7 7 7 7 7 8 8 8 8 8 8 8 8 8 8 9
6 6 6 5 5 5 5 5 4 4 3 3 3 3 3 4 4 4 4 5 5 5 5 5 5 5 5 5 5 6 6 6 7 7 7 7 7 7 7 7 7 7 7 8 8 8 8 8 8 8 8 8
4 4 4 4 5 5 4 4 4 3 3 2 2 3 3 4 4 4 5 5 6 6 6 6 6 6 6 6 6 6 6 6 7 6 7 7 7 7 7 7 7 8 8 8 8 9 9 9 9 8 8 8
3 3 4 4 4 5 4 4 4 3 2 2 3 3 4 4 4 5 5 6 6 7 7 7 7 6 6 6 6 6 6 6 7 7 7 7 7 7 7 7 7 7 7 8 8 8 8 9 9 9 9 9
4 4 5 6 6 6 6 5 4 3 2 2 3 3 4 4 5 6 7 7 7 7 7 7 7 7 7 7 7 7 7 7 7 7 8 8 8 8 8 8 7 7 7 7 8 7 6 7 7 8 9 9
6 7 8 8 7 6 5 4 3 3 3 4 5 5 6 7 7 8 8 8 8 8 7 7 6 7 7 8 8 8 8 8 8 7 8 8 8 8 8 8 8 8 8 8 8 7 6 6 6 6 7 8
8 8 7 6 5 4 4 4 4 5 6 6 7 8 9 9 9 9 9 9 9 8 8 7 6 7 7 8 8 8 8 8 8 8 8 8 8 8 8 8 9 8 8 8 8 8 7 5 5 5 4 5
7 6 5 4 4 5 5 6 7 7 8 9 10 10 9 10 10 9 9 9 8 8 8 8 8 8 8 9 9 9 9 9 9 9 9 9 9 9 9 9 9 9 9 9 9 8 8 6 6 5 4 3
5 4 5 6 6 7 8 9 10 10 11 11 10 9 9 9 9 9 9 8 8 7 7 8 8 8 9 9 10 10 10 10 10 10 10 10 10 10 11 11 10 9 9 10 11 11 10 10 7 6 6 5
6 6 8 9 9 10 10 11 11 11 11 9 8 9 9 9 9 8 8 7 7 7 7 7 8 8 9 9 10 11 11 11 11 10 10 9 9 9 10 11 11 11 9 9 10 11 11 12 11 9 8 8
8 9 10 10 10 10 10 10 10 10 10 8 8 9 9 9 9 8 8 7 7 7 7 7 7 8 9 9 10 11 11 11 11 10 10 9 9 9 9 10 10 11 11 9 9 11 12 12 11 10 9 8
9 9 8 8 8 8 8 9 9 9 9 8 9 9 9 8 8 8 8 7 7 7 7 7 8 8 9 9 10 10 10 10 10 10 10 9 9 9 9 10 10 10 11 11 9 9 11 12 12 11 10 8
8 8 7 6 6 6 7 8 8 8 8 8 9 8 9 9 8 8 8 8 8 8 8 8 8 8 9 9 10 10 10 10 10 9 9 10 10 10 10 10 9 10 10 12 12 11 9 8 10 11 11 10

ECMWFFLT2_500_avort_108.txt.gz
Vorticity
6 5 5 5 5 5 6 5 6 6 6 6 6 6 6 6 5 5 5 5 5 5 5 5 4 4 4 4 4 4 5 5 5 5 5 5 5 5 5 5 5 5 5 5 5 4 4 4 4 5 5 4
6 5 6 5 5 5 5 5 5 5 5 5 5 5 4 4 4 4 4 4 4 4 5 4 4 4 4 4 4 4 4 4 4 4 4 4 4 4 4 4 4 5 5 5 5 5 5 5 5 5 5 5
5 5 5 4 4 4 4 4 4 4 4 3 4 3 4 4 3 4 3 3 3 3 3 3 3 3 3 3 3 3 3 3 3 3 3 3 3 4 4 4 4 4 4 4 4 4 4 5 5 5 5 5
3 3 3 3 3 3 3 3 2 3 2 2 3 2 3 3 3 3 3 3 2 3 2 2 2 2 2 2 2 2 2 3 3 3 3 3 3 3 3 3 3 3 3 3 3 3 3 3 4 4 4 4
3 3 3 3 3 3 3 3 3 3 3 3 3 3 3 3 3 3 3 4 3 4 4 4 4 4 4 3 3 3 3 3 3 3 3 4 4 3 4 3 4 4 4 4 4 3 3 2 3 3 3 3
4 4 4 4 4 5 5 5 5 5 5 5 5 5 5 5 5 5 5 5 5 5 5 5 5 5 5 5 5 5 5 4 4 4 4 4 4 4 4 4 4 4 4 4 5 5 5 4 3 3 3 3
4 5 5 5 5 6 6 6 6 6 6 6 6 6 7 7 7 7 7 6 6 6 6 6 6 6 6 6 6 6 6 6 6 6 6 5 5 5 5 5 5 5 5 5 5 5 5 6 5 5 4 4
6 6 6 6 6 6 6 7 7 7 7 7 7 7 7 7 8 8 8 8 8 8 8 8 8 8 8 8 8 8 8 8 8 8 8 8 8 8 7 7 7 7 7 6 6 6 6 6 6 7 6 6
6 6 6 6 6 7 6 7 7 7 7 7 8 8 8 9 9 10 10 10 10 11 11 12 12 12 12 12 12 11 12 12 12 12 12 12 11 11 11 11 11 10 10 9 9 8 7 7 6 7 8 8
7 7 7 7 7 7 7 8 8 8 8 9 9 10 10 12 12 14 15 15 16 16 16 16 17 17 17 17 17 17 16 15 15 15 15 15 15 14 14 14 14 14 14 14 14 14 13 12 10 9 9 9
7 7 7 7 8 8 8 10 10 11 12 13 14 14 15 15 15 15 15 15 15 14 14 14 13 13 14 13 14 15 15 15 15 15 15 15 15 14 14 14 14 14 14 14 15 16 16 16 16 15 14 13
7 8 8 9 10 11 12 13 13 15 16 16 15 15 14 13 12 11 10 10 9 9 9 9 9 9 9 9 10 10 11 12 12 13 13 14 14 14 14 14 14 13 13 13 13 13 14 15 15 16 17 17
10 11 12 13 14 14 16 15 14 14 13 12 11 10 9 9 8 8 8 8 8 8 9 9 9 9 10 10 10 10 10 10 10 10 10 10 11 11 11 11 12 12 12 11 11 11 11 11 12 13 14 14
14 15 16 15 15 14 13 11 10 9 8 7 7 7 7 7 8 8 9 9 9 9 9 9 9 8 8 8 8 8 7 7 7 7 7 8 8 8 9 9 9 10 10 11 10 10 10 10 9 9 10 11
15 15 14 12 10 9 7 6 6 6 6 6 7 7 8 8 8 9 9 9 8 8 8 8 7 7 7 6 6 6 6 6 6 6 6 6 6 6 7 7 7 8 8 9 9 9 10 10 10 9 9 9
11 10 8 7 6 6 6 6 7 7 7 8 8 8 9 8 8 8 7 7 6 6 6 6 6 6 6 6 5 5 5 5 5 5 5 4 5 5 5 5 5 5 6 6 6 7 7 8 8 8 8 8
7 6 6 6 6 7 8 8 8 8 8 8 8 8 7 7 7 6 6 5 5 5 5 4 4 4 4 4 4 4 4 4 4 3 3 3 3 4 4 4 4 4 4 5 5 5 6 6 6 7 7 7
6 6 7 7 8 8 8 7 7 7 7 6 6 6 5 5 5 5 5 5 5 4 4 3 3 3 3 3 3 3 3 4 4 3 3 3 3 3 3 4 3 4 4 4 4 4 5 5 5 6 6 6
7 7 7 7 7 6 6 6 6 5 5 4 4 5 5 5 4 5 4 4 4 3 3 2 2 3 3 3 3 3 4 4 4 4 4 4 4 4 3 4 3 4 4 4 4 4 4 5 5 5 6 6
8 8 7 7 6 5 5 5 4 4 3 3 3 4 5 5 4 4 4 3 4 3 3 2 2 3 3 3 3 4 4 4 5 5 5 5 5 5 4 4 4 4 5 4 5 5 4 5 4 5 5 6
6 6 6 5 5 4 4 5 4 3 3 4 4 4 5 6 6 5 5 5 4 3 2 2 2 3 3 4 5 5 6 6 7 7 7 7 6 6 6 6 6 6 6 6 6 6 6 6 5 5 5 6
5 5 4 3 3 3 4 4 4 3 4 5 5 6 7 8 7 6 5 4 3 3 3 4 4 5 5 6 7 7 8 8 8 8 8 7 7 7 7 7 7 7 7 7 7 7 7 7 7 7 7 7
4 4 3 3 4 4 5 5 6 6 6 7 8 8 7 6 5 4 4 4 4 5 5 6 6 6 7 8 8 8 9 9 8 8 7 7 7 7 7 7 8 8 8 8 8 8 7 8 8 8 8 7
6 7 6 6 6 6 7 7 8 8 8 8 7 6 4 3 3 3 5 5 6 7 7 8 8 8 9 9 9 9 8 8 7 8 8 8 8 8 8 8 8 9 9 9 9 9 9 9 9 9 9 8
8 8 7 7 7 7 7 8 7 7 6 5 4 3 3 5 5 6 8 8 9 10 10 10 10 10 10 9 9 8 8 8 8 8 7 8 8 8 8 8 8 8 8 9 9 9 10 10 10 10 10 9
6 7 7 8 8 7 7 6 6 5 5 6 6 6 7 8 9 9 10 10 10 10 10 9 9 9 9 9 9 9 9 9 8 9 8 8 8 8 8 7 8 8 8 9 9 9 9 9 10 10 10 9
8 9 9 9 8 7 6 6 6 7 7 9 9 9 9 9 9 9 9 9 9 9 9 9 9 9 10 10 10 9 9 9 9 9 9 9 8 8 8 8 8 8 8 9 9 9 9 9 9 9 10 11
10 10 9 9 8 8 9 8 8 9 9 9 9 9 9 9 9 9 9 9 9 9 9 9 9 10 10 10 9 9 9 9 9 9 9 9 9 9 9 9 8 8 8 8 9 10 10 10 10 10 10 10
10 11 11 10 11 11 11 11 11 11 11 9 10 10 9 9 9 9 9 9 9 9 9 10 10 9 9 9 9 9 8 8 9 9 9 9 10 9 8 9 9 9 8 8 8 9 9 10 10 10 10 10
12 12 12 12 12 12 12 13 13 13 11 10 11 10 9 9 9 9 9 9 9 9 9 9 9 9 8 8 8 8 8 8 8 9 10 10 10 9 9 8 8 9 9 8 7 8 9 10 10 10 10 9
13 13 13 13 14 14 14 14 14 12 11 11 12 11 10 10 10 10 10 10 10 9 9 9 8 8 8 8 8 8 8 8 9 9 10 10 10 9 9 8 8 9 9 9 9 9 10 10 11 11 11 10

ECMWFFLT2_500_avort_111.txt.gz
Vorticity
7 8 9 9 9 9 8 7 6 6 6 5 5 5 5 5 5 5 5 5 5 5 5 5 5 5 5 5 5 5 5 5 6 6 6 6 6 6 6 6 6 5 5 5 5 5 5 5 5 5 5 5
8 8 8 8 8 7 6 6 6 5 5 4 5 5 6 6 6 6 5 6 6 6 6 5 5 5 5 5 5 4 5 5 5 5 5 5 5 5 5 5 5 5 5 5 5 5 5 5 6 6 5 5
7 7 6 6 5 5 5 6 6 6 5 5 5 4 5 4 5 5 5 5 4 4 4 4 4 4 4 4 4 4 4 4 3 4 4 3 3 3 3 4 4 4 4 4 4 4 4 4 4 5 5 5
5 5 5 5 5 5 5 5 5 5 5 5 4 4 3 3 3 3 3 3 3 3 3 3 3 3 3 2 3 3 3 3 2 2 2 3 3 3 3 3 3 3 3 3 3 3 3 3 3 3 3 4
4 4 4 4 3 3 3 3 3 3 3 3 3 3 3 3 3 3 3 3 3 3 3 4 3 3 3 3 3 3 4 4 4 4 3 4 3 4 4 4 4 4 4 4 4 4 4 3 3 3 3 3
4 4 3 3 3 3 3 4 4 4 4 4 4 4 5 5 4 5 5 5 5 5 5 5 5 6 5 5 6 5 5 5 5 5 5 5 5 5 5 5 5 5 5 5 5 5 5 5 5 5 4 4
3 4 4 4 4 4 4 4 4 5 5 5 5 5 6 6 6 6 6 6 6 6 6 6 6 6 6 7 7 6 6 6 6 6 6 6 6 6 6 6 6 6 6 6 6 6 6 6 6 6 5 6
4 4 4 4 5 5 5 6 6 6 6 6 7 7 7 7 7 7 7 7 7 7 7 7 7 7 7 7 7 7 7 7 7 7 7 7 7 7 7 8 8 8 9 9 9 8 8 8 8 8 7 7
5 5 5 6 6 6 6 6 6 6 7 7 7 7 7 7 8 7 7 8 7 7 7 7 8 8 8 8 9 9 9 10 10 10 10 10 10 11 10 11 11 11 11 12 12 12 12 12 12 12 12 11
6 6 6 6 6 7 7 7 7 7 7 7 7 7 7 7 7 8 8 8 9 9 9 10 11 11 11 12 12 12 12 13 13 13 13 13 13 13 12 12 12 12 12 12 12 12 13 13 13 13 14 14
6 7 7 6 7 7 6 7 7 7 7 7 8 8 8 9 10 11 11 12 12 13 13 13 13 13 13 13 13 13 12 12 12 12 11 12 11 11 11 11 11 11 11 11 11 11 11 11 11 11 12 13
7 7 7 7 7 7 7 8 8 8 9 9 10 11 12 13 13 13 13 13 13 13 13 12 12 12 11 11 11 10 10 10 9 9 9 9 9 9 10 10 10 10 10 10 10 10 10 10 10 10 10 10
7 7 7 7 8 8 9 10 10 12 13 12 13 13 13 13 12 11 11 11 10 9 9 8 8 8 8 8 8 9 9 9 9 9 10 10 10 10 10 11 11 11 11 11 11 12 11 11 11 11 11 11
8 8 9 11 11 11 13 13 12 15 14 12 12 11 11 10 9 8 8 7 7 7 7 7 7 7 7 8 8 9 9 10 10 10 10 10 10 10 10 10 11 11 11 11 10 11 10 10 10 10 10 11
12 12 13 14 13 14 15 13 12 13 11 9 8 7 7 7 6 6 6 6 6 7 7 8 8 8 8 9 9 9 9 9 9 9 9 9 9 9 9 9 8 8 8 8 7 7 7 7 7 8 8 8
15 13 13 13 11 11 11 8 9 8 6 6 6 5 5 5 6 6 7 8 8 8 9 9 9 8 8 8 8 8 7 7 7 8 8 7 7 6 6 6 5 5 5 5 5 5 5 5 5 5 5 5
12 10 10 10 8 9 7 6 7 6 6 6 7 8 8 8 9 9 9 9 8 8 8 7 7 7 7 7 7 7 7 7 7 6 5 4 4 4 4 4 3 3 3 3 3 3 3 2 2 2 2 2
7 8 8 8 8 9 8 8 9 9 9 9 9 10 10 9 8 8 7 7 6 6 5 5 5 5 6 6 6 6 6 6 5 4 4 3 3 3 2 2 2 2 2 2 2 2 2 2 2 2 2 2
9 9 9 9 9 10 9 9 9 8 8 7 7 7 7 6 6 5 5 5 5 4 4 4 5 6 7 8 7 6 6 5 5 3 3 2 2 1 1 1 2 3 3 3 3 3 4 4 4 4 3 3
10 9 9 9 8 8 8 7 7 6 5 5 5 5 4 4 4 4 4 5 5 5 6 6 7 8 8 9 8 7 6 5 4 3 2 2 2 2 2 3 3 4 5 5 6 6 6 6 6 6 5 5
8 7 6 5 5 5 5 5 4 4 4 4 4 4 4 4 4 5 6 7 7 7 8 9 10 10 8 7 6 5 4 3 2 2 2 2 3 4 4 5 6 7 7 7 7 7 7 7 7 7 6 6
6 4 3 3 4 5 5 5 5 6 7 7 7 7 7 8 8 8 8 9 9 10 9 9 9 8 6 4 3 2 2 3 3 4 5 5 6 7 8 9 9 9 9 8 8 8 8 8 7 7 7 6
5 5 6 7 8 9 9 8 8 9 9 8 7 8 8 9 9 8 8 8 8 8 7 6 6 5 4 4 4 4 5 6 7 8 9 9 10 10 10 10 10 10 9 9 9 8 8 8 8 8 7 7
8 9 9 9 9 8 7 8 8 8 8 7 7 8 8 9 9 9 8 8 7 7 7 7 7 8 7 8 8 8 9 10 10 10 10 10 10 10 9 9 9 9 10 9 10 9 9 9 9 9 8 8
9 10 8 8 8 8 8 8 9 9 8 8 9 9 9 9 10 10 9 9 9 10 11 11 11 12 11 12 11 11 11 11 11 11 11 11 10 10 9 9 10 10 10 10 10 10 9 9 8 8 8 8
10 10 9 10 10 9 9 10 10 10 10 10 11 11 11 10 11 12 12 11 12 12 12 12 12 12 12 12 12 11 11 11 11 10 10 10 10 10 9 9 10 10 10 9 9 9 9 10 10 9 8 8
11 10 11 12 11 11 11 12 12 12 12 13 13 13 12 12 12 11 11 11 11 11 11 11 11 11 11 10 10 10 10 10 9 9 9 9 8 9 9 9 9 9 9 9 9 9 9 9 9 11 10 9
12 12 13 14 13 14 14 14 13 13 14 14 13 13 12 11 11 11 11 11 11 11 11 10 10 10 10 10 10 10 10 9 9 9 9 9 9 9 9 9 9 9 9 9 9 9 9 8 8 9 10 10
12 13 13 12 12 12 12 12 12 13 13 11 10 10 10 10 10 10 10 9 9 10 10 10 10 10 10 10 10 10 10 10 10 10 9 9 10 10 9 9 9 9 9 9 9 8 8 9 8 8 8 9
7 7 6 6 6 6 5 6 7 8 6 4 6 6 6 7 8 8 8 8 7 7 7 8 8 9 9 9 9 10 10 10 11 10 10 11 11 10 10 10 10 9 9 9 9 9 9 9 9 9 9 10
3 3 3 3 3 3 3 4 4 3 1 2 3 3 3 5 5 6 6 5 5 5 5 5 6 7 7 7 8 8 9 10 10 10 10 11 11 11 10 11 11 10 10 10 10 10 10 10 10 10 11 11

ECMWFFLT2_500_avort_117.txt.gz
Vorticity
3 6 2 -0 3 7 9 11 10 9 7 6 6 5 4 3 2 3 5 5 4 3 2 2 2 3 4 5 7 7 7 6 5 5 4 4 3 2 3 3 3 4 4 4 4 4 4 4 4 4 4 4
-0 4 3 3 5 6 4 4 6 6 6 6 6 6 3 1 1 3 4 5 5 5 5 5 6 6 7 7 7 6 6 5 4 4 4 4 4 4 5 5 5 5 6 6 6 6 6 6 6 5 5 5
9 8 7 8 7 5 3 3 4 5 6 7 7 6 2 -0 2 4 5 7 7 8 8 8 8 7 7 6 6 5 5 5 5 5 5 5 5 5 6 5 6 6 6 6 6 6 6 6 6 6 6 6
13 11 9 8 5 4 4 4 5 5 5 4 5 4 2 1 4 5 6 7 7 7 7 6 6 6 6 5 5 5 5 5 5 5 5 5 5 5 5 5 5 5 5 5 4 4 4 4 4 5 5 5
3 2 2 1 0 2 3 3 3 4 4 3 4 4 4 5 6 7 7 7 6 6 5 5 5 4 5 4 4 4 4 4 4 4 4 4 4 4 4 4 4 4 4 4 4 4 4 4 4 4 4 4
-2 -2 0 1 3 5 5 5 5 5 6 6 6 5 6 6 6 5 4 4 3 3 3 3 3 3 3 3 3 4 3 4 4 4 4 4 4 4 5 5 5 5 5 5 5 5 5 5 5 5 5 5
1 1 2 4 5 5 4 5 6 6 7 7 7 6 6 5 4 4 3 3 3 3 3 3 3 3 3 3 4 4 4 4 4 4 5 5 5 5 5 5 5 5 5 6 5 6 6 5 6 6 6 6
4 3 4 4 4 4 5 6 7 7 7 6 5 5 4 4 4 3 4 4 4 4 4 4 4 4 4 4 4 4 4 4 5 5 5 5 5 5 5 5 5 6 6 6 6 6 6 6 6 6 6 6
6 7 8 7 6 6 7 6 5 4 4 4 4 4 4 5 4 4 5 5 5 5 6 6 5 6 5 5 5 5 5 5 5 5 5 5 5 5 6 6 6 6 6 6 7 7 7 7 7 7 7 7
5 7 7 6 7 7 7 6 5 5 5 5 5 6 6 6 6 6 6 6 6 5 5 5 5 5 5 5 5 5 6 6 6 6 6 6 6 6 6 7 7 7 8 8 8 8 9 9 9 9 9 9
6 6 6 7 8 7 7 7 7 7 7 7 6 5 5 5 5 5 6 6 6 5 5 5 5 6 6 6 6 6 7 7 7 7 7 7 8 8 8 8 8 9 10 10 10 10 11 11 11 11 10 10
7 8 8 8 8 8 7 7 7 7 6 6 6 6 6 6 6 6 6 6 7 7 7 7 7 7 7 8 8 8 8 8 8 9 9 10 10 10 10 11 10 10 11 11 11 11 10 10 10 10 10 10
8 8 8 7 7 7 7 7 7 7 7 7 7 7 7 7 7 7 7 7 7 7 8 8 8 9 9 10 10 10 10 11 11 11 11 11 11 11 11 11 10 10 9 9 9 8 8 8 8 7 8 8
8 8 7 7 7 7 7 7 7 7 7 7 7 7 7 7 7 7 8 9 9 10 11 11 11 12 12 12 13 12 12 13 12 12 12 11 10 9 9 8 8 8 7 7 6 6 6 6 7 6 7 7
7 7 8 7 7 8 7 7 7 7 7 7 7 8 8 9 10 11 12 13 14 14 14 14 14 13 13 12 12 12 11 10 10 9 9 8 7 6 6 6 6 6 6 6 6 6 6 7 7 7 7 8
9 9 8 8 8 8 8 8 7 8 8 9 10 12 13 14 14 14 14 14 14 13 12 12 11 10 9 8 8 8 7 6 6 6 6 6 6 6 6 7 7 7 7 7 7 7 7 8 8 8 8 8
8 8 8 8 8 8 9 10 11 12 13 14 15 15 14 14 13 12 11 9 9 9 8 7 7 6 6 5 6 6 6 7 7 7 8 8 8 8 8 8 9 9 9 9 8 8 8 8 8 8 8 8
9 9 9 10 11 12 14 14 15 14 14 13 12 10 9 9 9 7 6 6 6 6 6 6 6 6 6 7 7 8 8 8 8 9 9 9 9 9 8 8 8 8 8 8 7 7 7 7 6 6 6 7
12 12 12 12 12 12 12 11 9 8 8 8 7 7 7 6 6 6 6 6 7 7 7 7 8 8 8 8 8 8 8 7 7 7 7 7 7 6 6 6 6 6 6 6 6 6 6 6 6 6 6 7
10 9 9 9 8 7 7 6 7 8 8 8 8 8 7 6 7 8 8 8 8 8 8 7 7 7 7 6 5 5 5 5 5 5 5 6 6 6 6 6 7 7 7 7 8 8 8 8 8 9 9 10
8 8 7 7 8 8 9 10 10 10 9 9 9 8 8 8 8 8 8 8 7 6 6 6 5 5 5 5 5 5 6 7 7 8 8 8 8 9 9 9 9 9 10 10 10 11 11 11 11 11 11 11
9 9 9 9 10 10 10 11 10 8 7 7 6 6 6 7 7 7 7 5 5 5 6 6 7 7 7 7 8 8 9 9 9 9 8 9 9 9 8 9 9 8 9 9 9 9 9 9 9 9 10 9
7 7 7 8 8 8 8 7 6 4 4 4 5 6 6 6 6 6 6 6 7 8 9 9 8 8 8 8 8 8 9 9 8 9 9 9 9 10 10 10 10 10 11 11 11 10 10 10 10 10 10 9
6 7 8 8 8 8 7 5 5 6 7 8 9 9 8 8 9 9 9 9 9 9 8 8 7 8 8 9 10 10 11 11 11 12 13 13 13 14 14 14 15 15 15 15 15 15 15 15 15 15 14 14
11 11 10 10 10 10 9 9 10 11 11 11 11 11 11 12 12 11 11 10 9 8 7 8 9 11 12 13 13 13 13 13 14 14 13 14 14 14 14 14 14 14 14 14 14 15 15 15 15 15 15 15
11 10 10 10 11 11 11 11 12 12 12 12 12 13 13 13 12 11 10 9 9 9 10 12 13 14 14 14 13 12 12 12 11 11 10 10 10 9 9 9 9 9 8 8 9 9 9 9 9 9 10 10
10 11 12 12 12 12 12 12 12 12 12 13 13 13 12 11 11 10 9 10 11 12 12 12 11 11 10 9 8 7 6 6 6 6 5 5 5 5 5 5 4 4 5 5 5 5 5 5 5 5 6 6
12 12 12 12 12 12 12 12 12 12 12 12 11 10 10 9 8 8 8 9 9 8 7 5 5 4 4 4 4 4 3 3 4 4 4 4 5 4 4 4 4 4 4 4 4 4 4 4 4 4 4 5
11 10 10 10 10 10 10 10 9 9 8 7 6 5 5 4 4 4 5 4 4 4 4 4 4 4 4 5 5 5 5 5 6 6 6 6 6 6 6 6 6 5 6 6 6 6 6 6 6 5 5 5
8 7 8 7 8 8 8 7 7 7 7 5 5 5 5 5 5 6 6 6 6 6 6 6 6 6 6 6 6 6 6 6 6 7 7 6 6 7 7 7 7 6 7 6 7 7 8 8 8 7 7 7
6 6 7 7 6 6 5 6 7 8 7 6 6 6 6 7 7 7 7 7 6 6 6 5 5 5 5 5 5 5 5 5 6 5 5 6 5 6 6 7 6 6 6 6 6 7 7 7 7 8 7 7

ECMWFFLT2_500_avort_120.txt.gz
Vorticity
-2 -2 -1 0 1 1 3 2 2 3 3 2 4 6 8 8 7 6 5 4 4 3 4 3 3 4 5 6 7 8 7 6 5 4 3 2 4 5 6 6 6 7 6 6 5 4 3 3 3 3 3 3
2 1 -2 -3 -2 0 2 2 3 4 3 2 3 7 9 9 9 8 7 6 6 6 5 3 2 2 4 5 5 5 4 3 3 3 3 4 5 6 6 6 6 5 5 5 4 3 2 3 3 3 4 4
4 6 5 3 2 1 -0 -1 0 2 4 3 3 7 7 6 7 7 7 7 7 7 5 4 1 1 2 3 4 5 4 5 5 6 6 6 7 6 6 6 5 4 4 4 3 3 4 4 5 5 5 5
3 4 5 6 7 7 5 4 4 5 5 5 5 7 5 4 5 6 7 7 8 9 7 3 0 1 3 4 6 6 7 7 7 7 6 6 6 6 6 5 4 4 4 4 4 4 4 5 5 5 5 6
8 8 8 8 9 8 7 7 9 8 7 7 7 6 4 3 4 4 5 5 5 6 5 3 1 3 5 6 7 7 8 7 7 6 5 5 5 5 5 4 4 4 4 4 4 4 4 4 4 5 5 5
10 9 7 7 7 6 7 7 7 7 6 5 3 1 1 1 2 2 3 4 4 4 5 4 4 6 7 7 7 7 7 6 6 5 4 4 4 4 4 4 4 4 5 4 5 4 4 4 4 4 4 4
8 5 2 2 1 -0 2 2 2 2 0 -1 -1 -1 1 2 3 3 4 5 5 6 5 5 6 6 5 5 4 4 4 4 4 3 4 4 4 4 4 4 4 4 5 5 5 5 4 5 5 5 5 5
7 6 5 4 3 1 1 1 1 1 -0 0 1 1 3 3 4 4 5 6 6 6 5 5 5 4 3 3 2 3 3 3 3 3 3 4 4 4 4 5 5 5 4 5 5 5 5 5 5 5 5 5
5 6 5 5 5 6 4 4 3 3 4 4 5 6 7 7 7 7 7 7 7 6 6 5 4 4 3 3 3 3 3 4 4 4 4 5 5 5 5 5 5 5 5 5 5 5 5 5 5 5 6 6
4 5 5 4 4 5 5 5 4 4 4 4 5 7 7 7 7 7 7 6 5 5 4 4 4 4 4 5 5 5 5 5 5 6 5 5 5 5 5 5 5 5 5 6 5 6 6 6 6 6 6 6
6 6 6 6 6 6 6 5 5 4 4 5 6 7 7 7 6 6 5 5 5 6 6 6 6 5 5 6 5 6 6 6 6 5 5 5 5 5 5 6 6 6 6 6 7 7 7 7 7 7 7 7
7 8 8 8 8 7 6 5 5 5 6 7 6 6 6 6 6 6 6 7 7 6 6 6 6 5 5 5 5 5 5 5 5 5 5 6 6 6 6 7 8 8 8 8 8 8 8 9 9 9 9 9
5 5 5 6 6 6 6 6 6 7 8 7 7 7 6 6 6 7 7 6 6 5 5 5 5 5 5 5 5 5 6 6 6 6 6 6 7 7 7 8 9 9 10 10 10 10 10 10 10 10 10 10
6 5 5 5 5 5 6 6 6 7 8 7 7 7 6 7 7 7 6 6 6 6 6 6 6 6 6 6 6 6 7 7 7 8 8 8 9 9 9 10 10 10 11 11 11 11 11 11 10 10 9 9
10 9 9 9 8 7 7 7 7 7 7 7 7 7 7 8 8 8 7 7 7 7 7 7 7 7 8 8 8 8 9 10 10 10 11 11 12 12 12 11 11 11 10 10 10 9 9 9 8 8 8 7
10 9 9 8 8 8 7 7 7 7 7 7 7 7 7 7 8 8 8 8 8 8 8 9 9 9 10 11 11 11 12 12 13 13 13 12 12 12 11 11 10 9 8 8 7 7 6 6 6 6 6 6
9 9 9 8 8 7 7 7 7 7 7 7 7 8 7 7 7 7 8 8 9 10 10 12 13 13 13 13 14 13 13 13 12 12 11 10 9 9 8 8 7 6 6 6 6 6 5 5 5 6 6 6
10 11 11 11 10 10 9 9 8 8 7 7 8 7 7 8 8 9 10 10 12 13 14 15 14 14 13 12 12 11 10 9 8 7 7 6 6 6 6 6 6 7 6 7 7 7 7 7 7 7 7 7
8 8 7 7 7 8 8 8 8 8 8 9 9 10 11 12 13 13 13 13 14 14 13 12 11 10 9 8 8 7 7 6 6 6 6 6 7 7 7 8 8 8 8 8 8 7 8 8 8 8 7 8
11 10 11 11 11 11 11 12 13 14 15 15 15 15 15 14 13 12 12 12 11 9 9 8 8 8 8 7 7 7 7 7 7 8 8 8 8 8 8 7 7 7 6 6 6 5 6 6 6 6 5 6
12 12 12 13 13 13 14 14 15 14 14 13 13 12 11 11 10 9 9 8 8 8 8 8 9 9 8 8 7 8 8 8 8 8 7 7 6 6 5 5 5 5 5 5 6 6 7 7 8 8 8 8
8 7 7 8 8 9 9 9 10 10 10 10 10 10 10 9 9 9 8 8 9 10 10 9 9 9 8 7 6 6 6 6 5 4 4 4 5 6 6 7 7 8 8 9 9 9 9 10 10 10 10 10
8 8 8 8 8 8 8 9 9 9 9 8 8 9 9 9 9 9 10 10 10 10 9 9 7 7 6 5 5 4 4 5 5 5 6 8 9 9 9 9 9 9 9 9 9 9 9 9 9 9 10 10
6 6 6 7 7 7 8 7 6 5 6 6 7 8 6 6 7 8 9 10 10 10 9 8 7 6 6 6 6 6 6 7 8 9 10 11 11 10 10 11 10 10 11 12 12 13 12 13 14 14 15 15
8 7 7 8 8 8 7 5 5 5 6 7 6 6 6 7 9 10 12 12 11 10 8 8 7 7 7 7 7 8 8 9 11 11 12 11 12 12 12 13 13 14 15 15 16 15 15 16 16 16 16 15
10 10 10 9 9 8 7 7 7 8 8 7 7 8 10 12 13 13 12 11 10 9 8 8 8 7 6 7 8 9 10 11 12 12 13 12 12 13 13 13 14 13 13 12 11 11 11 11 10 9 9 9
10 9 8 8 8 8 8 8 9 10 9 10 11 13 13 13 13 12 10 9 8 7 7 6 5 6 7 9 11 12 13 13 12 12 11 11 10 9 8 8 8 6 5 5 5 6 5 4 4 4 4 5
10 10 9 9 10 9 9 10 11 11 12 14 15 14 13 12 9 7 6 6 6 6 6 7 8 10 12 13 13 12 11 9 8 7 5 5 4 4 3 3 4 4 4 4 5 6 4 4 5 4 4 6
10 10 10 10 10 11 11 11 12 13 15 15 14 11 9 7 5 6 7 8 9 9 10 10 11 10 10 9 7 6 5 4 4 4 4 4 4 4 5 5 6 6 6 6 7 7 6 5 6 5 5 7
10 10 10 10 10 11 12 12 13 15 15 11 9 8 7 6 6 8 9 9 9 8 8 7 6 6 5 5 5 5 5 5 5 6 6 6 6 6 6 6 6 6 6 5 5 6 6 6 6 5 5 6
11 11 12 13 13 13 12 11 12 11 9 7 6 6 6 6 7 7 7 7 7 6 6 6 5 6 5 6 6 6 6 5 5 5 5 5 6 5 5 6 5 5 6 6 6 7 8 7 7 7 7 7

ECMWFFLT2_500_avort_126.txt.gz
Vorticity
20 11 8 10 13 14 20 25 28 30 27 20 14 13 14 16 15 12 7 3 1 0 3 4 3 3 4 5 6 6 7 7 7 6 6 6 6 6 6 6 6 5 5 5 5 4 4 4 4 4 3 3
15 17 14 9 6 2 5 10 16 23 28 28 24 20 20 21 19 16 12 10 10 8 6 5 4 5 5 5 4 5 5 5 5 5 5 6 5 5 5 4 4 4 3 3 3 3 3 3 3 3 3 3
2 13 12 2 -1 2 3 0 2 6 8 10 10 9 9 10 9 7 7 9 12 12 9 7 6 7 6 6 4 4 3 2 3 3 3 3 3 3 3 3 3 3 3 3 4 4 4 4 4 4 4 4
0 5 5 1 1 1 -2 -4 -2 -1 -1 -1 -1 1 2 5 4 -1 -1 2 2 3 4 3 2 2 2 3 4 4 2 2 2 2 2 2 2 3 3 3 3 3 3 4 5 6 6 6 6 5 5 4
2 3 3 3 5 4 2 1 -0 -2 -2 -1 -1 1 2 5 5 0 -0 3 4 4 4 4 4 3 3 3 3 4 3 3 2 2 3 3 3 3 3 4 4 4 3 3 4 5 5 5 5 5 4 4
2 3 4 5 5 6 6 4 2 2 1 2 2 2 1 0 2 3 4 5 5 4 4 3 3 3 3 4 5 6 7 7 6 5 5 5 5 5 5 4 4 4 3 3 3 3 4 4 5 5 5 5
3 1 2 4 5 4 6 7 5 4 3 3 4 4 2 0 -1 1 3 3 3 2 1 0 2 3 3 5 5 6 8 8 7 7 6 6 6 6 6 6 5 4 3 2 2 2 3 4 6 6 6 7
8 4 1 1 5 6 5 6 7 7 6 4 3 3 3 4 3 2 2 1 1 1 1 3 6 7 6 6 6 6 8 7 6 6 6 6 6 6 7 7 7 6 4 2 1 2 3 5 6 6 7 7
8 9 5 0 -0 4 7 7 7 7 7 7 7 7 6 5 3 2 3 2 2 3 3 5 8 8 8 7 7 7 6 6 5 5 5 5 5 4 4 4 5 5 4 3 3 3 4 6 6 6 6 6
-2 5 8 5 -1 1 5 6 7 6 6 5 6 9 9 8 6 6 6 5 5 6 7 8 9 9 8 8 7 5 4 3 2 3 3 3 3 3 3 3 4 4 4 5 5 5 6 6 6 5 4 4
6 4 6 7 7 9 7 5 7 7 6 6 6 8 8 9 8 7 5 5 6 6 7 8 5 5 6 5 3 1 1 1 1 3 3 3 3 3 4 4 5 5 5 6 5 6 6 5 5 4 3 3
8 5 5 4 8 13 7 7 10 5 3 5 7 6 7 7 6 4 2 2 3 3 3 2 0 2 3 3 2 1 0 1 3 4 5 5 5 5 5 6 6 6 5 6 6 5 5 4 4 4 4 4
2 4 5 -1 0 4 -1 2 7 4 2 2 4 5 4 5 4 5 5 5 5 4 3 3 3 4 4 4 4 4 3 4 4 5 5 5 6 6 6 6 6 6 5 5 5 5 4 4 5 5 5 5
13 15 16 7 2 1 -4 -2 2 4 6 3 3 6 6 4 4 4 4 5 5 5 5 5 6 5 5 5 5 5 5 5 5 5 5 5 5 5 5 6 5 5 5 5 5 5 5 6 6 6 7 7
16 18 22 23 22 15 6 5 5 5 8 5 3 7 9 7 5 4 4 4 4 5 6 5 5 5 5 5 5 5 5 5 5 5 5 6 6 6 6 6 6 6 6 6 7 7 7 7 7 7 7 7
14 14 16 20 23 19 12 12 12 10 10 9 8 9 9 8 5 4 4 4 4 5 5 5 5 6 5 5 5 5 5 5 5 5 6 6 6 6 7 7 7 8 7 8 7 7 7 7 7 7 7 7
8 9 9 11 13 12 12 12 13 14 14 13 13 11 10 9 7 6 5 5 6 5 5 5 5 6 5 5 5 5 6 6 6 7 7 7 7 7 7 8 8 8 8 8 8 8 8 8 8 8 8 9
9 8 6 6 7 7 9 9 9 10 11 11 12 12 11 10 9 9 9 9 9 9 8 8 8 8 8 8 8 8 8 8 8 8 8 9 8 8 8 8 8 8 8 8 8 8 8 9 9 9 9 9
12 11 9 8 8 7 7 7 7 8 8 8 8 9 9 9 9 9 9 9 10 10 10 10 10 10 9 9 9 9 9 9 9 9 8 8 8 9 9 8 8 8 8 8 9 10 10 11 11 11 11 10
9 9 11 12 12 11 10 9 8 7 7 7 7 7 8 8 9 9 9 9 9 9 9 9 9 9 9 9 9 9 9 9 9 9 9 9 9 9 9 9 9 9 9 10 10 11 12 12 12 12 12 12
7 7 7 8 9 10 11 12 12 11 10 9 8 7 7 7 7 7 6 6 6 6 7 7 8 9 9 9 9 9 9 9 9 9 10 11 11 11 11 11 11 11 12 12 12 12 12 11 11 11 10 10
6 5 4 5 5 6 7 9 12 13 14 13 12 11 11 10 10 9 8 8 8 7 7 7 8 8 9 10 11 11 12 12 13 13 14 14 14 13 13 13 13 13 13 12 11 10 10 9 8 8 7 7
5 5 5 5 6 5 5 6 8 9 9 8 9 9 10 10 10 11 11 12 12 12 12 12 12 12 12 13 13 14 14 14 14 14 13 11 11 11 11 11 11 11 10 9 9 8 7 7 7 6 6 6
9 7 7 6 6 7 6 5 4 3 4 5 6 6 6 6 7 7 7 8 8 9 10 10 11 11 11 11 10 11 11 11 10 9 8 8 9 10 10 9 9 8 8 7 6 6 6 6 7 6 7 6
11 10 12 10 8 8 7 5 3 4 5 5 6 5 5 5 6 6 6 7 7 7 7 7 8 8 8 9 9 10 10 9 9 9 10 11 11 10 10 9 8 7 6 6 6 7 7 6 6 6 6 6
4 8 11 10 9 8 7 6 6 6 6 5 5 4 5 6 6 7 8 8 9 9 9 9 9 9 9 9 10 11 12 12 12 12 12 11 10 9 8 6 5 5 5 6 6 5 5 5 5 5 5 5
7 8 7 5 5 6 6 7 8 8 8 7 8 7 8 8 8 8 8 8 8 8 8 7 7 8 8 8 9 10 10 9 8 8 8 8 7 6 5 5 5 5 4 4 4 5 5 5 5 5 5 7
15 12 8 5 5 5 5 8 10 10 10 10 10 11 11 11 10 10 10 9 9 9 9 8 7 7 7 7 7 7 6 5 5 5 5 4 4 4 4 4 4 3 3 3 4 5 6 6 7 8 9 10
13 13 12 11 9 8 7 7 7 7 9 10 10 10 10 9 9 9 8 7 7 8 8 8 7 7 6 6 6 5 4 3 3 3 3 4 4 4 4 4 3 3 4 5 6 7 8 9 9 9 9 10
8 9 10 11 11 12 11 8 6 4 4 4 4 5 6 6 7 7 7 7 6 6 6 6 6 6 6 6 5 5 4 3 3 3 5 5 5 5 5 4 5 6 7 8 8 9 10 9 8 9 9 10
7 7 7 8 10 11 10 10 11 10 5 3 2 1 1 3 4 5 6 7 7 6 7 7 7 8 8 8 7 7 7 7 7 7 7 6 7 7 6 6 8 9 9 9 9 10 9 9 9 10 10 9

ECMWFFLT2_500_avort_132.txt.gz
Vorticity
4 2 1 1 6 9 9 12 13 8 3 6 5 4 8 6 5 3 4 2 -3 7 13 10 12 10 5 7 7 6 9 6 3 6 6 3 3 4 3 2 4 4 4 4 3 3 3 4 4 4 5 5
9 7 5 2 2 3 5 10 13 15 10 9 11 9 6 1 0 1 4 4 -1 3 11 12 11 12 13 14 11 7 12 9 4 4 4 2 1 2 3 3 2 3 4 4 3 3 4 4 4 5 5 5
11 10 7 3 4 7 5 5 6 12 17 16 13 10 7 4 1 -1 1 5 6 8 11 14 13 11 12 16 15 14 18 12 4 7 4 0 1 3 5 6 6 5 4 4 4 4 4 5 5 5 5 5
11 9 8 4 3 10 9 7 5 5 12 19 16 16 19 15 11 10 14 17 16 16 11 8 9 9 10 13 16 19 23 16 10 11 3 -2 0 4 6 7 8 6 4 5 5 5 5 5 6 6 6 6
9 5 7 10 6 4 6 9 12 8 5 11 13 14 15 20 31 25 17 23 26 24 15 9 6 4 6 10 18 23 23 21 17 11 3 4 6 4 4 5 4 2 3 4 4 4 5 5 5 5 5 5
8 8 6 9 8 1 1 4 7 9 6 3 2 1 -1 7 30 23 6 16 25 26 22 18 12 5 6 9 17 25 23 20 17 14 14 16 13 5 2 2 3 4 5 4 4 4 4 4 4 3 3 3
8 10 7 6 7 4 2 4 2 3 5 4 -0 -1 0 1 12 11 3 9 14 19 23 22 16 8 7 8 16 25 25 23 19 18 21 19 16 13 10 7 7 6 4 3 4 4 3 4 4 4 3 3
5 6 8 6 6 5 3 4 4 2 2 7 7 4 6 5 3 0 -3 0 2 6 9 14 17 17 15 10 13 21 22 23 21 18 19 18 16 14 13 13 10 7 5 5 4 3 2 3 3 4 4 4
4 5 6 5 4 4 4 5 4 3 3 7 10 7 5 6 6 3 -0 -1 -1 2 3 5 11 18 23 21 19 19 18 18 16 13 14 15 12 11 12 12 10 9 8 6 6 5 5 6 6 6 6 6
4 2 2 2 2 3 6 8 4 4 7 6 7 8 4 4 6 5 5 4 1 1 2 3 5 8 13 19 24 25 23 20 17 17 17 17 16 15 16 16 13 12 10 9 10 11 12 12 11 10 9 9
8 5 7 7 6 10 12 9 2 5 12 7 1 0 -0 2 5 6 7 8 7 3 1 0 1 2 3 6 12 18 21 21 19 19 18 17 16 14 13 13 12 11 10 9 8 8 8 9 10 10 9 8
10 7 10 11 7 7 8 4 -0 3 8 9 5 0 1 2 3 4 3 3 4 5 6 6 2 1 3 2 2 4 9 12 13 15 13 9 7 5 4 4 3 3 2 1 1 1 1 2 4 6 7 8
12 8 7 10 9 4 3 4 5 5 2 4 8 3 -0 -2 -3 0 1 -1 -1 2 6 9 9 6 6 4 1 -0 1 4 7 9 10 8 7 5 2 1 0 0 1 1 3 4 5 6 7 7 8 7
12 10 6 8 11 10 12 10 6 7 3 2 6 6 4 -3 -6 -2 1 1 1 4 5 4 5 9 12 10 6 5 3 4 5 4 5 4 6 6 3 3 2 2 3 5 6 6 7 8 8 8 8 7
11 12 10 8 6 6 11 9 3 3 5 5 2 4 10 7 1 2 4 5 2 2 4 5 4 4 10 12 12 13 10 8 7 6 5 3 2 2 0 1 3 4 7 7 6 6 6 6 7 7 6 6
11 11 11 11 7 4 5 6 6 5 8 14 13 9 11 13 9 6 7 8 7 6 6 10 13 10 10 10 11 14 12 10 9 8 9 9 8 6 3 4 5 8 11 11 9 9 9 8 7 5 4 3
9 10 12 14 14 9 5 5 7 7 3 7 14 16 17 22 25 21 17 16 13 10 6 6 11 14 14 12 11 11 9 8 7 6 7 9 9 8 7 9 8 6 8 10 10 11 10 10 7 4 4 2
8 9 10 11 10 7 9 11 11 9 6 3 2 3 3 6 13 16 15 16 17 16 13 10 9 11 12 13 11 10 8 7 6 5 6 7 8 8 7 8 8 5 4 4 5 6 6 6 5 4 5 3
13 11 9 8 5 3 9 14 9 6 13 15 10 8 5 1 3 9 11 9 9 12 14 15 14 11 10 11 10 9 8 7 6 7 8 7 7 9 10 9 9 7 6 5 4 4 5 5 5 5 5 5
13 14 14 13 11 7 7 8 4 3 12 13 7 7 11 14 14 11 9 6 4 5 6 9 11 12 11 12 12 11 10 8 6 5 8 8 6 6 9 9 10 8 6 7 5 5 5 5 6 5 5 5
7 8 11 13 14 13 10 9 6 6 9 7 3 3 4 10 9 1 -2 -0 2 3 2 2 3 5 6 7 9 11 11 10 8 6 6 8 7 5 5 5 6 7 5 6 6 5 5 5 5 5 4 4
7 6 7 8 9 10 11 14 13 11 9 7 6 6 2 -1 -1 -1 1 2 3 4 7 6 3 3 3 2 2 4 6 7 8 8 7 8 8 7 7 7 7 7 6 7 8 7 7 7 7 6 6 7
8 8 8 8 7 6 7 9 12 13 13 12 10 12 9 4 3 2 1 6 9 8 9 9 6 6 6 4 3 3 4 4 5 5 6 7 8 8 9 9 10 10 9 10 10 10 9 8 9 9 9 10
7 7 7 8 9 8 7 7 7 9 11 12 11 12 13 10 10 7 1 1 4 6 8 8 8 9 7 7 7 7 8 7 5 5 5 6 7 7 7 7 7 8 8 8 8 8 9 10 11 11 11 10
7 7 7 7 8 7 8 9 9 8 8 10 10 11 11 8 7 9 7 2 1 6 10 8 9 9 7 7 6 7 9 11 10 11 11 10 9 7 7 7 7 8 7 8 9 10 11 10 9 9 9 9
5 6 7 7 7 7 7 8 8 8 7 7 9 10 11 11 9 10 10 7 3 3 4 3 4 6 7 8 8 7 6 7 9 11 11 11 12 11 9 9 9 11 13 14 14 12 10 9 10 11 11 11
2 2 2 3 5 6 5 6 6 8 9 8 8 8 9 10 11 11 11 10 7 4 3 3 2 4 7 7 9 10 9 7 5 6 8 9 10 10 10 9 10 12 13 12 10 8 9 11 11 10 9 10
3 1 1 0 1 3 3 4 4 5 6 8 8 8 7 8 9 10 10 11 11 7 5 3 1 2 4 4 5 8 11 12 10 7 5 5 5 6 8 9 9 8 8 6 6 8 9 8 5 5 9 10
4 3 2 1 1 1 2 3 3 3 3 4 6 7 7 7 7 7 8 9 10 10 8 7 5 1 1 3 2 2 6 9 11 10 6 5 6 6 7 7 6 5 5 6 6 7 7 6 7 10 11 8
5 4 3 3 2 1 2 3 3 3 3 3 4 5 5 5 5 6 6 7 7 8 9 9 8 6 5 6 5 5 7 7 9 10 10 9 9 8 8 6 6 7 7 6 4 5 6 7 8 8 7 6
6 5 4 4 4 3 1 2 3 4 3 4 4 4 4 3 4 5 6 6 6 7 8 8 8 9 8 6 7 5 1 2 6 7 9 10 10 10 9 7 8 10 8 6 6 7 7 6 6 6 5 6

ECMWFFLT2_500_avort_135.txt.gz
Vorticity
3 1 4 4 4 3 4 14 10 3 12 16 5 1 9 9 8 8 9 4 7 4 -8 -0 3 0 -1 1 9 8 16 22 19 16 8 6 4 2 9 11 6 4 4 4 4 3 4 4 3 3 4 5
8 6 7 8 7 5 1 -0 -5 -7 0 7 4 1 10 15 14 10 8 6 7 5 -1 1 6 7 1 2 7 3 6 5 7 18 17 14 10 5 8 8 5 6 5 3 3 3 4 4 3 4 5 5
9 11 9 11 11 9 7 2 -6 -6 -4 -4 2 4 4 7 12 14 12 11 12 11 7 5 5 6 2 2 4 3 6 2 0 6 9 15 17 12 7 4 4 6 5 3 4 3 4 3 2 4 5 4
1 7 6 8 12 11 10 9 5 7 8 4 4 5 5 4 5 10 14 14 14 13 12 10 7 4 1 2 3 1 2 5 8 6 3 10 14 11 8 7 4 2 5 5 5 4 3 2 1 4 4 3
0 2 3 3 8 10 8 7 6 7 8 10 9 7 8 8 7 8 9 14 17 17 16 16 15 11 4 3 5 8 7 5 11 11 6 8 11 9 7 8 7 3 4 5 4 3 2 0 1 4 4 4
7 5 3 -1 1 6 9 7 7 6 4 6 8 6 5 6 9 9 5 6 9 11 9 9 21 32 26 16 16 20 19 13 18 17 8 7 11 16 14 7 6 4 4 5 2 0 1 -0 1 4 4 5
6 7 9 4 -0 3 7 7 9 7 2 4 7 6 5 4 5 7 6 4 2 -0 -2 -3 9 26 27 22 24 31 32 27 27 22 12 9 8 15 24 18 10 8 8 7 3 2 3 2 2 3 5 6
3 4 7 7 6 5 5 8 12 10 4 2 3 4 4 4 2 2 3 3 4 2 2 3 0 1 1 3 10 22 32 32 31 23 14 13 9 8 19 26 20 14 12 8 7 7 7 6 3 3 6 5
9 7 5 8 9 6 7 8 8 8 5 4 4 6 4 5 6 5 3 0 5 8 5 5 4 1 -3 -4 -2 4 15 21 25 23 13 11 13 9 12 21 24 21 16 11 9 7 7 8 4 5 9 8
15 12 8 12 12 11 8 3 7 5 2 5 5 7 5 4 6 6 6 1 1 9 10 6 6 6 4 3 2 0 2 6 13 20 18 13 12 11 11 14 18 23 22 15 12 10 12 13 9 10 13 12
17 15 12 12 13 17 9 1 12 5 -2 7 3 5 7 4 5 6 9 5 1 7 10 7 5 7 8 7 7 5 2 2 3 8 16 19 17 14 16 17 18 25 27 19 13 11 13 16 15 15 15 11
11 14 14 12 10 16 11 5 14 6 2 8 1 3 7 5 5 3 5 5 4 6 4 2 3 5 7 7 6 4 3 5 6 5 7 14 19 19 18 19 20 22 23 22 16 12 12 15 15 14 14 11
9 9 10 11 9 12 11 6 8 11 16 7 -2 9 13 13 14 8 7 6 6 4 1 4 6 5 4 5 4 0 1 4 8 8 8 10 15 19 17 16 16 16 16 17 18 16 15 13 11 13 16 13
12 10 10 10 8 8 10 8 2 10 22 9 2 16 16 14 16 14 14 14 13 10 5 5 2 -3 -5 -2 -0 0 2 4 5 6 8 11 13 15 18 17 15 15 14 13 15 17 15 12 10 12 14 11
10 11 12 11 11 9 6 9 6 4 12 6 3 11 10 6 6 6 6 7 11 9 4 4 3 -1 -4 -5 -3 -1 0 1 3 6 7 8 11 12 15 18 18 17 16 13 16 21 21 18 16 14 14 13
11 10 10 10 12 13 9 7 7 5 3 3 6 5 2 3 6 8 10 11 17 18 11 4 3 4 4 2 1 2 2 1 0 4 8 7 8 9 10 13 15 16 17 15 15 20 22 21 19 17 15 12
10 11 11 10 10 10 12 9 7 7 2 4 8 1 -4 -0 2 3 4 2 7 18 23 17 12 10 9 9 9 9 6 3 0 0 3 5 8 9 9 10 10 9 11 12 13 15 15 12 10 8 5 3
7 9 9 10 11 9 10 9 9 9 1 1 4 1 3 7 6 7 6 2 0 7 17 20 18 17 18 17 18 21 18 12 7 5 4 2 3 5 8 12 12 9 6 5 6 9 10 7 5 5 4 4
7 8 7 7 10 11 12 10 9 9 5 4 4 1 3 6 10 14 10 8 9 9 10 13 12 10 12 14 15 18 21 21 16 13 12 9 6 4 5 8 10 9 9 8 6 6 7 6 6 6 7 7
8 9 9 7 7 8 11 12 11 9 8 9 8 4 6 6 6 6 3 4 8 7 6 11 16 13 9 7 10 11 11 15 17 16 15 15 13 9 7 5 5 5 6 7 7 7 8 8 7 7 8 8
9 10 10 10 9 7 7 9 11 11 9 9 7 3 4 6 1 -3 1 7 5 2 2 6 13 15 10 4 2 3 3 4 7 9 11 14 15 14 12 9 6 4 5 6 4 5 7 8 8 8 9 8
7 7 8 8 8 8 8 8 8 10 10 11 10 6 5 7 8 3 3 4 0 2 7 6 4 3 2 2 -1 -3 -1 4 3 2 4 6 8 11 13 13 12 8 8 9 7 5 6 8 8 9 9 10
5 5 6 7 7 7 7 8 8 8 9 10 11 12 10 10 12 11 7 6 1 0 8 8 3 3 3 3 3 1 1 4 5 5 6 5 3 4 6 9 11 11 11 13 13 10 7 9 9 8 8 8
4 5 5 5 6 7 6 7 7 7 7 8 9 11 11 9 10 10 10 11 7 -2 -2 2 1 -0 5 8 10 9 5 4 7 7 10 11 7 5 4 4 6 6 6 7 10 11 9 10 10 9 8 7
3 3 4 4 3 4 6 6 6 6 6 6 7 8 10 10 9 9 9 11 14 8 -2 0 2 -6 -6 3 9 10 4 3 7 4 4 8 6 7 7 6 7 6 5 4 6 9 8 7 8 8 8 8
2 2 2 3 3 3 3 4 4 5 5 5 5 5 6 9 10 10 10 8 11 13 4 3 11 6 -4 -9 -4 7 8 3 3 2 3 7 8 9 8 8 10 9 9 9 8 7 7 6 7 8 9 8
3 3 2 1 2 3 2 3 3 3 4 4 4 4 3 4 6 7 10 10 8 10 9 4 10 13 8 -1 -8 -3 6 6 6 7 5 6 7 8 8 6 8 8 8 11 11 9 10 10 10 9 9 11
3 3 3 2 1 2 2 2 3 3 3 4 3 4 3 3 5 5 5 8 7 8 10 9 10 11 10 12 6 -3 -4 -3 0 7 6 3 6 7 7 7 7 9 8 9 11 11 11 11 10 11 13 16
5 4 3 3 3 2 2 2 3 3 3 3 2 2 3 2 3 4 4 5 6 7 8 8 9 9 7 10 12 10 8 1 -4 1 4 6 8 5 5 8 8 11 10 9 9 7 7 9 10 12 12 10
7 7 6 6 5 4 4 3 3 3 3 3 3 2 2 3 2 2 3 4 5 5 6 7 7 8 8 7 7 8 12 9 4 4 3 5 9 6 6 9 7 7 9 9 8 6 7 7 7 7 8 7
10 10 10 10 9 8 7 6 5 4 4 4 4 3 1 2 3 3 2 2 4 5 4 5 6 7 8 7 7 7 7 8 8 9 5 1 1 1 5 10 5 3 6 8 8 8 7 6 6 6 6 7

ECMWFFLT2_500_avort_141.txt.gz
Vorticity
16 14 13 8 4 7 10 5 7 10 9 9 2 1 4 2 0 4 17 19 2 -7 10 19 12 15 25 31 29 23 18 16 19 25 28 15 11 14 11 11 7 5 5 4 5 6 5 2 1 1 3 7
15 18 13 9 10 2 11 11 9 18 10 9 7 2 5 4 0 2 6 -5 -4 16 18 14 9 8 28 30 4 -1 11 13 12 16 25 17 11 12 12 13 10 9 10 9 6 5 7 2 2 5 3 3
14 20 13 13 12 1 34 26 1 24 14 3 3 -2 7 6 -4 -10 -5 -5 -4 3 -2 2 2 -3 20 24 -5 -10 2 7 8 6 12 13 10 12 12 14 12 11 17 23 16 4 4 7 5 5 6 4
10 18 15 15 12 7 37 9 -21 16 14 1 -3 -7 3 2 -2 -2 5 10 8 4 -5 -6 -11 -17 -5 8 6 3 3 7 10 7 7 6 5 10 10 10 11 5 7 23 31 21 9 7 7 5 6 6
7 14 17 15 11 2 15 6 -6 10 7 6 1 -2 7 2 4 10 12 9 6 7 6 2 -6 -9 -6 -0 5 2 2 6 8 9 11 10 10 16 11 4 4 1 1 7 21 34 29 12 3 5 6 6
6 8 13 16 15 -5 -9 6 9 2 1 5 0 4 12 10 5 1 5 8 4 3 8 13 6 3 5 5 6 4 5 5 5 7 10 10 12 18 19 15 8 3 7 4 2 16 31 27 12 5 5 6
10 8 7 11 19 7 -6 0 6 8 11 9 3 -1 -0 7 12 8 5 4 4 4 8 14 13 11 9 9 10 9 9 7 6 5 6 8 8 11 14 19 18 14 12 6 1 3 11 19 19 15 13 10
12 12 11 7 8 12 12 8 1 2 5 10 15 7 -3 -4 2 10 9 9 5 -1 -2 1 9 13 9 10 10 10 11 10 9 7 5 5 7 7 6 10 16 19 18 11 5 4 4 5 9 11 13 17
10 10 13 11 6 2 7 14 10 6 0 0 11 15 10 0 3 10 6 10 6 -3 -5 -5 5 14 11 8 5 8 10 8 8 8 6 3 5 7 6 6 9 15 20 22 15 6 4 3 6 5 3 9
11 8 8 9 9 5 3 8 8 11 10 2 2 10 14 3 6 15 12 18 15 11 15 10 11 13 10 7 4 6 8 8 7 5 5 3 4 6 5 0 2 10 13 21 29 23 14 6 4 7 5 3
8 9 9 6 5 8 11 13 5 3 10 11 4 3 10 3 -0 7 6 12 16 15 18 14 13 12 11 11 8 6 5 8 10 8 4 2 3 6 9 5 -0 5 8 8 16 25 29 24 14 8 8 10
5 5 9 9 7 5 6 12 12 8 5 10 12 6 8 4 3 10 5 2 7 14 16 12 12 13 16 18 17 14 11 10 11 13 9 3 4 5 8 10 4 3 9 8 5 7 14 23 26 20 13 10
7 6 5 6 8 7 5 6 10 11 1 -0 9 6 3 1 -0 8 12 2 -7 0 9 10 13 12 14 20 19 14 13 13 10 11 11 6 4 5 7 9 9 5 5 9 9 7 4 7 16 22 22 16
7 8 8 6 5 6 7 7 7 12 7 0 3 1 1 3 1 2 12 10 -8 -10 -4 -2 7 14 14 14 14 11 10 10 7 5 5 8 7 5 7 7 10 8 4 5 7 7 7 7 8 12 20 24
5 6 8 8 8 6 6 7 7 10 11 8 6 5 5 7 7 2 4 9 0 -3 1 -3 -3 4 8 6 8 12 13 14 14 12 10 12 12 10 10 9 9 9 7 5 3 3 3 4 6 7 10 16
4 5 6 6 8 8 7 7 7 7 9 11 8 6 8 8 10 8 6 8 7 6 7 9 2 -7 -2 6 11 12 11 14 16 20 20 16 13 10 10 8 7 8 7 6 2 -1 -2 -2 1 4 5 7
4 4 4 4 5 6 7 8 8 7 6 9 10 8 8 5 4 7 10 8 9 10 -0 5 10 -1 4 10 9 10 9 8 6 10 15 16 17 13 12 12 9 7 5 5 4 -0 -3 -5 -4 -1 3 5
4 4 4 4 5 4 5 6 8 9 6 6 6 7 9 8 3 0 4 2 3 11 1 -2 1 -2 8 7 2 11 11 7 5 3 4 10 15 13 13 15 14 13 10 7 5 4 3 0 0 0 2 4
4 4 3 4 5 5 5 4 5 7 8 8 6 6 6 8 9 2 1 0 -0 9 7 2 -1 -8 0 4 6 14 8 5 8 7 7 9 12 13 11 11 13 15 15 14 10 9 8 7 6 4 5 6
5 5 4 3 3 4 5 4 4 5 5 8 7 7 6 5 10 8 7 4 1 4 2 2 4 -3 -4 -4 -3 4 4 5 8 13 16 11 10 13 12 9 8 10 12 16 16 14 13 12 11 9 10 10
4 5 5 4 3 3 4 4 4 4 4 6 7 8 8 7 7 8 10 10 8 6 2 3 7 3 -2 -5 -7 -4 4 8 10 18 19 10 7 10 12 11 9 8 9 10 12 15 15 16 18 15 13 11
3 3 4 4 4 3 4 5 5 5 3 3 5 6 7 8 7 6 6 8 9 8 5 4 5 3 1 4 4 0 7 12 10 12 13 11 10 9 8 9 10 8 7 7 8 9 10 11 14 17 17 14
4 4 4 4 4 4 3 3 4 6 5 4 4 4 5 6 7 8 6 6 7 7 8 5 -0 -3 -3 3 3 -4 -1 4 2 1 2 4 10 15 11 7 8 5 4 8 8 7 7 4 3 5 11 15
4 5 5 5 6 6 4 3 4 5 5 5 5 4 3 4 5 7 8 7 7 5 7 11 7 0 -3 0 1 -7 -14 -7 7 8 -3 -3 5 11 9 4 2 1 4 8 8 10 11 10 7 2 1 5
5 5 6 6 7 7 7 5 4 4 5 5 7 6 5 4 4 4 5 6 8 6 4 7 9 7 5 6 7 0 -16 -17 4 10 -1 3 8 3 3 1 -3 2 12 13 9 9 9 8 8 6 1 0
10 7 6 6 6 6 9 9 7 5 5 6 6 7 6 6 5 4 4 3 4 6 6 4 5 7 9 10 11 11 2 -12 -11 -5 -4 1 2 -3 1 3 -3 1 11 12 9 4 4 8 11 10 6 3
14 13 11 10 9 8 8 9 9 8 7 6 5 5 5 6 7 6 7 6 4 5 6 6 6 6 6 6 7 10 16 9 -6 -10 -10 -5 -1 -5 -3 1 -1 -1 2 11 15 5 6 18 19 15 8 5
10 12 13 13 12 12 10 9 9 9 9 8 6 5 5 6 6 6 7 8 5 4 4 5 5 5 5 7 7 5 10 17 11 2 -6 -9 -9 -9 -5 -5 -4 -0 -3 6 19 7 -2 4 8 12 10 7
6 7 8 9 11 12 13 12 11 10 10 9 7 5 5 5 5 5 5 4 3 4 5 7 8 7 3 3 7 7 6 9 14 13 8 -0 -6 -3 1 -8 -13 -4 -5 -3 11 10 0 -4 -2 7 12 11
9 9 8 7 8 8 10 12 13 13 12 11 10 8 6 5 5 5 5 3 3 5 7 7 8 11 12 6 2 6 7 6 7 9 10 10 9 10 12 4 -9 -11 -8 -6 -5 -0 10 11 5 7 11 14
9 10 11 11 10 9 8 9 11 12 12 13 14 14 12 10 7 5 6 9 7 6 4 1 -1 6 18 18 7 0 3 7 8 7 6 7 8 8 10 15 10 -5 -10 -5 -7 -9 0 7 3 4 9 11

ECMWFFLT2_500_avort_144.txt.gz
Vorticity
12 10 11 11 9 14 16 15 14 8 5 1 1 4 9 12 6 4 4 6 8 10 12 4 8 11 -5 2 19 17 16 15 7 7 10 11 13 14 11 8 10 11 9 8 7 5 4 4 4 7 7 3
15 13 11 11 11 10 11 17 18 14 13 6 5 11 11 8 4 3 4 7 4 3 6 -1 4 4 -10 2 18 11 13 20 20 16 11 16 23 21 17 11 7 10 12 11 9 5 3 3 3 4 6 6
14 14 13 11 11 12 9 12 19 22 19 10 9 8 4 5 4 4 4 4 2 2 3 -3 1 7 1 1 9 10 7 6 23 32 14 11 21 20 25 23 12 12 15 13 11 10 9 6 4 2 2 5
11 12 12 12 10 12 11 12 20 21 20 22 22 14 8 11 7 1 1 3 3 1 3 3 -4 -6 -4 -3 -0 4 1 -7 8 28 4 -13 2 12 21 22 13 12 18 20 16 13 13 12 8 5 4 2
10 11 9 10 8 9 9 14 21 15 12 13 16 24 26 18 6 6 7 5 12 12 3 0 -2 -1 5 9 9 2 -0 -6 -8 7 1 -10 -3 2 10 17 18 13 9 15 17 15 13 12 12 10 10 6
8 11 11 10 7 8 5 10 22 17 -2 -17 -7 14 26 17 4 22 33 11 10 20 10 6 10 10 6 5 10 6 4 5 0 -1 -2 0 -3 -5 3 7 16 20 14 10 9 12 13 11 12 12 12 10
7 8 12 12 8 8 4 3 17 21 -1 -16 -1 7 8 11 1 13 32 17 8 15 13 14 16 12 12 10 7 6 4 6 12 11 6 7 3 2 6 4 6 12 15 15 10 13 15 12 11 12 12 9
6 7 8 12 11 10 7 2 7 16 7 -9 -7 -4 -4 2 -1 -1 7 10 12 15 10 8 14 15 15 12 7 8 9 5 7 12 14 14 12 10 9 8 7 4 6 10 11 17 21 20 13 10 12 9
6 6 6 8 10 11 10 6 2 8 14 3 -12 -11 -4 -4 -5 -3 -1 3 2 8 14 10 7 8 8 11 13 11 6 1 -4 -3 5 11 11 11 12 11 8 7 7 7 7 9 15 21 20 15 10 7
5 6 6 6 7 9 12 10 6 3 9 12 3 -3 -1 -0 -1 -4 -2 5 -0 -4 7 13 12 14 16 15 16 17 14 9 2 -4 2 9 9 5 8 10 9 7 6 9 9 5 6 13 21 22 14 5
4 5 5 6 6 6 8 10 10 7 6 9 9 5 1 3 7 5 -1 -0 3 -2 -5 -2 1 8 14 12 12 14 17 19 15 11 8 9 8 4 5 7 9 7 2 3 7 7 5 5 11 18 19 14
4 5 5 5 6 6 5 7 8 9 9 8 8 5 5 5 2 3 6 2 2 4 3 -2 -9 -6 -1 1 9 12 12 14 16 17 16 12 10 8 7 6 7 8 5 1 1 5 6 3 4 10 16 22
4 4 5 5 5 6 5 6 6 7 7 8 10 6 8 13 5 -1 5 10 8 4 6 5 -0 2 0 -10 -4 7 10 12 15 17 19 19 18 16 13 9 6 6 7 5 1 1 6 6 5 7 10 15
5 3 3 4 5 5 5 5 5 6 6 6 8 8 6 10 11 4 -4 -1 10 12 9 7 2 3 6 1 -6 -5 0 6 9 11 14 18 18 19 19 15 11 10 10 10 7 2 4 7 5 6 6 6
5 4 3 3 4 4 5 5 5 5 6 6 5 7 8 6 9 9 -1 -9 -3 7 10 9 4 -1 2 7 3 -3 -3 -5 -4 -0 5 9 11 13 14 13 12 12 13 11 9 6 4 6 7 5 6 6
5 5 4 3 3 3 4 4 4 4 4 6 6 6 7 7 7 9 9 1 -5 -3 4 6 5 3 1 2 6 9 9 6 4 -3 -5 2 11 17 15 13 12 11 11 9 7 7 6 6 8 7 5 5
7 5 5 4 3 2 4 4 4 5 4 4 5 6 7 8 8 8 9 9 5 0 1 4 6 7 6 4 4 5 9 14 15 7 4 12 14 16 20 19 18 16 13 12 9 9 10 8 7 8 8 5
7 7 6 5 5 3 2 3 3 4 4 3 3 4 5 7 9 9 8 8 9 8 5 5 6 8 10 9 4 7 4 -5 5 16 10 7 3 1 7 9 11 16 16 17 15 12 11 10 9 8 7 6
4 6 7 6 6 5 3 3 3 3 4 4 3 4 4 4 6 8 9 8 8 10 10 8 5 3 9 11 5 13 11 -10 -1 16 4 1 8 8 5 2 3 7 9 12 15 16 14 13 11 11 9 6
4 4 5 7 7 6 6 4 4 3 4 4 3 3 3 3 4 6 7 8 9 9 9 10 6 -2 2 8 1 2 8 -2 -6 -3 -3 4 9 8 9 7 3 3 6 7 8 11 13 14 13 12 12 8
5 5 4 5 6 6 6 6 5 5 4 4 4 3 3 3 3 5 5 6 8 9 9 10 9 2 -1 3 2 -0 2 3 -6 -17 -9 7 8 6 5 7 7 4 7 9 9 9 8 10 12 13 15 14
6 7 6 5 5 5 6 6 6 5 5 4 5 4 4 3 3 3 5 6 6 7 8 9 11 10 8 6 4 1 -1 3 6 -5 -11 -7 1 8 2 1 10 9 8 11 11 12 10 9 10 9 11 13
7 7 6 7 6 6 6 7 7 6 6 5 5 5 5 5 4 2 2 4 6 6 7 9 9 7 11 14 9 4 2 2 9 9 2 -5 -4 7 8 -0 7 12 10 13 14 11 11 10 9 8 8 9
10 9 8 7 7 7 6 6 7 7 7 6 5 5 5 6 6 4 2 2 3 4 5 7 8 5 5 9 11 14 11 1 -2 0 6 12 9 12 16 7 6 11 8 11 13 9 11 12 10 10 10 10
11 12 13 12 9 8 7 6 5 6 7 7 7 6 5 5 6 6 5 3 2 3 4 4 6 8 5 3 4 9 9 5 1 -5 -9 -1 2 2 11 9 4 7 8 10 11 10 14 17 16 13 8 7
9 9 11 13 14 13 11 10 8 7 7 6 7 7 6 5 5 7 7 6 5 2 2 3 3 6 8 7 5 4 7 10 9 7 -3 -10 -8 -7 -3 2 1 2 4 4 8 13 12 7 7 9 7 5
7 6 6 6 10 12 13 14 13 12 11 9 8 6 7 7 6 6 8 11 12 7 3 4 4 4 5 5 7 8 10 12 9 10 7 -3 -6 -5 -9 -7 -0 5 3 -2 1 6 5 2 1 2 4 5
6 6 6 4 3 4 7 9 11 12 13 14 13 10 7 6 7 7 7 10 12 8 6 7 6 5 3 2 5 6 6 9 9 7 11 7 -0 -1 -5 -9 -6 3 7 1 1 5 3 2 3 4 6 6
6 6 6 6 5 3 3 4 5 7 9 10 13 14 13 8 6 6 6 8 7 5 7 13 19 18 10 3 3 6 3 6 9 6 8 9 5 6 6 -1 -6 -2 4 2 -1 4 6 1 1 6 5 1
8 8 7 7 7 7 6 5 3 2 3 6 7 10 13 13 10 7 5 6 6 7 9 14 21 21 14 10 9 9 5 2 6 8 5 1 2 9 12 9 3 -5 -6 -3 -5 -4 3 2 -2 -1 -1 -3
10 10 10 9 9 8 8 8 7 5 3 4 6 7 10 12 13 11 8 6 4 5 7 11 12 4 -2 5 12 13 14 10 4 5 6 3 3 6 7 7 8 2 -7 -9 -8 -6 1 4 -2 -6 -2 2